GFSNW_sfc_dewp_000.txt.gz
Dewpoint
54 53 53 54 55 54 52 50 42 50 53 45 45 41 42 42 41 43 41 41 39 37 38 36 36 38 40 42 42 38 40 37 33 33 32 34 28 27 25 24 23 23 21 21
54 54 54 54 55 54 48 45 43 50 52 40 40 41 40 41 41 41 40 40 42 41 39 38 39 40 42 42 42 40 40 36 32 33 34 34 34 32 28 29 29 29 21 21
54 54 54 54 54 54 49 45 41 47 46 41 39 38 38 39 42 41 41 40 41 38 39 40 40 38 43 44 42 45 42 35 32 27 27 30 32 33 33 31 27 26 25 25
55 54 53 53 54 53 50 43 39 42 40 38 37 37 36 36 37 41 40 39 37 37 36 37 36 38 39 39 42 40 39 32 30 30 30 28 28 29 29 30 30 27 24 25
56 54 53 53 53 52 49 43 38 39 37 37 33 36 35 33 34 36 37 38 37 36 35 36 36 37 36 36 37 36 36 30 29 26 24 21 22 23 22 25 27 27 27 26
56 55 53 52 52 51 46 45 42 41 37 36 32 35 34 35 35 36 38 38 37 37 34 32 32 34 37 37 34 33 32 28 25 21 23 25 24 25 25 25 25 25 23 25
55 55 54 53 52 50 48 46 45 41 33 32 33 35 34 34 34 32 34 34 34 35 32 31 31 28 27 27 30 31 31 30 28 25 26 22 26 29 28 29 28 27 28 29
55 55 55 54 52 51 49 48 45 41 33 33 33 33 33 33 33 32 33 32 32 33 30 30 29 27 29 29 33 32 27 29 27 27 27 28 29 30 29 29 29 30 30 30
54 54 55 55 53 51 50 48 50 45 41 36 33 31 32 31 30 30 32 33 35 35 31 31 32 34 30 28 32 36 34 29 29 29 25 27 29 31 32 31 27 36 34 34
53 54 54 55 54 52 52 50 50 48 45 40 39 39 36 34 33 31 31 32 32 35 31 31 32 31 27 29 29 32 32 31 28 28 28 30 32 32 33 28 30 37 37 37
52 53 53 54 54 53 53 52 51 49 47 45 42 40 37 35 36 37 34 34 34 33 31 33 32 30 29 28 30 31 32 31 31 31 28 25 34 33 31 33 36 37 39 35
51 52 53 53 54 54 53 51 50 50 49 47 47 46 45 38 39 39 35 38 36 38 37 34 32 29 29 29 29 32 28 31 31 33 33 36 35 34 35 34 36 36 36 34
50 51 52 53 53 54 53 50 50 49 46 47 46 46 47 45 43 41 39 38 38 37 43 39 38 34 33 32 31 32 33 33 32 32 31 33 33 34 34 35 35 36 37 37
49 50 52 52 53 54 53 50 50 50 47 43 45 46 45 46 47 46 44 40 41 41 43 41 39 37 40 38 36 35 35 35 34 34 35 35 35 35 35 35 35 35 34 34
48 50 51 51 52 53 53 52 52 52 48 43 44 46 45 45 45 46 46 43 41 41 40 40 38 40 39 40 38 36 37 35 34 32 33 34 34 36 35 35 35 34 33 33
47 50 51 51 52 52 51 46 51 52 51 45 39 46 42 43 44 44 45 45 42 43 41 40 41 41 39 36 36 36 35 35 35 33 34 35 36 36 35 34 34 33 35 36
46 48 50 51 52 51 47 45 47 49 52 44 38 41 41 41 44 44 43 44 43 43 41 40 40 40 41 38 34 33 33 34 34 35 35 35 36 34 33 34 36 37 36 36
47 49 50 51 50 48 46 46 47 50 47 45 36 37 38 41 40 40 43 42 43 42 41 41 39 40 40 35 36 34 35 35 35 35 37 35 34 34 34 35 34 32 31 28
50 51 50 48 45 44 44 45 47 47 45 39 37 34 34 40 39 40 40 41 37 42 38 39 39 37 34 35 35 35 35 35 36 34 34 33 33 35 34 32 32 31 29 24
49 47 44 39 42 44 44 44 42 39 40 40 36 40 36 39 38 36 36 37 34 32 35 38 35 34 35 35 36 36 36 34 34 32 30 33 33 33 32 30 30 27 13 13
46 42 38 42 43 42 40 36 36 37 34 37 36 36 35 39 36 36 37 33 33 29 32 32 30 28 32 34 35 32 32 32 32 33 32 33 32 32 31 30 17 14 14 13
44 41 42 41 38 36 33 32 33 33 32 35 34 34 37 37 39 35 35 33 32 27 31 29 24 28 31 27 26 27 29 31 31 30 31 30 31 32 29 18 14 13 12 11
43 39 35 35 34 29 25 25 30 31 33 32 34 33 35 36 37 35 33 31 29 29 26 24 26 31 29 28 26 27 29 30 27 24 21 23 25 20 13 12 11 10 11 12
37 34 29 28 26 28 29 31 32 32 32 33 34 33 33 33 33 33 29 32 28 25 23 21 27 28 26 23 26 28 27 28 22 19 13 12 12 12 11 12 11 12 12 13
35 34 25 28 30 32 30 30 30 31 33 33 32 32 30 30 30 30 30 27 23 24 22 27 27 25 24 22 25 27 28 28 21 17 13 12 11 12 13 14 15 14 13 13
35 34 32 29 28 31 27 29 31 32 34 32 32 29 27 27 28 28 25 25 21 24 26 28 26 25 22 22 24 27 28 29 25 17 14 13 13 14 14 15 15 14 13 13
33 32 32 30 29 32 30 30 31 33 32 27 30 27 22 25 26 25 25 23 27 30 27 27 26 23 23 21 23 26 27 27 27 20 16 17 17 16 15 14 15 15 14 15

GFSNW_sfc_dewp_003.txt.gz
Dewpoint
56 55 54 54 54 55 49 47 36 45 52 43 43 41 42 43 43 44 42 43 41 40 41 36 39 39 40 42 43 39 40 35 32 33 31 33 29 27 25 23 24 24 21 21
56 55 54 54 54 54 46 42 42 48 46 39 39 41 41 42 42 42 42 41 42 40 39 38 40 39 42 43 42 39 39 35 32 31 31 33 33 32 29 29 29 26 21 22
56 56 55 54 54 54 47 43 37 42 42 41 39 39 39 40 42 41 41 40 40 40 39 40 39 38 42 42 41 45 41 33 29 27 27 31 32 32 32 30 26 25 26 26
56 56 55 53 53 53 48 40 36 40 35 35 35 36 37 38 39 41 40 38 38 38 37 37 36 38 39 38 41 38 36 28 29 28 29 27 27 28 29 31 30 26 22 24
56 55 55 54 53 52 44 40 36 38 36 35 33 36 34 35 36 37 39 39 38 37 35 37 36 37 37 36 36 35 34 29 26 23 24 23 21 22 23 25 27 29 29 27
56 55 55 54 52 50 43 43 42 35 36 33 33 34 34 35 36 37 37 37 37 35 33 31 31 33 35 37 34 33 31 26 24 20 25 25 24 25 25 25 24 23 23 24
55 55 55 54 53 50 46 44 43 36 32 32 34 35 35 33 34 33 32 34 34 34 32 31 29 27 26 27 28 31 31 28 28 24 26 22 26 29 28 27 29 28 28 28
54 55 55 55 53 52 46 47 43 38 32 33 33 34 32 31 31 31 33 32 32 34 30 29 27 28 29 31 35 34 29 29 26 26 26 27 29 30 30 29 29 31 31 33
54 54 54 55 54 52 47 46 48 43 35 33 32 30 30 29 29 29 30 32 35 35 31 32 30 30 30 28 32 35 32 30 27 24 22 24 29 31 32 31 26 35 35 35
53 53 53 54 54 52 50 48 49 46 40 39 39 35 32 33 32 30 30 30 31 34 32 32 29 31 28 28 28 30 30 30 27 28 26 28 32 32 33 26 26 36 38 37
52 52 53 54 54 52 51 50 49 47 44 43 41 40 35 35 36 34 34 35 35 33 31 32 31 30 30 28 30 32 31 28 29 29 26 24 34 33 31 32 35 36 36 38
51 52 53 53 54 53 53 49 49 49 47 45 47 47 46 40 41 37 35 38 35 35 35 34 32 30 29 29 28 30 27 31 32 32 30 34 34 34 34 35 34 35 34 35
50 51 52 52 53 53 53 50 49 48 44 44 45 45 46 46 43 42 38 38 38 38 43 39 37 34 32 30 30 30 33 35 32 32 33 34 35 34 34 34 34 36 36 36
49 50 51 52 53 54 52 50 50 49 47 42 45 45 45 46 47 44 43 40 41 42 43 40 38 37 38 36 35 34 34 35 34 33 34 34 34 34 35 35 35 35 34 34
49 50 51 52 52 53 53 52 51 52 47 42 44 46 44 44 46 46 44 42 42 41 39 37 35 40 39 39 36 33 36 34 33 32 35 34 34 35 36 35 35 35 33 33
48 50 51 51 52 53 51 46 50 52 51 44 38 45 42 43 44 45 45 44 43 43 38 36 40 41 39 34 33 36 36 37 36 35 35 34 35 36 35 35 34 34 34 34
47 49 50 51 52 49 47 45 47 50 51 44 37 39 41 41 44 44 44 44 44 42 41 39 40 39 40 38 33 34 36 34 34 36 36 35 35 34 33 34 36 37 36 36
47 48 50 51 49 48 45 46 48 51 47 45 35 36 38 41 41 40 43 42 42 42 40 41 39 40 40 35 36 35 36 35 35 36 36 35 34 33 34 35 35 34 34 33
48 50 50 47 45 43 44 46 48 48 45 38 37 34 34 40 40 41 40 41 37 42 39 39 39 37 34 35 35 35 35 34 34 32 31 29 32 34 35 33 33 32 31 29
50 47 44 38 42 44 44 42 41 39 40 39 37 39 34 38 39 37 36 36 34 32 35 38 35 34 36 36 36 36 35 35 32 29 27 32 33 32 35 33 33 33 31 25
45 40 37 42 43 41 38 35 35 37 34 37 37 36 34 37 35 34 35 33 33 29 30 30 30 29 31 32 33 30 29 31 31 31 30 31 33 32 34 33 32 26 16 14
43 40 41 41 36 34 30 31 32 33 31 35 34 35 37 36 37 33 35 31 31 24 32 29 24 27 30 28 26 27 29 30 31 29 30 29 31 32 32 28 17 16 13 12
42 37 34 33 33 28 26 23 27 29 32 33 34 33 35 36 37 34 33 28 27 28 27 24 24 29 29 26 26 26 28 29 26 22 20 23 29 29 25 18 15 13 10 11
36 33 29 26 24 25 22 23 26 30 30 31 33 32 32 32 33 31 26 31 27 23 22 21 26 27 28 27 25 24 24 27 27 22 18 13 13 11 11 12 10 11 11 13
34 33 24 24 25 26 22 22 25 27 30 32 29 30 30 30 29 30 27 25 23 22 21 25 25 23 22 21 22 24 25 27 28 23 18 13 12 11 11 13 13 13 14 14
33 32 28 30 27 29 26 25 25 28 31 27 27 28 27 24 28 27 25 23 19 23 25 25 22 26 24 22 21 22 25 26 27 25 19 15 13 11 12 13 15 15 14 14
32 30 29 25 28 29 28 29 29 32 27 22 27 21 18 23 25 22 23 22 25 24 25 24 25 26 26 23 20 22 25 26 26 26 21 15 14 14 15 15 15 16 15 14

GFSNW_sfc_dewp_006.txt.gz
Dewpoint
56 56 56 55 54 54 48 45 37 51 51 43 43 43 45 46 47 48 46 39 37 39 41 38 39 39 40 42 41 37 39 33 30 31 31 31 29 27 24 22 21 23 21 22
56 56 56 55 54 53 45 41 42 51 50 40 39 41 42 45 46 44 43 44 44 42 40 38 39 40 42 43 41 38 38 35 31 31 32 33 32 30 27 28 28 26 22 23
55 55 56 55 54 53 46 42 36 40 41 41 40 39 39 40 45 44 42 41 43 41 39 40 38 39 42 42 40 45 40 32 31 29 29 32 32 33 31 27 25 23 26 26
55 54 55 55 54 53 47 39 35 39 34 35 36 37 39 38 38 41 42 39 39 38 36 36 37 39 38 38 41 37 33 28 29 28 28 28 29 30 32 30 28 24 24 25
55 53 55 55 53 52 43 37 35 37 35 35 34 35 34 36 37 38 39 37 35 35 34 35 36 37 36 36 35 35 33 28 25 21 23 24 22 23 24 26 30 30 29 26
55 54 54 55 53 49 41 42 41 33 36 32 32 34 34 34 37 36 35 37 33 30 31 30 32 35 35 36 34 32 30 25 22 17 26 25 23 25 25 22 23 22 19 22
54 55 55 55 54 49 45 44 43 33 31 33 33 34 33 33 34 33 32 34 32 34 32 30 29 28 32 32 32 33 29 28 27 23 25 21 25 28 28 26 27 27 27 29
54 54 55 55 54 52 45 45 41 36 32 34 34 32 31 30 30 31 31 31 32 34 30 29 29 30 30 31 35 34 30 28 27 25 25 26 28 30 29 28 30 33 33 34
53 53 54 54 54 52 46 45 46 41 34 31 33 31 30 29 28 28 29 31 34 34 32 34 29 28 29 28 32 33 30 30 27 25 23 23 27 31 32 30 24 35 36 35
52 53 53 54 54 52 50 47 47 45 37 38 37 31 32 32 31 30 30 29 29 33 33 33 30 31 30 28 28 28 27 27 26 28 25 27 30 32 32 25 23 36 37 36
51 52 53 53 54 52 50 48 48 46 42 41 42 41 35 35 34 35 33 35 34 33 32 33 31 31 29 28 30 30 28 27 27 28 25 22 33 34 31 32 36 34 34 34
51 52 52 53 54 53 52 48 48 48 45 44 46 46 45 40 41 36 35 37 34 35 34 33 32 30 29 28 28 30 28 32 31 29 28 33 34 34 34 35 33 34 35 34
50 51 52 53 53 53 52 48 47 47 44 43 44 43 46 45 44 41 37 37 38 39 40 36 34 31 32 29 29 29 31 33 32 31 33 34 33 34 34 35 34 35 35 35
49 50 51 52 53 53 52 50 50 49 45 41 43 45 44 45 46 44 41 40 42 43 43 40 38 37 36 33 33 32 32 34 33 33 34 34 34 34 35 35 35 36 36 35
49 51 52 52 53 53 52 51 51 51 46 42 43 44 44 44 46 44 43 42 41 40 39 39 38 40 37 35 34 35 35 34 33 32 34 34 34 35 36 35 35 35 34 33
49 50 51 51 52 52 50 45 50 51 50 43 35 43 41 44 46 45 44 44 43 42 40 39 40 41 36 33 32 34 35 37 36 34 35 34 35 35 34 34 35 34 33 32
48 50 51 51 50 49 46 43 47 50 50 42 36 39 41 42 44 44 44 44 43 42 41 39 39 39 37 34 32 34 35 37 35 35 35 34 34 34 34 34 35 36 36 36
49 50 51 50 49 48 45 46 48 50 46 43 34 36 38 41 41 40 44 42 42 42 40 40 39 39 38 34 34 33 35 34 35 35 35 34 33 32 33 35 34 33 32 32
49 51 49 47 45 43 43 46 48 48 44 38 37 34 33 40 40 41 40 41 37 42 39 38 38 36 34 34 34 34 35 33 34 33 30 28 32 33 32 34 33 33 32 32
50 46 43 39 42 44 44 42 41 39 40 40 36 39 35 38 39 37 36 36 35 33 36 39 36 34 35 35 37 36 35 34 33 28 25 23 24 32 32 32 33 32 33 31
45 40 37 42 43 41 38 35 33 36 34 38 38 37 36 38 35 35 35 32 33 28 27 32 30 26 30 32 33 31 30 31 31 29 28 29 31 32 32 32 31 32 27 19
43 40 42 41 37 34 29 31 32 33 28 35 35 35 36 37 37 34 35 30 31 25 33 29 25 28 30 29 27 28 29 29 30 31 29 29 31 31 31 31 30 25 16 14
41 37 34 33 34 27 25 21 26 28 30 33 34 33 35 36 35 33 33 29 27 31 28 22 24 27 28 26 26 26 27 28 28 25 25 26 30 30 29 26 19 16 12 11
36 33 29 27 25 25 24 22 23 27 31 34 34 32 33 34 32 32 28 30 29 25 22 20 25 26 27 27 27 23 22 25 26 25 22 17 21 23 19 19 14 12 10 11
34 32 25 26 21 26 25 28 28 30 32 33 31 30 30 30 29 29 29 26 23 22 21 26 25 21 22 25 22 22 22 22 24 25 24 20 15 12 10 11 11 11 12 13
33 30 23 26 28 27 19 15 29 31 31 29 26 28 25 26 24 25 22 21 20 23 27 25 21 25 23 23 22 21 21 23 24 26 26 23 17 13 12 11 13 14 14 14
32 25 28 23 23 27 24 26 28 32 25 22 27 16 15 26 22 19 22 23 26 27 23 21 24 25 26 26 25 22 21 23 24 25 26 25 19 14 12 11 13 15 15 15

GFSNW_sfc_dewp_009.txt.gz
Dewpoint
56 56 56 56 55 54 47 44 38 51 52 46 46 42 46 42 41 48 46 41 37 36 36 37 39 39 39 42 40 37 37 30 27 28 33 30 28 25 23 23 22 22 21 22
56 55 56 56 55 52 44 40 45 51 50 41 42 45 46 46 46 46 43 38 40 42 39 39 39 40 42 42 40 38 37 33 30 30 32 34 32 28 25 27 27 24 21 22
55 54 55 55 55 53 46 41 37 45 48 43 42 39 43 44 47 44 43 43 43 40 38 39 38 39 41 41 40 44 39 33 29 25 29 32 31 31 28 27 25 24 24 26
55 54 54 55 55 53 47 39 34 38 36 37 38 39 41 42 42 45 44 42 42 39 37 36 37 39 37 38 40 36 31 28 28 28 28 31 31 32 30 27 26 24 24 26
54 54 54 55 54 51 43 38 35 36 35 34 34 36 35 37 37 42 42 40 39 40 36 36 37 37 37 36 35 33 31 28 25 21 25 23 22 25 32 31 30 28 29 27
53 54 54 54 54 49 41 42 41 33 35 32 32 34 35 36 35 35 39 36 35 35 30 30 33 35 34 35 33 31 27 24 20 18 25 25 20 24 23 22 24 24 19 21
53 54 54 54 54 48 44 43 42 32 30 32 32 34 34 36 34 34 33 33 32 32 32 30 32 31 32 34 33 32 28 26 26 21 25 19 22 29 28 25 28 26 31 32
53 54 54 54 54 52 44 44 41 35 32 33 32 31 31 30 30 30 30 31 32 33 30 30 30 31 28 30 34 31 30 29 27 26 23 24 28 29 27 28 31 33 33 34
53 53 54 54 54 52 45 45 45 38 34 32 33 30 30 29 28 28 29 30 33 33 34 33 27 27 27 28 31 31 30 29 28 27 24 23 27 31 32 28 30 35 36 36
53 53 53 54 54 52 48 46 46 43 35 37 34 30 30 31 31 29 28 29 30 34 34 33 28 30 30 28 29 27 26 27 26 28 26 27 29 31 32 25 23 35 34 36
52 52 53 53 54 52 50 47 47 45 39 40 42 40 34 35 34 35 32 34 34 33 33 33 32 31 29 29 29 27 25 25 26 28 26 24 33 33 30 31 36 34 33 33
51 52 52 53 53 52 51 46 47 47 43 42 45 44 44 40 40 34 34 37 34 36 34 32 31 30 29 29 28 31 29 30 28 28 28 32 34 33 34 34 33 34 34 35
51 51 52 53 54 53 51 47 47 46 43 43 43 42 45 45 45 41 38 37 37 39 38 35 33 30 31 28 28 28 31 33 31 31 32 34 33 34 35 36 36 36 35 35
50 51 52 53 53 53 52 47 48 46 44 40 42 45 43 44 46 43 41 40 42 42 41 37 36 35 34 32 32 31 32 34 33 33 33 34 34 35 35 35 35 35 35 34
49 51 52 52 53 52 52 51 50 50 44 42 41 43 43 45 46 42 42 41 40 40 38 37 38 40 38 35 33 34 35 34 32 31 34 33 34 35 35 35 34 35 34 33
50 51 52 52 53 52 50 44 49 50 50 42 37 43 41 44 45 44 44 43 43 41 40 38 40 41 35 32 29 33 35 36 35 34 35 34 34 35 34 34 34 35 34 33
50 51 51 52 51 48 44 41 46 49 50 41 37 38 41 41 44 44 44 44 43 43 41 39 39 39 37 33 30 33 34 36 34 34 35 33 33 33 33 34 36 36 35 35
50 51 51 50 49 48 44 46 49 49 45 41 34 36 37 41 41 40 44 42 42 42 40 40 38 39 37 31 33 32 34 35 34 35 35 34 33 32 32 33 34 34 33 33
50 50 49 46 44 43 44 46 48 47 43 36 36 34 32 41 40 41 40 41 37 41 39 38 37 36 32 33 33 34 35 32 33 31 29 31 32 32 31 30 30 32 32 32
49 46 41 38 42 45 45 42 41 39 40 40 34 38 35 39 39 37 36 36 35 33 36 38 36 35 36 34 35 35 34 34 32 29 28 26 21 26 29 30 31 33 33 31
45 39 37 42 44 41 38 35 35 36 31 38 36 36 35 38 35 35 35 32 32 28 29 33 30 24 28 30 31 31 30 32 32 30 27 27 27 29 29 30 31 31 31 29
42 40 42 41 36 34 30 32 32 33 27 34 35 35 37 37 36 34 34 30 31 23 31 29 22 24 27 28 27 28 29 30 29 30 30 28 28 29 30 30 30 30 28 18
41 38 35 34 33 27 26 23 27 28 30 34 34 33 35 36 35 33 32 28 26 30 28 24 22 24 26 26 26 26 26 28 28 28 27 28 28 29 29 29 28 25 16 14
35 32 28 29 26 24 24 21 24 27 33 35 35 33 33 34 32 33 29 30 30 24 18 16 21 24 26 27 26 22 24 25 25 25 23 21 20 24 27 27 23 17 15 12
33 33 28 27 21 23 17 26 31 31 36 33 31 31 30 29 29 29 29 26 23 21 17 20 22 22 24 27 25 22 21 21 21 23 24 23 20 17 15 13 14 14 12 11
32 30 22 26 23 26 26 25 30 32 32 29 28 27 26 27 27 27 25 21 16 19 20 23 20 25 25 23 22 21 21 21 21 22 24 25 24 19 16 13 12 11 11 12
31 29 27 21 18 25 28 28 32 33 32 27 27 17 19 26 22 20 21 20 21 21 20 19 23 24 24 24 25 26 25 22 21 22 24 24 25 21 15 12 12 13 14 15

GFSNW_sfc_dewp_012.txt.gz
Dewpoint
56 56 55 55 56 53 48 43 38 53 53 44 44 38 44 44 43 47 45 41 38 35 39 37 38 38 40 40 39 33 33 28 26 26 32 28 25 24 24 25 22 23 22 22
55 55 55 55 55 51 43 40 46 52 52 41 42 45 44 44 44 44 44 38 39 37 38 38 41 42 42 42 39 36 35 31 29 30 32 33 30 27 24 26 26 22 21 22
54 55 54 54 55 53 45 41 39 47 48 46 43 43 43 43 48 46 44 41 40 39 38 41 40 40 41 41 40 44 39 32 28 27 28 31 30 29 27 26 25 24 24 26
54 54 54 54 55 54 45 39 35 40 39 41 40 41 44 43 43 45 44 42 39 38 37 37 38 38 37 38 42 36 31 29 29 27 31 31 30 31 28 26 26 25 27 25
54 54 53 54 54 52 43 37 36 36 35 35 38 36 40 41 37 42 42 41 40 39 38 37 37 37 37 35 35 32 31 28 25 22 25 24 26 30 29 28 28 26 27 27
53 53 53 54 54 50 42 41 42 34 34 32 33 34 38 37 37 41 37 39 38 33 33 32 34 34 34 35 32 30 27 24 23 22 25 24 18 22 31 30 29 30 28 27
53 53 53 54 54 49 43 42 41 33 30 32 32 34 36 37 35 38 34 37 38 35 32 33 34 32 34 33 32 30 27 25 24 20 24 14 19 30 25 25 26 25 30 31
52 52 53 54 54 52 43 43 41 35 31 33 32 33 32 30 30 33 31 31 35 35 32 34 37 33 33 31 31 30 29 28 26 23 20 21 28 28 28 28 31 33 33 35
52 52 53 54 54 53 44 44 43 37 34 32 32 30 31 29 28 28 31 31 34 34 35 32 32 33 34 26 29 29 29 30 26 27 24 20 25 31 31 31 30 35 35 36
52 53 53 53 54 53 48 45 45 40 34 37 34 30 31 30 30 28 28 28 31 35 35 33 31 30 30 26 26 25 27 28 25 28 26 27 29 32 32 26 26 37 36 35
52 52 53 53 53 53 50 46 46 44 38 39 42 39 33 33 33 29 29 33 33 34 33 33 32 30 29 29 30 26 25 25 26 28 26 24 32 32 29 31 34 34 33 33
52 52 52 53 53 53 51 46 47 46 41 41 44 44 43 40 39 33 33 35 34 35 34 33 32 30 29 29 28 31 27 27 27 28 28 32 34 33 35 35 34 33 34 33
51 51 52 52 53 54 52 48 46 44 42 42 42 41 44 45 44 41 38 38 37 38 37 34 33 30 31 29 29 28 30 32 31 31 32 33 33 34 34 34 34 35 35 35
50 51 51 53 54 53 52 49 49 46 43 40 41 44 41 44 45 42 41 40 42 41 40 36 35 33 33 30 32 30 31 33 32 32 33 34 34 35 34 35 35 35 35 34
50 50 52 53 53 53 51 50 50 50 45 41 42 43 42 45 43 42 42 41 40 39 37 36 35 36 35 33 33 33 34 33 32 30 34 33 33 35 35 35 34 34 34 32
50 51 52 52 52 52 49 46 49 49 49 42 38 43 41 44 44 43 43 43 41 39 37 36 37 38 34 29 30 32 34 35 35 33 34 34 35 35 33 34 34 33 33 32
50 51 52 52 51 48 44 41 45 49 49 42 37 37 41 41 44 44 44 44 43 41 38 36 36 37 36 32 29 31 34 36 34 35 35 33 32 33 33 34 35 36 35 34
51 51 51 50 49 48 45 47 48 48 44 41 34 35 39 41 41 40 43 42 42 41 40 39 37 37 37 31 32 32 34 34 34 34 33 33 33 32 32 32 32 30 31 33
51 50 50 47 44 43 45 47 47 44 42 36 35 33 32 41 40 41 40 41 37 41 38 38 38 36 31 32 33 33 34 33 34 31 30 29 30 33 29 29 28 29 30 32
50 46 41 38 42 45 44 41 39 37 36 37 34 36 35 38 38 36 36 37 35 33 36 38 35 33 35 34 34 35 35 34 32 29 28 26 20 23 27 28 29 31 31 33
44 39 37 42 44 40 36 34 32 35 32 38 34 34 35 38 34 34 35 31 30 23 28 33 27 26 28 29 31 31 32 33 31 30 28 26 24 26 27 28 30 30 30 30
41 41 42 41 36 32 28 32 28 32 27 33 36 35 35 36 37 33 32 29 26 25 32 31 21 25 26 28 27 28 32 32 30 28 28 27 28 28 28 29 29 29 29 28
42 38 35 35 33 28 28 27 28 22 27 34 34 33 36 35 35 32 27 26 24 29 27 24 23 23 24 25 26 26 27 28 28 28 27 26 27 27 28 28 28 26 26 21
35 33 28 31 27 28 27 22 23 27 33 35 35 33 31 34 32 33 28 29 28 25 21 17 20 24 27 26 25 24 24 25 25 24 23 22 22 22 25 28 26 24 21 17
33 33 28 27 22 22 18 18 30 32 37 33 32 30 31 30 29 28 25 26 23 22 17 20 21 23 26 26 25 21 21 23 23 23 23 23 22 20 19 19 19 20 19 15
32 29 24 25 20 25 27 29 31 33 33 31 30 25 26 25 26 26 21 19 18 18 18 20 21 25 26 26 24 22 21 20 20 21 22 23 24 23 21 17 14 12 12 11
31 28 27 21 15 22 28 30 32 33 32 26 26 23 24 27 24 24 20 19 19 18 18 19 23 26 24 23 24 25 24 24 22 21 22 22 24 22 19 19 18 13 12 12

GFSNW_sfc_dewp_015.txt.gz
Dewpoint
55 55 56 55 55 52 49 42 40 53 53 42 41 37 39 42 43 42 40 38 38 34 31 34 36 37 38 41 40 30 29 29 30 27 31 31 28 28 27 26 23 23 22 23
54 55 55 55 55 51 43 40 45 52 51 39 38 40 40 41 43 40 43 40 38 36 33 37 39 39 40 42 40 34 33 31 29 29 31 33 28 25 26 26 25 22 22 24
54 54 54 54 54 53 44 40 42 46 46 46 42 42 42 42 47 45 46 40 39 38 38 40 38 40 42 43 39 44 38 31 29 29 29 31 29 27 26 26 24 24 23 24
54 54 54 54 54 54 45 40 37 42 39 41 42 45 43 40 42 45 46 41 38 37 38 39 39 40 38 40 44 37 34 30 29 27 30 30 30 29 26 25 26 24 25 25
54 53 54 53 54 53 43 38 35 37 37 36 42 42 42 41 43 43 41 39 38 39 37 38 38 38 37 37 36 34 32 29 26 24 28 30 30 31 28 26 27 26 26 27
54 54 53 53 54 50 42 40 40 35 36 33 37 36 40 42 43 44 38 38 38 40 35 34 39 37 36 36 33 31 31 25 26 25 25 23 23 25 30 29 29 27 26 28
54 53 53 53 54 50 44 42 41 35 31 34 34 34 39 40 39 41 35 38 37 39 33 35 33 33 33 34 31 30 31 25 26 21 22 17 24 28 31 30 28 29 28 28
53 53 52 53 54 53 46 43 41 35 30 33 33 34 32 31 35 36 36 34 37 35 33 39 38 37 31 31 32 29 29 28 26 23 20 22 28 28 27 27 29 28 33 35
52 52 52 53 54 54 46 43 43 37 33 31 32 32 31 31 29 35 35 36 40 38 38 34 34 33 35 29 30 31 29 33 30 28 24 17 24 31 30 32 27 35 35 35
52 52 52 53 54 54 48 45 44 40 33 36 33 31 31 31 29 31 32 34 37 40 37 33 31 31 32 28 26 28 28 27 23 27 24 26 29 32 31 25 26 37 36 37
52 52 52 53 53 54 50 47 45 42 38 39 40 38 32 33 31 29 30 35 33 37 37 35 32 31 30 29 28 26 26 27 26 28 25 22 32 32 28 31 34 35 34 34
52 52 52 53 53 54 52 47 46 46 41 41 43 43 42 39 39 32 33 34 33 34 34 33 32 30 29 30 28 31 26 27 27 28 28 33 34 34 35 34 33 34 34 34
51 52 52 52 53 54 52 49 46 43 41 42 41 41 44 44 44 44 37 38 36 37 37 34 33 30 31 29 29 29 31 33 31 29 32 33 34 34 34 34 34 35 35 34
51 51 51 52 53 54 53 49 49 45 42 38 40 43 40 44 44 42 41 39 41 40 39 36 34 32 32 30 31 30 31 32 31 31 33 33 33 34 35 35 35 35 35 34
51 51 51 52 53 53 52 50 50 50 44 41 42 43 42 44 43 42 42 40 40 39 37 36 36 36 35 33 32 31 33 32 31 30 33 33 33 34 35 35 35 35 34 33
50 51 51 52 53 52 50 46 49 50 49 43 38 43 41 42 43 42 42 41 40 38 37 35 36 37 34 29 30 32 34 35 34 33 34 34 35 34 34 34 34 34 33 33
50 50 51 52 52 49 45 43 46 49 49 42 37 38 41 42 44 43 42 42 42 41 38 36 35 36 34 31 29 30 34 35 34 34 34 33 33 33 34 35 36 36 35 35
50 51 52 51 50 48 45 47 47 48 43 41 34 35 39 41 41 41 43 42 42 41 39 38 35 37 34 31 32 31 33 34 33 32 33 34 33 33 33 33 32 31 31 32
51 51 50 47 45 43 45 47 46 46 42 36 35 33 34 41 40 41 40 41 38 41 38 38 38 34 29 32 32 33 33 33 33 30 30 31 31 32 31 30 29 29 30 31
50 46 41 39 43 46 44 41 40 39 39 37 34 36 35 39 38 36 36 37 35 33 37 38 36 34 34 34 34 35 35 34 32 31 29 28 24 28 29 29 29 30 30 31
44 39 37 42 44 40 36 34 30 34 32 36 36 34 35 38 34 34 35 31 31 28 31 34 30 28 31 31 32 32 33 34 34 33 31 29 24 25 27 28 29 30 30 32
41 41 42 40 36 33 28 27 30 32 28 34 35 33 34 34 35 33 30 25 23 18 32 32 25 26 27 28 29 32 33 33 29 25 27 27 27 27 28 28 29 29 30 29
42 39 36 34 33 28 23 26 27 21 26 34 34 33 34 32 32 28 25 19 19 28 27 24 25 25 25 26 28 30 31 30 27 26 26 26 27 27 27 28 28 28 28 26
36 33 30 31 28 27 25 24 24 27 32 35 34 32 32 31 25 29 20 26 27 20 17 19 22 22 27 26 26 29 28 27 27 25 24 24 24 24 25 27 27 26 24 23
33 34 29 29 24 23 17 21 30 33 37 34 31 29 30 29 28 27 26 25 22 22 18 19 19 21 25 25 23 24 24 24 23 23 23 22 22 21 20 20 21 23 22 19
32 30 26 25 21 24 27 26 32 33 34 31 29 24 21 25 24 26 17 19 16 19 21 21 21 27 25 25 22 20 21 21 20 21 22 22 23 23 22 19 16 14 14 15
31 26 26 22 17 24 28 30 33 34 32 23 24 21 21 26 22 24 19 18 20 18 19 21 24 27 26 24 23 22 22 22 22 22 21 22 23 22 20 20 19 14 12 11

GFSNW_sfc_dewp_021.txt.gz
Dewpoint
54 55 55 55 56 56 51 47 39 51 52 41 40 35 37 40 39 41 40 38 32 25 23 25 29 27 28 30 34 38 40 38 34 37 36 39 40 36 35 30 28 26 24 23
51 54 55 55 56 53 47 44 45 51 48 36 36 38 38 39 39 40 39 38 35 26 24 25 31 32 29 37 35 35 38 33 34 34 36 38 38 38 38 35 31 28 23 24
50 54 55 55 55 52 48 45 41 46 45 44 40 37 38 37 41 40 40 36 33 27 25 26 29 34 35 38 33 43 39 32 28 27 31 36 36 38 36 35 31 29 27 25
50 54 54 54 55 53 49 44 42 41 38 39 40 41 39 39 39 42 41 41 34 29 24 25 28 32 34 36 40 37 38 31 29 27 29 33 34 35 36 35 34 30 28 27
49 53 54 54 55 54 47 42 38 43 42 39 39 40 39 39 39 42 40 40 36 31 23 25 31 33 35 36 39 36 39 31 30 28 30 29 28 30 33 33 33 31 29 29
50 52 53 54 54 51 47 46 43 39 38 38 40 40 39 39 41 42 43 41 40 32 26 28 38 38 36 38 38 37 37 35 31 27 28 29 28 29 29 30 31 30 29 31
49 51 53 53 54 52 47 44 44 41 32 28 33 41 42 42 44 41 43 43 41 38 37 39 40 38 38 38 38 38 36 35 34 32 27 28 29 28 30 30 29 31 32 31
48 49 54 53 54 53 48 46 44 42 34 30 35 39 42 42 42 40 38 38 40 35 39 36 37 38 38 37 34 37 38 37 33 29 27 27 28 26 27 29 30 31 30 30
48 50 53 53 54 54 51 47 48 45 37 31 35 35 41 41 41 39 38 38 41 43 40 39 35 34 36 36 37 34 42 40 37 33 28 26 25 29 28 31 27 30 32 31
47 48 50 53 53 53 51 49 48 47 38 36 35 34 39 42 42 39 38 38 43 44 41 38 37 36 36 35 35 33 37 38 37 37 33 33 29 30 31 24 30 31 32 33
46 48 51 53 53 53 51 49 48 47 41 41 42 39 33 36 43 41 39 40 42 43 40 39 36 37 33 35 37 33 33 36 36 38 36 32 32 31 27 35 36 34 35 36
46 48 48 52 52 53 52 48 49 49 47 45 46 44 44 41 41 42 41 41 41 45 42 41 36 33 34 31 32 33 35 33 32 35 34 34 34 35 36 37 37 37 37 36
46 48 49 52 52 53 52 49 49 48 46 46 44 42 45 45 45 45 43 43 43 40 42 43 42 35 34 33 32 32 31 31 30 28 31 33 34 35 36 37 36 36 36 36
46 47 49 52 52 53 53 49 49 50 47 42 42 44 44 45 44 44 42 45 44 44 45 43 41 38 35 34 33 31 31 31 31 31 33 34 34 36 36 35 36 36 35 35
46 47 48 52 52 53 53 51 50 51 48 42 41 44 44 44 43 42 42 40 40 39 41 41 41 38 37 37 35 33 33 31 29 28 32 33 34 35 36 35 36 36 36 36
46 47 48 52 52 52 51 46 50 51 51 44 40 44 43 44 43 42 42 43 42 43 43 42 41 40 39 40 36 36 33 34 34 33 34 35 35 36 36 36 36 36 36 36
46 47 50 51 51 52 47 45 48 51 51 44 40 40 43 43 44 44 43 44 45 45 43 42 41 40 40 38 36 36 34 35 35 35 36 35 35 35 36 36 36 36 35 35
47 48 51 51 51 49 47 48 49 50 46 43 36 38 41 42 43 42 44 44 44 44 43 41 40 39 38 37 37 33 35 36 35 35 35 36 36 36 36 36 36 35 33 33
48 51 51 49 47 45 47 47 48 48 46 38 37 35 35 42 41 42 42 44 42 43 41 41 40 39 39 40 38 34 36 36 36 37 38 38 37 38 37 37 34 29 29 30
50 48 44 40 44 48 47 44 43 41 41 41 39 41 38 40 39 38 39 39 38 35 38 40 38 39 40 39 38 37 37 37 37 36 35 35 35 36 34 30 26 27 29 30
46 41 41 44 46 43 40 37 39 39 37 39 38 38 37 39 37 36 37 36 37 35 36 37 37 34 36 36 37 38 39 37 37 37 37 36 35 33 29 28 29 30 30 31
44 43 43 42 38 38 36 36 35 35 35 37 36 38 37 37 38 36 35 35 35 32 34 35 30 33 31 34 35 36 36 36 36 35 34 34 33 29 28 29 30 31 32 33
44 41 36 37 36 33 32 29 31 31 36 36 36 35 36 35 37 34 33 33 32 32 30 29 32 31 31 34 35 35 35 32 31 28 27 27 28 29 29 30 30 31 31 32
37 35 32 34 31 33 34 33 36 37 37 36 37 35 36 35 35 33 32 30 29 28 26 26 27 30 30 34 34 31 28 27 27 27 28 28 27 28 28 29 29 29 29 29
34 36 33 32 32 30 30 33 35 37 39 37 36 37 33 34 32 30 29 27 26 26 26 30 32 32 32 33 32 26 26 25 25 26 26 27 27 26 26 27 27 26 26 24
33 33 30 29 32 29 30 33 34 38 37 38 39 34 33 29 31 28 27 25 25 30 35 33 30 29 31 34 28 26 25 24 24 24 24 24 24 24 22 21 21 20 21 20
32 31 29 30 32 32 32 33 36 37 35 36 36 32 31 30 28 27 29 28 32 33 31 31 31 31 32 32 25 24 24 23 23 23 24 24 24 23 23 22 19 16 15 14

GFSNW_sfc_dewp_024.txt.gz
Dewpoint
50 50 50 53 55 55 52 47 41 50 52 41 41 36 36 39 39 40 39 39 37 31 26 26 28 31 30 31 37 36 36 36 33 35 40 43 41 37 36 29 31 31 25 23
50 50 50 54 55 55 49 44 45 51 49 36 36 37 38 39 39 39 39 38 38 34 31 24 26 29 31 36 35 37 39 37 32 34 39 43 40 37 36 35 33 30 24 24
48 50 49 51 55 53 50 45 40 45 46 44 38 36 37 36 40 39 40 38 38 35 33 25 29 30 35 36 30 42 44 38 35 34 36 38 37 37 37 36 32 29 27 25
47 50 50 50 55 53 49 44 42 41 37 38 40 40 39 37 36 40 40 39 38 35 27 24 25 32 34 39 37 39 38 37 37 37 37 37 37 37 37 36 35 31 29 25
46 47 49 53 55 52 47 41 40 43 42 38 38 39 38 38 39 40 39 38 37 36 28 24 24 31 33 33 37 34 35 35 33 29 37 38 35 36 37 36 35 35 34 30
47 48 48 54 54 52 47 47 44 41 40 39 39 38 39 38 40 40 41 40 39 38 35 26 39 30 33 37 35 37 36 36 32 28 29 30 28 30 35 35 36 35 33 32
46 47 48 49 53 52 48 45 45 41 37 36 36 39 42 41 41 41 41 43 40 40 38 42 41 38 38 36 38 37 35 35 37 34 28 25 28 29 30 30 31 34 32 32
45 46 48 50 54 53 49 45 45 44 39 39 35 37 40 41 43 44 42 45 42 37 38 39 39 38 37 37 34 36 37 37 35 31 27 29 28 27 28 30 30 31 31 33
45 46 48 49 54 54 50 47 49 46 41 37 35 34 41 40 41 40 40 39 42 43 40 37 33 33 36 34 36 36 41 41 36 30 27 26 28 29 29 31 28 32 32 32
46 46 47 49 52 54 51 49 50 47 42 42 37 35 37 44 42 39 40 39 44 45 40 37 34 35 38 34 35 34 38 38 36 34 31 33 30 30 31 26 29 33 33 35
46 46 47 48 50 53 52 49 49 48 44 43 43 41 37 39 44 40 39 41 42 42 40 38 37 37 36 38 36 36 36 36 36 36 34 30 32 31 29 35 35 34 37 37
44 46 47 48 52 53 52 48 49 50 46 46 46 45 45 42 44 43 42 42 42 45 41 40 37 35 34 34 35 36 35 36 36 38 37 35 35 35 36 37 36 37 37 37
44 45 47 48 51 53 52 49 49 48 46 45 46 43 45 45 45 46 43 43 45 42 43 42 40 34 36 31 32 34 36 33 31 32 32 33 34 35 36 38 37 37 37 37
44 45 47 48 49 52 52 49 49 49 47 42 43 45 44 46 45 44 44 47 47 45 46 44 41 40 36 37 34 32 32 32 32 31 33 34 35 35 36 36 36 36 36 37
43 44 46 47 49 52 52 51 50 51 48 43 42 44 44 44 44 43 43 46 45 45 43 43 41 40 38 37 35 34 32 31 31 30 33 33 34 36 36 36 36 37 36 36
43 44 46 47 50 52 50 46 50 51 50 46 40 44 43 44 43 42 42 42 43 43 44 43 41 40 39 36 35 36 33 34 35 33 35 36 36 36 36 36 37 37 37 37
43 44 46 47 51 51 47 45 48 51 51 44 39 40 43 43 44 44 44 44 45 45 43 42 41 40 40 38 37 37 34 35 35 36 36 35 35 35 36 37 37 38 35 35
43 45 47 49 51 50 47 49 50 50 46 44 36 37 41 43 43 42 44 44 44 43 42 41 40 39 39 37 38 35 35 35 35 35 36 36 36 36 36 35 35 34 33 34
45 47 48 49 47 45 46 48 48 48 46 38 37 35 35 42 41 42 42 43 41 42 41 41 40 39 35 39 39 35 35 35 36 37 36 36 36 36 35 34 32 31 31 32
47 47 45 40 44 48 47 45 42 40 41 41 38 41 37 40 39 38 39 39 37 34 38 39 38 36 40 40 38 36 37 37 37 35 34 35 34 34 34 30 28 30 31 31
46 42 40 44 47 44 41 37 37 39 35 39 39 40 38 40 37 36 38 35 35 33 35 36 35 34 37 34 37 38 38 37 36 37 36 36 36 33 28 28 30 30 31 31
44 43 43 42 39 38 35 34 34 35 33 38 37 39 38 37 39 36 35 34 32 31 34 33 30 32 31 34 34 37 36 36 36 36 35 35 31 29 29 30 31 32 32 32
44 41 36 38 35 32 31 28 31 31 36 36 35 34 35 36 36 33 32 28 27 32 30 29 29 29 31 33 35 35 35 35 33 32 30 29 29 30 30 31 31 32 32 32
37 35 32 34 32 31 31 31 31 33 36 36 35 34 35 35 33 33 23 29 28 24 23 23 29 28 32 33 32 29 27 28 28 28 28 28 28 29 30 30 31 31 30 29
33 34 32 32 32 30 31 34 33 36 38 36 34 33 32 31 31 29 28 26 22 24 23 28 28 28 31 32 29 27 27 27 26 26 27 27 27 27 27 27 27 27 25 23
32 33 30 31 31 29 30 33 34 37 37 35 34 31 24 26 27 24 19 20 19 24 28 27 26 30 32 27 26 26 25 25 25 25 25 25 24 23 22 21 20 21 21 19
32 30 31 32 32 30 31 33 35 38 35 33 30 24 22 30 25 20 24 22 26 26 25 26 26 29 29 25 24 24 24 24 24 24 24 24 23 22 21 18 16 16 15 14

GFSNW_sfc_dewp_027.txt.gz
Dewpoint
48 48 50 49 50 51 54 48 41 51 51 40 40 36 36 38 38 40 39 39 38 36 34 32 30 32 33 34 36 34 37 36 30 33 39 39 38 35 35 29 32 33 25 23
47 47 49 49 50 50 50 45 45 51 49 35 36 38 36 38 37 39 38 38 38 36 33 33 29 29 33 37 36 36 38 33 31 33 38 41 38 38 37 38 38 32 25 23
47 47 48 49 49 50 50 45 39 45 46 44 38 37 36 37 39 39 39 39 39 38 35 35 32 27 34 37 36 41 39 37 33 33 36 37 35 39 41 38 34 33 28 28
47 47 47 49 49 52 49 45 41 41 37 39 39 39 38 37 35 39 40 37 39 36 34 33 30 32 33 36 38 40 41 35 38 38 36 37 37 38 38 38 38 32 28 29
46 46 47 48 49 54 48 42 42 42 39 39 39 39 38 38 38 38 37 37 37 38 35 32 24 32 34 35 36 35 39 36 37 37 37 36 36 37 38 38 37 36 35 33
45 46 47 49 49 52 47 46 46 43 41 38 38 38 38 37 39 39 40 39 39 38 37 37 35 36 36 36 36 32 35 36 37 31 35 35 32 36 37 37 36 36 34 34
45 47 46 48 49 52 48 46 44 41 38 40 39 39 39 39 40 39 40 41 40 40 41 41 39 39 38 42 39 38 36 35 37 33 28 24 29 30 36 38 37 37 36 34
44 47 46 48 48 53 48 45 46 43 38 39 39 40 38 42 42 40 40 42 43 41 38 38 37 38 37 36 35 39 36 37 35 29 28 29 29 27 28 30 30 33 36 34
44 46 46 47 48 51 49 47 49 46 41 39 39 36 41 38 39 40 42 41 44 42 40 38 33 33 36 35 36 39 39 40 36 28 26 25 27 29 29 30 28 33 32 34
43 45 45 47 48 51 51 48 49 47 41 43 43 36 38 44 43 40 41 41 42 45 40 37 32 33 37 32 34 36 36 38 36 32 31 31 32 30 31 25 26 35 34 35
43 45 45 47 48 50 52 48 50 48 44 44 44 42 39 41 43 40 41 41 43 42 39 37 35 34 36 36 34 34 35 35 35 33 33 28 32 29 26 31 35 37 37 37
43 44 45 47 48 49 52 47 49 50 46 45 48 45 44 42 44 45 42 42 41 43 40 40 38 35 37 37 34 36 34 36 37 36 34 36 35 34 36 37 36 37 37 37
42 43 45 47 48 49 52 48 49 48 45 45 45 44 45 45 45 48 43 43 45 42 44 41 39 34 36 34 34 33 37 38 35 36 34 33 34 35 36 37 37 37 37 37
43 43 44 46 47 49 51 48 49 49 46 41 42 45 44 45 45 46 46 48 47 45 46 44 41 38 37 37 34 34 35 34 33 31 34 33 34 35 37 37 37 37 37 36
43 43 44 46 47 48 52 50 50 51 47 42 42 44 44 44 44 44 45 48 46 45 44 42 41 42 40 38 35 33 32 32 32 32 33 32 33 36 36 36 36 37 37 37
42 43 43 46 47 48 50 45 50 50 51 44 39 45 43 43 43 43 42 46 46 45 45 44 44 42 39 34 33 34 33 33 34 32 34 35 36 36 36 36 37 37 37 37
42 43 44 46 47 49 46 44 48 51 51 44 38 39 43 43 44 44 43 43 44 45 43 42 41 39 39 38 37 37 34 35 36 36 36 35 35 35 36 37 37 37 36 36
42 42 44 47 48 50 47 49 50 51 47 45 35 37 40 43 43 41 44 42 42 42 42 41 40 38 39 36 38 34 35 35 35 36 36 36 36 36 36 35 35 34 34 34
43 44 45 47 48 45 46 49 48 48 46 39 37 35 35 42 41 42 42 42 39 40 39 40 40 38 35 37 38 35 35 35 36 36 36 36 35 35 34 33 33 33 33 32
43 45 43 41 45 48 48 46 43 40 41 41 38 41 37 40 39 38 39 39 37 34 38 38 37 37 39 39 38 36 36 36 36 35 33 34 34 34 32 31 31 32 32 32
45 42 40 45 48 44 42 37 37 38 35 39 39 39 37 40 37 36 36 34 34 33 34 35 34 35 37 34 35 36 37 36 36 36 36 36 35 32 29 30 31 31 31 31
44 43 44 44 40 37 35 34 34 35 35 37 38 39 40 39 40 37 36 34 32 30 34 33 30 32 31 33 33 35 36 36 36 36 36 35 30 29 30 30 31 31 32 31
44 41 36 38 35 32 30 30 31 32 36 36 36 35 35 36 37 33 30 26 27 30 28 28 29 29 31 32 34 35 35 36 36 35 32 30 30 30 31 31 32 32 31 30
36 32 31 32 30 32 31 31 30 31 33 35 36 35 34 34 33 31 21 29 28 23 22 22 25 27 31 31 30 30 30 30 29 30 30 30 30 30 31 31 31 31 30 29
32 32 31 31 29 30 31 32 34 33 37 35 34 32 30 32 31 29 27 25 22 23 22 25 24 26 28 29 27 28 28 28 28 28 28 29 29 29 28 28 28 26 24 22
32 32 30 31 30 28 30 32 33 36 36 33 32 30 21 26 25 23 16 18 18 23 26 23 24 30 28 27 27 27 27 26 26 27 27 27 26 25 23 22 22 21 19 17
31 28 30 30 28 26 31 33 35 38 34 30 27 20 19 24 17 16 20 20 24 31 22 23 24 27 26 25 25 25 25 25 25 25 24 22 21 19 18 16 15 15 15 15

GFSNW_sfc_dewp_030.txt.gz
Dewpoint
44 45 49 48 50 49 50 47 38 50 50 40 39 35 36 37 36 40 38 37 38 37 37 35 30 30 30 32 32 33 36 35 29 30 34 34 32 30 29 24 21 26 30 26
45 46 49 47 49 50 47 44 44 50 48 33 35 38 35 37 37 37 38 38 38 38 36 34 31 30 33 35 34 37 37 34 27 31 34 37 31 33 30 28 34 25 26 26
44 45 49 47 48 49 47 44 38 44 45 43 38 35 35 36 39 38 39 38 39 37 36 35 34 31 32 35 36 41 40 35 32 29 33 37 35 33 33 29 29 25 31 33
43 45 47 47 49 49 48 45 40 41 35 38 38 37 37 36 37 38 39 37 37 37 35 34 33 34 34 37 39 40 38 33 34 34 35 37 35 36 36 32 31 28 27 33
42 45 47 47 49 50 47 42 41 41 38 39 38 38 37 37 37 38 36 36 37 38 36 34 27 31 32 34 37 38 40 33 35 35 39 38 37 37 36 37 36 34 36 34
41 45 47 47 49 49 47 46 44 42 39 38 37 38 37 38 39 39 39 38 38 37 38 38 37 37 37 37 37 35 37 36 35 34 36 37 35 35 39 37 40 41 37 33
40 44 46 47 49 49 49 47 44 42 38 38 38 39 39 39 39 38 40 41 40 40 41 40 38 38 38 37 39 37 33 34 37 35 29 24 29 29 38 37 37 37 36 32
40 43 45 46 48 49 49 47 45 43 38 40 39 40 40 40 40 40 40 39 41 42 41 38 36 33 35 35 36 40 40 35 37 31 28 28 27 27 31 36 35 37 37 34
40 43 45 46 47 49 50 48 49 46 41 39 40 39 40 39 38 38 41 43 44 42 40 38 31 30 36 34 36 38 38 38 37 29 25 25 28 29 29 30 28 33 33 34
39 42 46 46 47 48 49 48 49 46 42 43 43 40 39 42 41 39 41 42 43 44 40 36 32 34 36 33 32 34 36 35 33 30 30 30 33 30 31 25 24 34 34 35
39 41 44 45 46 48 49 49 50 47 44 44 44 44 40 43 42 38 41 42 43 42 37 38 34 32 37 32 32 35 35 33 34 35 29 25 32 28 25 28 36 37 37 37
39 41 44 45 46 48 49 47 50 51 46 45 49 47 45 44 44 43 43 42 43 43 40 38 38 36 37 37 31 34 34 35 35 34 33 35 35 34 36 37 36 37 37 38
39 42 44 44 46 48 49 48 49 48 45 45 45 43 45 46 46 48 42 43 45 43 43 40 38 34 35 34 34 32 35 38 37 36 36 36 34 37 37 37 37 37 37 37
39 42 43 44 45 47 48 48 49 48 46 41 42 45 44 46 46 48 49 48 47 46 46 42 40 37 36 35 33 35 36 37 34 34 33 33 34 35 37 37 37 37 37 36
39 42 43 43 45 47 48 50 49 51 46 42 43 44 44 45 45 44 46 47 47 46 43 42 40 41 39 37 35 33 32 35 35 34 33 33 32 36 37 37 37 37 36 35
42 42 42 43 45 47 47 45 50 50 50 44 39 45 43 44 44 44 44 46 46 46 44 43 44 42 40 37 36 35 34 33 36 35 35 36 36 36 37 37 37 37 36 35
42 41 42 43 45 47 46 43 46 50 50 44 38 39 43 43 43 43 42 44 45 45 44 42 42 41 41 38 36 37 35 35 36 36 36 35 36 35 37 37 37 37 37 36
41 42 43 44 46 47 46 49 50 50 47 45 35 37 40 43 42 40 44 42 42 42 42 41 40 39 38 36 37 35 35 35 36 36 36 36 37 36 36 36 36 35 35 35
42 42 43 45 45 45 46 49 49 48 46 39 37 35 34 42 42 42 41 43 38 40 38 39 39 38 35 36 37 35 35 35 36 36 36 36 35 35 35 35 34 34 33 33
43 43 42 40 45 49 48 46 43 41 42 41 38 41 38 40 39 38 39 38 37 34 37 39 37 36 39 40 38 37 36 36 36 35 33 33 33 34 33 33 33 33 32 32
44 40 40 45 48 45 42 38 37 38 35 40 40 40 38 40 37 37 38 34 34 33 34 35 33 33 35 33 35 36 37 36 36 37 36 35 34 33 31 31 31 31 31 30
39 39 42 44 40 37 36 35 35 35 34 38 39 39 39 39 40 38 36 33 33 31 33 33 31 31 29 32 33 34 35 36 35 36 35 33 31 31 31 31 30 31 30 28
42 40 36 37 35 33 32 30 31 33 35 36 36 35 36 38 38 34 33 33 31 30 29 28 29 28 30 31 33 34 35 35 35 34 31 30 30 30 30 30 31 30 28 27
35 32 31 32 31 33 32 31 32 32 33 36 36 35 35 35 33 32 20 29 27 20 22 23 25 28 31 31 32 33 33 33 31 30 30 30 30 31 31 31 31 29 28 27
32 32 30 32 31 30 30 30 33 34 37 36 34 33 33 32 31 29 28 26 21 23 23 24 21 25 25 28 29 29 30 30 30 29 30 30 30 30 30 30 29 28 27 25
32 32 29 31 31 29 31 33 33 35 36 34 34 30 29 29 29 21 19 19 18 24 26 22 22 28 27 28 28 28 29 29 29 29 29 29 29 28 25 23 21 21 20 18
31 28 30 30 31 26 31 33 35 37 34 33 25 24 20 22 16 18 19 20 24 21 22 20 23 26 27 26 26 27 27 27 27 26 25 24 22 22 20 17 16 16 16 16

GFSNW_sfc_dewp_033.txt.gz
Dewpoint
40 43 46 48 48 50 49 44 36 50 50 36 38 35 35 36 38 39 38 37 34 34 34 33 30 29 29 32 33 32 32 34 28 28 34 34 32 31 30 23 20 23 27 22
40 43 45 48 48 49 46 39 42 50 45 32 33 37 36 37 37 37 36 35 36 37 36 35 33 31 32 33 32 33 36 33 26 28 33 36 34 35 34 28 26 21 17 16
39 42 44 47 48 49 46 40 34 43 42 42 36 36 35 35 38 38 38 37 38 38 36 36 34 34 33 34 33 39 39 35 31 26 30 34 32 33 34 30 24 24 23 21
39 42 44 46 48 49 47 41 37 39 33 36 36 35 35 33 36 38 39 38 38 37 35 34 33 34 34 35 38 39 38 32 34 34 34 35 35 32 31 29 26 24 24 27
40 40 44 46 48 48 45 40 41 42 37 39 38 36 35 34 35 38 37 37 36 37 36 33 31 33 33 31 39 38 40 33 34 32 34 35 35 35 31 31 27 29 33 30
39 39 45 47 47 48 44 45 46 42 40 38 37 37 37 36 38 39 38 38 38 37 37 37 38 37 37 37 36 37 37 35 34 31 36 36 33 36 32 33 32 29 33 33
39 39 43 45 47 48 47 46 45 41 37 37 36 39 37 38 39 39 40 40 39 39 42 41 41 40 39 38 36 39 36 36 35 33 33 28 33 39 38 36 37 38 38 38
38 39 42 44 47 48 47 48 45 40 38 38 38 38 39 39 40 40 40 41 41 42 42 39 34 32 33 35 37 38 38 37 36 33 28 29 28 38 38 36 35 39 39 40
38 39 42 44 46 47 47 48 49 44 38 39 41 39 40 39 39 39 41 44 45 43 40 37 30 28 30 32 34 38 39 40 36 32 26 24 28 29 30 33 33 37 39 37
39 39 41 44 46 47 47 49 49 46 40 43 42 39 40 42 40 38 40 41 43 43 38 35 32 30 36 31 29 33 36 36 34 31 29 30 33 32 31 25 24 34 34 36
40 39 40 45 45 47 48 47 50 47 42 43 44 44 41 42 42 37 40 41 43 41 37 37 32 31 35 31 31 33 33 31 32 33 29 23 33 28 25 28 36 37 36 36
40 39 41 44 44 46 48 47 50 50 45 44 48 47 46 45 45 43 43 41 42 42 38 37 37 33 34 34 30 33 32 34 33 34 32 35 35 34 36 36 36 36 37 38
39 39 40 43 44 46 47 47 49 48 45 44 45 44 47 48 48 49 41 43 44 44 43 40 39 34 35 32 34 32 35 37 36 35 35 35 35 37 37 37 37 37 38 37
40 41 42 43 43 45 47 46 49 48 45 40 41 47 44 47 48 48 48 47 48 47 45 42 39 35 36 34 34 34 36 37 35 34 34 34 34 35 37 37 37 36 36 36
41 42 42 42 43 44 46 47 49 50 46 41 42 46 44 46 46 46 48 46 46 46 44 41 39 41 38 36 35 33 34 36 35 35 35 34 33 36 37 37 37 36 35 34
40 42 42 42 43 45 45 45 49 49 50 43 38 46 43 44 44 43 44 45 46 46 45 43 43 42 41 37 37 37 35 34 38 36 35 36 36 37 37 37 36 36 35 34
40 41 42 42 43 45 43 43 46 50 50 44 38 40 43 43 43 43 42 45 45 45 44 43 42 41 41 38 35 37 35 34 35 36 36 35 36 36 37 37 37 36 35 33
39 41 42 43 43 45 44 48 50 50 46 45 36 37 40 43 42 42 43 42 43 43 43 41 41 40 39 36 37 38 35 36 36 36 36 36 37 37 36 36 35 34 33 33
41 43 43 44 44 43 46 50 49 48 45 39 37 34 34 42 42 42 42 42 38 40 39 40 40 38 35 36 36 35 35 35 36 36 36 36 36 36 35 35 34 33 33 32
43 42 42 39 44 49 49 46 44 41 42 42 38 40 38 40 40 38 39 38 37 34 37 37 36 35 38 39 39 37 36 36 36 35 33 34 34 34 34 34 34 33 33 31
40 40 38 42 49 45 43 38 37 38 35 40 38 40 38 40 37 36 37 34 34 31 32 35 31 32 34 33 35 36 36 36 36 36 35 35 35 34 33 32 32 32 32 30
39 38 41 41 41 38 35 34 35 35 33 38 39 38 38 38 40 38 36 33 33 29 33 33 30 31 30 31 33 34 36 36 35 35 35 34 33 33 32 31 31 30 29 26
42 39 33 35 35 32 32 30 32 33 33 36 36 35 37 38 38 35 34 33 32 30 29 27 27 27 29 30 33 33 34 35 34 32 32 31 31 31 31 30 29 28 25 24
34 32 30 31 31 33 32 32 33 32 33 36 36 35 35 35 34 33 30 30 27 22 20 20 24 27 29 31 32 33 33 32 31 31 31 31 30 30 30 29 28 26 25 24
32 32 29 32 31 30 31 32 32 34 35 35 34 33 33 32 31 29 27 26 22 24 23 23 22 23 24 29 30 31 30 30 30 30 30 30 30 30 29 29 28 26 24 21
32 32 29 31 31 31 31 32 33 35 35 34 35 31 30 30 30 22 20 20 21 25 23 21 18 27 26 27 29 30 30 30 30 30 30 29 29 27 26 25 24 23 20 17
31 27 28 29 30 30 31 33 35 37 35 33 31 28 29 23 22 17 19 22 26 18 25 19 21 23 26 27 28 28 29 29 29 28 26 26 25 24 23 19 17 17 16 16

GFSNW_sfc_dewp_036.txt.gz
Dewpoint
41 40 41 45 47 49 48 43 35 49 50 36 36 35 35 38 37 38 37 34 33 32 32 30 31 30 29 32 35 32 33 33 27 26 29 33 30 31 30 26 21 23 21 16
41 40 42 44 47 48 45 39 40 49 47 30 32 37 36 36 37 37 35 34 35 35 33 33 34 32 33 33 34 33 33 32 23 22 33 33 33 34 34 31 31 22 17 16
41 40 41 43 46 48 46 39 35 41 41 40 36 35 34 35 38 37 37 35 36 36 36 37 34 34 35 34 33 37 36 34 28 24 26 31 31 33 33 32 27 24 22 19
40 39 41 44 46 48 46 40 35 37 32 34 37 36 34 34 34 37 38 37 35 33 34 34 35 36 34 35 36 36 37 32 34 33 33 33 34 34 33 31 30 25 22 22
41 39 41 44 46 48 45 39 39 41 34 38 37 36 34 32 36 35 35 35 33 34 35 36 32 32 33 32 37 37 38 33 35 32 34 35 33 35 35 33 33 29 26 24
42 39 42 43 46 48 43 45 45 39 37 38 36 36 35 35 35 38 36 36 36 36 37 39 39 38 37 37 36 37 37 35 33 29 35 35 33 34 35 34 32 30 27 27
42 39 39 42 45 47 45 45 43 39 37 36 37 37 36 37 37 35 39 39 38 39 42 43 40 39 40 39 38 38 36 36 35 31 35 27 33 39 38 35 33 32 30 31
42 40 39 42 44 48 45 46 45 42 38 37 36 38 37 38 39 39 38 41 41 45 43 39 36 34 33 35 38 37 36 37 35 33 31 32 29 37 36 34 34 37 35 34
41 41 40 41 45 47 46 46 48 46 39 37 38 37 40 39 39 39 41 45 45 45 40 37 31 26 28 30 31 38 38 38 37 34 30 26 29 30 39 38 34 40 39 38
41 41 39 41 44 46 46 46 50 46 39 42 41 39 39 41 40 38 39 41 42 44 38 35 32 28 33 32 28 35 36 37 34 34 31 31 32 33 37 28 25 36 40 40
41 40 39 40 44 45 46 45 48 47 41 41 43 42 41 42 41 37 39 39 41 39 36 36 34 29 33 30 31 32 32 33 31 32 31 24 34 31 28 29 34 36 36 36
40 39 41 40 44 45 45 45 50 51 44 44 48 47 45 43 43 42 42 40 41 42 38 37 37 31 31 31 28 32 31 34 32 33 32 34 35 34 36 36 36 36 36 36
38 41 42 43 42 43 44 45 47 47 44 43 44 42 46 49 48 49 42 43 44 44 44 41 38 35 34 31 31 30 34 37 35 35 34 35 35 36 37 37 37 38 37 35
38 41 42 43 43 43 44 44 47 47 43 39 39 47 45 47 49 49 48 47 47 46 46 43 40 35 36 33 34 34 35 37 35 35 36 35 35 35 37 37 37 36 35 33
39 40 40 41 43 43 45 45 47 50 45 41 42 46 46 47 48 48 48 46 44 44 43 42 40 41 37 36 35 33 36 36 35 33 36 34 33 37 37 36 36 35 34 32
39 39 39 40 42 43 44 45 49 50 49 43 38 46 44 45 46 45 45 45 45 45 44 43 43 41 40 36 36 38 35 35 37 37 35 36 37 37 37 36 36 35 33 32
39 40 41 40 42 43 40 42 46 47 49 44 38 40 43 43 44 44 44 45 44 45 44 43 42 41 41 39 34 36 36 35 35 36 36 35 36 36 37 36 35 34 32 31
40 41 41 42 43 43 43 46 48 48 46 45 36 37 40 43 42 41 44 43 44 43 43 42 41 40 39 37 38 38 36 36 36 36 37 36 37 37 36 35 34 32 31 30
41 43 43 43 43 42 46 50 49 48 45 39 37 34 34 42 42 42 42 43 39 41 39 40 40 38 36 38 37 36 35 35 35 36 37 37 36 36 35 34 33 31 31 30
42 43 42 39 44 49 49 47 44 41 42 42 39 39 37 39 40 38 39 39 38 34 38 38 37 37 37 38 38 37 36 36 36 35 34 35 35 35 34 33 32 32 31 29
40 36 36 40 43 46 43 38 37 39 36 39 37 38 38 40 37 36 38 34 34 32 31 35 33 32 33 33 34 37 36 36 36 36 36 36 36 34 33 33 32 31 30 28
39 39 41 41 40 38 35 34 35 35 34 38 39 38 38 38 40 38 36 34 33 28 31 33 29 31 30 32 33 34 35 36 35 35 35 35 34 34 33 32 31 29 26 25
40 38 33 34 34 31 32 29 32 33 34 35 36 35 38 38 38 35 34 33 32 30 29 28 27 28 30 30 33 33 34 35 33 33 33 33 32 32 32 30 28 26 24 23
34 32 29 31 31 32 32 31 31 31 33 35 37 35 35 36 35 33 33 31 29 23 24 21 24 25 29 30 32 33 32 32 31 31 32 31 31 29 28 27 26 24 22 21
33 32 28 31 32 32 31 32 33 34 37 35 34 34 33 33 32 30 28 27 25 25 24 24 22 21 24 29 30 31 30 30 30 31 30 30 29 28 26 26 24 23 21 19
32 32 30 31 30 30 31 32 33 35 37 35 35 32 31 31 27 25 21 20 22 27 24 21 16 26 27 28 29 29 30 30 30 30 30 29 28 27 25 24 22 20 19 17
31 28 29 29 29 30 31 32 34 37 35 33 32 29 30 24 18 19 23 23 27 21 23 22 20 22 26 27 28 29 30 29 29 29 28 26 25 24 22 19 17 17 16 16

GFSNW_sfc_dewp_039.txt.gz
Dewpoint
43 42 42 42 44 48 46 42 34 48 50 34 33 34 34 39 37 37 36 34 32 30 31 30 30 29 30 32 34 32 33 32 25 25 30 32 30 29 29 26 25 27 24 19
43 42 40 42 44 47 45 37 38 49 44 30 32 37 36 38 37 35 34 34 35 35 33 31 31 32 33 34 33 32 33 32 25 21 29 32 33 32 30 32 31 26 22 18
42 42 41 41 44 47 46 39 33 38 40 38 33 35 35 35 38 37 36 36 35 35 34 35 32 33 35 34 34 36 35 33 25 21 22 28 31 33 33 32 27 24 26 22
42 42 40 41 44 47 46 39 35 38 32 35 35 36 34 35 34 37 37 35 34 33 32 32 33 33 34 35 36 35 36 32 32 30 31 32 33 33 33 31 30 27 23 25
42 42 40 41 45 47 44 38 36 40 35 37 37 37 34 33 35 36 35 33 35 34 33 32 33 33 33 32 36 34 38 33 35 32 33 33 33 35 35 35 32 32 30 28
42 42 41 40 44 46 42 43 44 40 37 37 37 36 34 34 36 36 35 36 35 34 35 36 37 38 38 37 36 36 36 35 33 28 32 33 33 36 35 35 34 32 30 31
42 42 41 40 43 46 45 44 43 38 35 37 36 36 36 35 35 36 38 37 36 39 42 41 42 40 39 39 37 38 35 34 35 30 33 26 32 39 39 37 36 35 33 31
41 42 42 40 42 45 45 45 43 40 37 37 37 37 35 37 38 38 37 40 40 44 42 38 35 34 36 36 37 37 38 35 34 32 31 31 30 31 37 36 34 37 34 33
42 42 41 40 41 44 45 44 46 44 40 37 38 37 37 36 37 37 39 43 46 45 40 37 32 23 28 28 33 37 38 36 34 33 30 27 30 33 38 38 34 38 36 36
41 41 40 42 41 44 45 44 48 46 41 39 39 36 37 41 40 38 40 41 43 44 38 35 32 27 31 29 28 35 35 34 31 32 32 30 34 33 39 28 31 35 39 39
41 39 41 43 44 44 44 43 47 46 41 39 42 42 39 40 40 38 40 39 40 40 35 35 34 30 31 30 29 31 33 34 33 33 31 26 34 31 29 30 35 36 37 40
39 39 40 42 43 44 44 42 45 47 45 41 46 45 45 42 42 41 42 40 40 41 38 36 36 31 32 31 28 32 30 32 31 31 31 34 36 35 35 37 36 36 37 37
38 38 38 40 40 43 44 44 45 47 44 43 43 41 46 48 47 47 41 43 43 43 45 40 39 36 33 30 31 30 33 36 35 35 35 36 36 35 37 37 37 37 37 35
39 41 40 39 40 42 44 43 45 44 44 37 38 47 44 47 49 49 48 46 47 46 45 43 40 36 37 33 33 33 34 36 35 35 36 36 36 36 36 36 36 34 32 31
39 39 39 40 40 41 43 44 45 46 46 41 41 45 46 47 48 48 49 47 45 43 42 42 39 41 36 34 34 32 36 35 35 34 36 35 34 37 37 36 35 33 31 29
38 40 40 41 41 41 43 42 49 50 50 42 38 46 45 45 47 46 46 46 45 44 44 43 43 40 39 37 34 37 36 36 37 37 35 36 37 37 37 36 34 32 30 28
39 40 41 42 40 42 39 40 45 46 45 43 38 39 44 45 45 45 44 45 44 44 44 43 43 41 41 37 34 36 37 36 35 36 36 36 37 36 36 35 34 32 29 27
40 41 43 43 43 42 41 45 46 46 46 44 36 37 39 43 42 41 44 42 44 44 43 42 41 41 40 37 38 38 36 36 36 36 37 37 37 36 35 33 32 31 29 27
40 43 42 42 41 41 45 50 48 49 45 39 37 34 34 42 42 42 42 43 40 41 40 40 40 39 36 37 37 37 37 35 35 36 37 37 36 35 35 34 33 30 29 27
42 43 41 39 43 44 48 47 44 41 42 42 38 40 37 39 40 39 39 39 37 34 38 38 37 37 38 37 38 37 36 36 36 35 35 36 35 35 34 33 33 30 28 26
38 36 35 40 42 45 43 38 37 38 35 39 37 37 36 40 37 37 37 34 34 32 32 34 33 32 34 33 34 36 36 36 35 36 36 37 36 34 32 31 31 29 27 24
38 39 41 40 39 38 35 34 35 35 34 37 38 38 38 38 40 36 37 34 33 29 31 32 29 31 30 31 32 33 35 36 35 35 36 35 34 33 32 31 29 27 25 23
40 37 33 35 34 31 32 30 32 33 35 35 36 35 38 38 38 35 35 33 31 30 30 28 29 29 30 31 33 33 34 34 34 34 34 33 33 32 30 28 26 25 23 22
34 32 27 30 31 32 32 28 25 30 33 35 37 35 35 36 34 34 33 31 30 27 25 21 24 25 29 30 32 33 32 32 32 32 32 32 31 29 27 26 25 23 21 19
33 32 25 29 32 32 32 31 32 33 36 36 34 34 34 33 33 30 30 28 26 25 23 24 21 20 23 29 30 30 30 31 31 31 30 29 28 27 25 25 24 22 20 17
33 32 26 31 30 30 31 32 33 34 37 35 35 33 31 31 31 28 26 21 22 25 23 21 15 27 27 28 29 29 30 30 30 30 29 28 27 25 23 22 21 19 18 16
31 29 29 29 26 28 31 31 33 37 35 33 33 31 28 26 25 24 23 23 28 26 21 26 23 22 26 26 28 29 29 29 30 29 28 26 24 22 20 18 17 17 16 16

GFSNW_sfc_dewp_042.txt.gz
Dewpoint
44 43 43 41 43 45 46 41 34 44 48 36 34 35 36 36 34 36 34 32 31 29 30 29 29 29 29 32 34 32 32 31 27 28 28 28 27 27 27 27 26 28 26 22
43 43 43 41 43 45 44 38 37 47 46 33 34 37 37 37 35 34 33 33 33 33 30 30 29 30 32 34 32 31 32 31 27 28 31 29 31 30 29 33 31 28 24 22
42 42 43 41 43 45 46 39 33 39 41 40 35 36 36 36 38 36 36 34 34 32 31 33 32 32 34 34 32 36 35 32 31 26 23 28 32 33 34 32 29 26 27 25
42 42 43 41 43 47 46 37 34 38 35 36 35 35 34 34 33 36 36 34 32 32 31 31 32 33 33 35 35 35 33 33 31 31 30 30 32 32 34 32 31 29 26 25
42 42 43 41 43 47 43 36 35 39 35 36 34 36 33 32 35 34 34 32 33 32 30 30 31 31 32 32 34 34 36 32 33 32 30 31 34 35 37 37 37 34 33 31
42 42 42 41 42 45 42 43 43 39 36 35 35 34 33 33 34 35 35 34 34 33 33 34 33 36 36 37 35 34 34 33 33 29 30 31 33 36 37 37 35 34 32 31
42 42 43 41 41 44 45 43 42 37 35 36 35 35 34 34 33 35 36 36 34 37 40 39 38 38 38 38 36 37 34 34 35 31 31 26 31 38 39 38 38 36 34 33
42 42 41 41 42 43 45 45 42 40 36 36 36 35 35 35 36 35 37 38 37 42 41 38 35 35 36 35 37 36 36 33 33 30 29 28 30 32 34 37 35 38 37 36
42 41 40 43 43 45 45 44 46 43 38 37 35 35 36 36 36 37 38 44 44 43 40 37 33 29 28 27 34 36 36 36 34 32 27 25 31 34 37 38 36 35 38 37
41 40 40 42 43 45 45 44 46 44 40 41 39 37 37 38 38 38 40 42 43 44 38 34 32 28 29 27 28 34 34 35 31 30 30 30 32 33 39 31 35 37 39 40
39 39 39 40 40 43 44 43 46 44 43 43 44 42 40 41 40 37 40 39 40 40 35 36 35 32 29 31 32 32 33 32 31 32 32 29 35 34 32 32 37 38 39 40
37 38 39 40 40 41 43 42 45 46 43 44 47 46 46 42 42 42 42 40 39 41 37 37 37 32 33 31 27 34 30 33 31 31 31 34 36 37 37 37 37 37 37 39
38 39 40 39 40 40 41 43 44 45 45 45 44 42 45 48 46 45 41 42 43 42 45 41 38 35 35 33 32 33 35 36 34 36 35 37 37 37 37 37 37 36 37 38
38 38 39 39 39 41 41 42 44 43 43 40 39 47 45 47 49 48 48 47 47 46 45 41 41 37 39 36 34 34 35 37 36 36 36 37 36 37 37 36 36 33 32 33
38 39 40 40 40 40 42 44 44 45 44 40 42 45 46 47 48 48 49 47 45 44 41 40 39 43 38 38 36 35 37 36 34 32 36 36 35 37 37 36 34 32 31 30
38 38 40 41 41 39 41 43 48 48 46 43 38 46 45 46 47 47 47 46 45 45 42 42 43 42 41 39 37 38 37 38 38 37 36 36 37 37 36 34 32 30 29 29
38 40 41 42 42 41 39 40 45 45 44 44 39 39 45 46 45 45 45 46 45 44 43 43 43 43 42 39 33 36 38 38 37 37 37 36 37 36 35 34 32 31 27 26
39 41 44 44 40 41 40 45 46 45 44 45 37 38 40 45 42 41 44 43 43 43 43 43 42 42 41 38 39 38 38 37 36 36 37 37 36 35 34 31 30 28 26 25
40 43 42 43 41 40 44 46 48 48 46 40 39 37 35 43 42 43 43 43 40 43 40 41 40 40 37 40 40 39 39 38 37 38 38 37 36 35 35 33 31 30 27 25
41 42 41 40 43 43 45 47 44 42 43 44 39 41 37 41 41 40 40 40 38 35 39 39 38 38 40 39 38 39 38 37 37 37 37 37 37 36 35 34 32 28 26 24
39 37 36 41 42 44 43 38 38 39 37 40 38 39 38 41 38 38 38 36 36 34 34 34 35 34 36 34 35 37 37 37 37 37 39 38 37 36 35 34 31 28 25 23
38 39 41 40 39 38 36 34 35 35 35 38 38 39 40 40 41 39 38 36 35 31 32 33 30 34 33 32 35 36 36 36 36 36 37 37 36 34 33 31 28 26 23 21
41 38 34 36 35 32 32 31 33 34 37 37 37 38 39 39 39 37 36 33 33 32 32 29 33 33 31 32 35 35 36 35 35 35 36 35 34 32 31 29 26 23 21 21
35 32 28 31 32 33 32 32 32 34 35 36 38 36 37 37 36 35 33 33 31 31 28 30 30 28 29 32 34 35 34 34 34 34 34 33 32 30 28 27 24 22 21 20
33 33 27 30 33 34 34 33 34 36 37 37 36 36 35 35 34 32 32 31 29 28 30 32 31 27 28 31 33 34 33 33 33 33 32 30 29 27 26 25 24 22 21 19
33 32 30 31 31 33 33 34 34 37 37 35 35 34 34 35 34 31 32 28 28 33 34 32 27 28 30 31 32 32 32 32 31 31 30 28 27 26 24 23 21 20 19 17
32 31 30 30 30 30 31 33 33 35 35 33 33 32 33 32 31 30 30 29 35 33 30 29 28 29 30 30 30 31 31 31 30 29 28 26 24 23 22 20 19 18 17 16

GFSNW_sfc_dewp_045.txt.gz
Dewpoint
44 44 43 44 43 45 45 42 35 46 46 36 36 34 36 38 33 35 32 30 28 27 28 28 28 28 29 31 31 30 31 31 29 29 28 28 27 27 27 27 24 27 26 22
44 43 43 44 43 45 45 39 37 46 46 34 35 36 38 38 33 33 32 32 30 29 28 28 28 29 31 32 31 30 31 31 27 29 29 28 28 28 27 30 32 29 25 23
43 43 43 43 43 46 46 38 34 39 41 40 36 36 36 36 38 35 34 33 32 30 30 31 30 30 33 34 31 37 34 31 31 27 27 28 32 31 32 33 29 26 27 25
43 42 43 43 43 47 46 37 35 38 35 36 38 35 37 33 32 35 34 33 31 30 29 30 30 30 34 35 35 33 33 32 31 30 29 29 30 31 32 33 33 29 28 28
43 42 43 42 42 46 43 37 36 38 35 34 36 34 37 34 34 33 31 31 31 29 29 28 29 31 31 32 34 33 35 31 31 31 30 30 32 31 31 34 37 36 36 34
43 43 42 42 43 46 42 43 42 40 36 33 32 31 30 31 34 34 33 32 32 31 32 32 33 33 34 36 34 34 35 34 33 28 29 28 32 34 36 38 38 37 33 32
42 43 41 43 44 45 45 43 42 38 35 35 31 31 32 32 33 33 34 33 32 37 38 37 37 36 37 37 36 37 34 34 33 28 28 25 27 35 36 36 38 38 37 36
42 42 40 43 44 45 45 44 42 39 35 36 34 33 32 33 35 36 35 35 37 40 40 36 32 33 35 34 37 36 37 37 31 28 25 25 26 32 32 36 37 37 38 38
42 41 40 41 42 42 44 45 46 43 37 36 33 33 34 33 33 36 37 41 41 41 39 36 31 28 27 27 32 36 35 37 34 30 26 22 29 33 36 39 36 37 39 40
39 39 39 40 40 41 43 44 46 43 38 41 38 35 34 36 35 36 37 41 42 41 38 34 33 29 27 25 27 32 33 34 30 28 28 26 29 34 40 30 35 38 40 40
38 38 39 41 40 41 42 43 46 42 40 42 42 40 38 36 38 35 40 39 40 40 36 35 35 32 29 27 28 32 32 31 30 34 31 26 34 35 34 35 39 38 42 40
39 39 39 40 40 40 41 42 45 46 41 43 47 46 46 43 42 42 41 39 39 40 38 37 37 32 31 28 24 31 29 32 35 31 29 32 36 36 37 38 37 37 38 43
39 39 38 39 40 40 41 42 44 43 45 46 45 42 46 47 45 45 41 43 41 41 43 41 39 37 35 29 29 30 33 34 33 33 34 35 36 37 37 37 37 37 37 38
39 39 38 41 41 40 40 42 44 42 41 41 40 46 44 47 48 47 47 45 46 46 46 42 39 36 38 32 35 34 34 36 34 34 35 36 36 37 37 36 35 34 34 36
39 39 38 39 41 41 40 41 44 44 42 40 41 44 46 47 47 48 48 47 45 44 42 39 37 41 40 39 37 35 36 34 34 31 36 36 36 37 37 35 34 33 33 34
39 38 39 41 42 42 39 43 46 47 46 42 39 46 45 46 47 47 47 47 46 44 42 39 42 42 40 38 35 35 35 37 37 36 37 37 37 37 36 33 32 31 31 31
38 39 41 42 43 43 38 40 43 46 44 43 39 40 45 46 46 46 45 46 44 44 42 41 41 43 42 37 33 33 36 38 38 38 37 37 37 36 34 33 31 31 29 28
39 40 43 44 43 40 39 44 46 45 43 45 39 39 40 45 42 41 45 42 43 43 42 44 42 42 42 37 38 37 38 38 37 37 37 37 37 35 33 30 29 28 26 26
39 42 42 41 40 39 43 45 47 47 46 41 39 37 36 44 42 44 43 43 38 43 40 41 41 40 37 39 39 39 40 39 38 38 38 37 36 35 33 32 31 28 27 26
40 42 42 40 43 43 44 46 44 43 44 44 40 41 37 41 42 41 40 40 39 34 39 40 38 37 40 40 40 39 39 39 38 38 38 38 37 35 34 33 31 29 27 26
39 37 36 41 43 44 43 40 38 40 37 41 40 39 37 42 38 39 39 36 36 34 35 35 36 34 36 35 36 38 39 39 38 38 39 38 37 36 34 34 32 27 25 22
37 38 41 40 40 39 36 36 37 36 35 39 38 39 40 41 42 39 39 36 36 32 34 33 31 34 34 33 34 37 37 37 37 36 38 40 38 37 36 32 28 26 23 21
41 38 34 36 36 33 32 31 33 34 38 38 37 38 39 40 40 37 37 33 33 33 33 30 33 36 31 33 35 36 36 36 36 36 37 37 37 36 34 30 27 23 21 20
36 33 30 32 32 34 33 33 34 36 36 37 38 38 37 39 38 37 34 34 32 32 29 31 32 30 29 32 34 35 35 35 35 35 35 35 34 33 31 28 24 22 20 20
34 33 29 31 34 35 34 35 35 37 38 37 37 37 36 37 35 35 34 32 31 31 32 37 34 30 31 32 34 35 35 34 34 34 34 33 31 29 26 25 23 22 21 21
34 33 31 32 32 34 35 35 35 38 37 37 36 35 35 35 36 32 33 30 30 36 38 35 31 30 31 32 33 33 33 33 33 33 32 31 29 27 25 24 22 21 20 18
33 32 31 32 33 33 33 32 33 36 35 35 34 32 34 34 34 32 34 32 34 32 32 32 31 30 30 30 32 32 32 32 32 31 30 29 27 24 23 21 21 20 19 18

GFSNW_sfc_dewp_048.txt.gz
Dewpoint
44 44 43 44 43 47 46 40 34 46 47 35 36 34 34 39 38 36 31 30 28 28 28 28 26 28 29 31 31 29 30 32 29 29 29 31 30 28 28 21 18 24 22 22
44 43 43 44 43 46 45 38 38 46 45 30 31 36 37 38 38 34 32 30 29 28 28 28 29 29 31 33 31 31 32 31 24 26 28 29 28 29 28 29 29 24 23 21
43 43 44 43 43 46 45 39 34 39 41 40 34 34 35 36 38 35 34 31 29 29 29 30 29 30 33 34 33 38 34 32 27 23 28 31 28 29 29 31 28 25 26 25
43 43 43 43 46 47 45 39 35 38 34 36 36 37 37 34 32 35 35 33 30 29 28 28 28 32 33 35 37 32 33 29 30 31 30 28 29 30 31 32 30 28 26 28
43 43 42 43 47 48 44 37 35 37 37 38 36 37 36 34 33 34 31 32 31 31 29 29 28 30 31 32 34 33 34 30 32 27 29 29 29 30 30 31 32 36 36 36
43 43 42 43 46 46 42 43 42 39 37 36 35 35 35 34 35 35 33 32 32 32 33 33 33 35 32 34 33 32 35 33 31 27 29 28 28 31 32 37 38 38 35 36
43 42 41 42 44 44 45 44 42 37 33 36 32 31 33 34 36 33 34 34 33 38 38 37 36 35 36 36 36 34 33 33 33 27 27 24 27 36 37 35 38 39 39 38
39 40 40 40 41 42 42 45 42 39 35 35 34 32 33 36 37 35 35 37 39 40 39 35 33 34 34 34 35 35 36 37 34 27 24 25 29 33 33 34 37 39 38 40
39 38 39 40 42 41 40 45 46 42 37 35 36 34 35 35 35 36 39 41 42 41 39 35 29 27 27 31 32 36 36 38 34 30 25 22 27 33 36 39 35 39 41 40
39 39 39 40 42 41 41 43 46 43 38 39 40 36 35 38 37 37 40 41 41 41 37 34 30 28 28 26 30 32 34 35 32 30 28 27 27 37 40 34 34 39 41 41
39 40 39 39 40 41 40 42 45 43 39 40 42 42 40 36 38 37 41 39 39 39 36 34 34 31 29 28 31 31 29 30 29 30 29 24 34 35 34 36 40 41 42 41
39 39 39 40 40 40 39 41 44 45 41 41 46 47 47 45 44 43 42 40 38 41 37 38 38 32 31 31 26 33 31 31 30 31 29 31 36 36 38 38 37 38 38 42
39 39 39 39 41 42 40 40 43 43 42 45 46 44 46 47 46 47 41 42 41 41 43 40 39 34 35 31 30 32 32 33 33 34 34 34 37 37 38 37 36 36 37 41
39 39 39 38 39 41 41 40 43 42 40 40 42 46 44 47 48 47 47 45 46 45 45 41 39 36 39 34 35 35 35 35 34 34 34 36 37 37 37 36 35 34 34 38
40 39 38 38 40 42 42 41 42 43 41 39 41 44 46 47 47 47 47 45 44 44 42 40 37 40 39 40 38 36 36 35 34 33 36 36 36 37 36 35 33 34 34 37
40 39 38 40 42 42 41 40 45 46 44 41 38 45 44 45 46 46 47 46 46 44 42 39 41 41 41 38 35 35 36 37 37 37 37 37 37 36 34 32 32 32 33 34
39 39 40 42 43 43 37 39 43 45 44 42 38 39 45 46 46 46 45 46 44 44 42 40 40 41 42 38 33 34 35 37 40 38 38 37 37 35 32 31 31 31 30 30
39 40 42 44 44 42 39 43 45 44 42 44 37 37 40 45 42 41 45 42 43 42 41 42 41 42 42 37 38 38 39 40 39 38 38 37 36 33 32 31 29 28 26 26
39 40 43 41 39 38 43 45 47 47 44 40 38 35 34 44 42 43 42 42 37 41 39 40 41 39 36 38 38 39 39 39 38 38 37 36 35 33 32 31 31 27 26 25
41 43 42 39 43 44 44 44 42 42 44 43 38 41 37 42 41 40 41 41 38 33 38 40 38 37 39 39 39 39 39 39 39 37 34 34 33 33 32 30 29 27 26 25
38 36 36 41 43 43 43 39 38 39 36 40 40 39 38 42 38 39 40 36 35 32 34 35 35 35 36 33 34 37 37 38 39 39 38 38 37 34 33 31 29 28 25 21
38 38 40 41 40 38 35 34 36 35 34 39 38 39 40 41 42 38 38 34 34 31 34 33 31 34 34 33 33 36 36 37 38 37 38 40 38 37 35 33 30 25 22 20
42 38 34 36 36 32 32 31 32 33 36 36 36 36 39 40 40 37 36 33 32 35 33 31 32 32 29 31 34 35 36 36 36 36 38 41 39 36 33 30 29 22 20 20
35 33 30 30 32 33 33 33 33 35 35 36 37 36 37 38 36 37 33 34 32 30 29 30 31 29 29 31 34 35 37 35 35 36 36 37 36 34 30 26 22 21 20 19
33 33 28 31 33 34 33 34 34 36 37 37 37 35 35 35 34 34 32 31 30 31 29 33 30 30 31 32 33 33 34 34 34 34 34 33 31 29 26 24 22 21 20 20
33 32 31 32 32 32 33 33 33 37 37 36 35 34 33 32 34 32 31 29 28 32 31 30 30 30 30 30 31 32 32 33 33 33 32 31 29 26 24 23 21 21 20 19
32 29 31 30 31 33 33 33 34 37 35 33 33 32 31 32 31 31 32 31 30 25 28 28 28 29 29 29 30 32 32 32 32 31 30 29 26 24 22 22 21 20 19 18

GFSNW_sfc_dewp_051.txt.gz
Dewpoint
44 44 44 43 45 47 46 40 33 44 47 32 34 33 34 36 37 40 37 33 29 28 31 29 28 29 30 31 32 30 32 32 27 27 30 31 31 29 27 17 14 19 23 22
44 43 44 44 46 47 45 38 38 44 42 27 29 36 35 36 38 37 34 31 30 30 29 28 29 30 31 32 31 30 32 30 24 28 29 31 30 31 29 27 26 17 18 20
44 44 43 45 46 47 42 38 32 38 39 39 36 34 34 35 39 38 35 31 30 30 30 32 31 30 34 35 35 40 35 31 22 21 25 30 26 28 29 30 24 23 23 23
44 43 42 44 46 48 44 39 35 37 34 35 37 37 37 35 34 36 35 30 31 30 29 30 31 32 33 35 36 34 33 25 28 30 30 31 29 29 29 25 27 27 24 25
43 43 42 43 46 46 40 37 35 38 36 38 36 37 36 36 34 35 32 30 32 31 31 30 30 32 32 32 33 31 34 26 30 26 29 30 29 29 30 30 29 29 28 30
40 41 41 41 43 44 41 42 42 39 37 37 36 36 36 36 35 34 33 33 35 35 35 34 34 33 33 34 33 32 33 30 28 23 28 28 25 29 30 30 33 32 33 36
39 39 40 41 43 42 43 43 42 37 32 36 34 34 36 36 37 34 35 37 36 37 37 37 36 36 36 35 33 35 34 30 30 24 27 22 27 32 34 33 36 39 39 39
40 39 39 40 43 42 40 43 42 38 34 36 35 34 36 38 36 36 38 39 39 40 39 35 34 33 33 34 36 36 35 33 32 26 26 25 29 34 33 33 35 40 39 38
39 40 40 39 40 42 40 43 46 42 37 32 38 36 35 36 34 36 39 42 42 41 38 34 27 26 27 31 33 35 36 36 33 29 22 21 30 34 37 39 35 40 40 41
39 39 40 40 40 40 40 42 45 42 38 38 38 35 35 39 36 36 39 40 39 40 36 32 27 27 29 29 29 32 33 34 31 26 26 27 29 35 40 31 31 38 41 43
39 39 39 40 38 40 39 40 45 41 38 38 40 42 40 39 37 35 39 36 38 38 32 33 33 30 30 28 31 31 29 28 29 30 28 21 31 38 34 35 38 40 41 41
39 39 38 39 39 41 42 39 43 44 39 39 43 44 46 45 43 41 41 39 38 40 37 36 37 31 31 31 26 32 29 30 30 29 27 29 33 35 38 37 37 37 39 41
39 39 38 38 38 39 40 40 42 43 40 42 43 43 46 47 46 47 41 42 41 40 43 39 37 35 35 31 30 31 33 32 32 33 34 33 34 37 37 37 36 35 37 41
39 39 39 38 38 39 40 40 42 41 38 37 42 46 44 47 47 47 46 43 44 43 43 39 39 37 38 35 34 34 35 34 33 33 35 36 36 37 37 35 34 34 34 39
40 39 39 38 39 41 41 41 42 42 39 38 39 42 45 46 46 45 44 43 42 40 41 40 38 40 38 37 37 34 36 35 34 34 36 36 36 37 36 34 33 34 36 38
40 39 38 39 42 42 41 37 45 44 44 40 37 45 42 43 44 45 45 45 45 44 42 40 41 41 40 37 36 35 36 36 37 36 37 37 37 34 34 32 32 33 35 37
40 39 39 41 42 42 37 38 42 45 43 40 38 39 43 44 43 45 45 46 44 44 42 40 40 40 41 38 33 34 35 36 37 38 38 37 36 34 31 31 32 32 30 31
39 40 41 43 43 43 38 41 43 43 41 42 36 36 37 44 42 40 45 42 43 42 41 41 40 40 39 35 37 38 38 39 39 38 38 37 34 32 31 30 29 28 27 26
40 42 42 42 37 37 41 45 46 46 43 39 38 33 32 44 42 43 42 42 37 41 38 39 41 37 36 38 38 40 39 39 38 37 36 35 33 32 31 29 28 26 26 26
43 43 41 38 41 44 44 44 42 41 42 42 39 40 35 40 41 40 40 41 37 33 37 40 38 37 39 34 34 36 37 39 39 38 36 33 31 31 31 30 28 26 25 24
36 35 35 40 43 43 41 38 37 39 36 40 40 39 37 41 37 38 40 35 34 32 34 35 34 35 34 32 33 35 36 37 37 39 39 38 36 33 31 30 28 26 24 21
38 38 40 40 39 38 35 34 35 35 34 39 38 38 39 40 42 38 38 33 33 31 36 33 31 33 30 30 32 34 36 36 36 37 38 38 36 33 32 30 28 25 21 21
41 38 34 36 35 32 32 30 32 33 36 35 35 36 39 40 40 37 35 32 32 36 32 31 32 30 30 31 32 34 36 36 36 36 40 39 37 36 34 33 29 22 19 19
35 32 26 30 31 32 33 32 33 35 35 35 37 36 37 38 36 37 33 35 32 29 28 30 31 30 30 31 32 33 34 37 35 35 38 40 36 33 32 31 27 22 19 20
31 32 26 30 33 33 33 33 34 35 36 36 36 34 34 33 33 34 32 30 28 30 29 31 30 30 30 30 30 31 33 34 34 35 34 34 32 28 25 23 22 21 20 19
32 32 30 31 30 32 32 32 33 35 36 36 35 33 32 31 33 31 30 28 27 30 28 29 29 29 29 29 29 31 32 32 32 32 32 30 28 26 23 22 22 21 20 19
31 27 31 31 31 32 33 33 34 36 34 32 33 32 31 32 31 30 31 30 28 28 27 25 26 27 28 28 30 30 31 31 31 30 30 29 26 23 22 23 24 24 21 19

GFSNW_sfc_dewp_054.txt.gz
Dewpoint
45 44 43 45 46 48 45 38 33 42 46 31 33 32 36 36 36 40 39 32 32 31 30 29 29 29 30 31 31 30 32 30 27 30 31 32 31 29 25 16 11 15 22 19
45 44 43 44 46 48 40 38 36 42 41 30 31 34 35 36 37 38 36 30 30 31 29 28 29 29 32 32 31 31 30 28 22 25 27 32 29 30 29 25 23 15 15 18
44 44 43 43 45 47 40 34 30 34 38 38 36 34 33 36 38 39 34 31 30 30 31 32 30 31 36 34 32 40 35 29 21 20 22 28 23 29 30 29 20 21 21 21
41 41 42 42 44 46 40 38 34 37 32 35 37 37 37 34 34 34 35 31 32 32 32 30 31 32 33 34 37 34 32 25 27 29 30 30 29 27 28 26 27 22 23 24
41 40 41 42 44 44 42 37 36 37 37 38 37 37 37 35 34 34 33 35 34 33 32 31 31 32 32 31 32 33 33 24 29 25 28 30 29 30 29 29 27 27 27 27
40 40 40 41 44 43 40 42 42 39 35 35 36 36 36 36 36 36 37 36 35 34 35 35 34 33 33 33 32 32 31 28 28 22 27 28 25 29 29 29 30 29 28 29
39 40 40 40 43 42 42 42 42 37 30 34 34 35 37 36 36 35 38 38 36 37 37 36 36 36 35 33 33 33 32 30 30 24 26 21 25 32 32 30 30 32 34 38
39 39 39 40 40 42 40 43 42 38 31 34 34 36 36 36 37 38 39 40 40 40 38 34 32 32 32 35 34 34 33 30 30 26 25 24 29 35 33 33 33 38 39 39
39 39 39 40 40 40 40 43 45 41 36 30 37 36 36 35 33 36 39 42 42 40 37 33 26 25 28 30 34 36 37 36 31 29 21 20 28 33 38 38 32 38 40 39
39 39 39 39 39 39 40 41 44 41 37 37 39 35 36 39 36 34 37 39 37 39 34 30 26 27 30 29 28 32 34 35 32 28 26 26 28 30 39 28 29 38 40 40
39 38 39 38 39 40 41 40 44 41 37 37 39 41 39 39 38 34 37 34 36 35 30 32 31 29 30 28 30 32 30 30 30 29 27 22 30 38 34 34 38 39 40 41
40 39 39 38 38 39 40 37 43 44 38 38 41 42 42 44 43 40 39 38 37 39 37 35 36 31 31 29 26 31 29 29 28 28 27 29 31 34 37 37 37 37 37 39
40 39 39 38 38 38 39 39 41 42 39 40 41 42 44 45 46 46 38 40 41 39 43 39 36 32 34 31 29 29 32 32 32 32 34 33 33 34 37 37 36 35 36 39
38 40 39 38 38 37 39 39 42 40 37 36 39 45 43 47 47 46 45 42 43 42 42 38 38 36 36 33 33 33 34 33 32 33 34 35 37 37 37 36 34 34 34 40
38 39 39 37 37 38 42 41 42 41 39 36 39 41 43 45 45 44 43 42 40 39 40 39 37 40 38 35 35 32 35 34 34 33 36 36 36 37 36 35 33 33 37 39
39 39 39 38 39 41 40 36 43 42 42 38 36 43 44 42 43 43 42 42 42 43 41 40 41 41 39 36 35 34 36 36 36 35 37 37 37 36 34 33 32 34 38 38
40 39 39 40 41 42 36 38 43 44 44 39 37 38 43 43 45 45 45 46 44 44 42 41 40 39 41 38 32 34 34 36 37 38 38 37 36 35 32 32 33 33 33 36
40 40 42 43 44 43 39 40 42 44 40 41 36 36 36 43 42 41 45 42 43 43 41 42 40 40 40 36 36 36 38 39 39 37 38 36 34 31 31 30 30 30 29 29
39 43 43 40 36 33 40 46 46 45 42 37 38 33 28 43 42 42 43 42 37 41 38 39 40 38 36 36 34 34 36 37 39 38 36 34 33 32 30 29 29 27 26 26
41 43 40 35 39 45 44 43 41 41 41 41 38 40 35 40 40 39 40 40 36 32 37 41 38 36 35 30 31 34 34 36 36 37 37 36 34 32 31 29 28 27 26 23
35 34 36 39 42 42 41 38 37 38 36 39 39 39 37 41 37 37 40 35 34 32 34 35 33 34 32 30 31 32 34 35 36 36 37 38 37 34 31 30 28 27 24 22
36 36 40 40 39 38 34 34 35 35 34 39 38 38 39 39 41 38 38 33 32 30 36 33 31 34 30 30 31 32 34 36 36 36 37 38 38 35 32 30 27 25 22 21
41 38 34 36 35 30 29 28 32 33 36 35 36 36 39 40 40 37 35 32 32 36 32 31 32 30 30 30 31 31 33 35 36 35 39 37 35 33 31 29 25 23 23 24
35 31 28 30 30 31 33 33 33 34 35 35 37 35 36 38 36 36 33 35 33 29 28 29 30 29 29 30 30 30 33 34 34 36 37 40 37 34 33 31 28 27 24 22
30 32 26 29 31 33 33 33 34 35 36 36 36 34 35 33 33 34 32 30 28 30 29 29 29 29 29 29 29 30 33 33 34 34 34 35 33 33 31 29 28 21 20 19
31 31 29 31 29 31 32 32 33 35 35 36 35 33 32 31 32 31 30 28 27 29 29 28 28 27 28 28 28 30 31 32 32 32 32 32 31 27 25 26 24 22 20 19
28 24 31 31 30 32 32 33 34 35 34 32 32 31 30 32 31 30 30 29 29 29 25 24 25 25 27 28 29 29 29 30 29 29 29 29 26 23 23 23 26 27 25 22

GFSNW_sfc_dewp_057.txt.gz
Dewpoint
44 44 44 43 45 48 42 35 26 41 44 30 32 30 34 37 36 39 38 32 31 30 30 28 29 28 29 31 31 29 31 29 30 31 31 31 30 28 25 17 14 16 20 17
42 41 42 43 45 46 39 34 33 41 40 28 30 35 36 36 37 37 36 30 31 31 28 27 29 29 31 32 31 30 30 26 18 26 29 32 29 30 25 24 20 13 14 16
42 41 42 42 45 45 39 33 28 34 35 37 35 33 35 36 38 37 34 31 31 30 31 31 30 31 35 33 32 38 33 27 21 19 21 27 22 29 28 28 20 20 20 20
41 41 41 42 45 44 39 36 32 37 32 33 37 37 36 33 32 35 35 32 32 32 30 30 31 32 32 34 39 33 31 25 26 27 29 29 27 27 29 25 26 19 22 24
41 40 41 41 44 44 40 37 35 38 36 37 35 36 35 35 35 35 34 34 34 34 31 31 30 31 31 31 32 32 31 25 28 24 28 29 28 29 28 29 29 28 28 27
41 40 40 41 41 42 39 41 42 39 32 32 34 35 35 35 36 37 38 36 35 34 35 34 33 33 33 32 31 32 31 28 26 20 26 27 24 28 29 29 29 28 27 28
41 40 39 40 41 42 42 42 41 34 29 31 32 35 36 37 36 36 38 38 36 37 37 36 36 35 34 33 33 32 30 29 30 25 25 22 24 29 31 29 29 30 30 30
41 39 39 39 40 40 40 43 42 38 31 32 33 35 36 36 38 38 39 40 40 40 37 33 31 32 32 34 33 33 31 30 29 27 24 24 28 34 30 30 32 32 31 33
40 40 39 39 39 40 40 43 44 41 35 29 36 36 35 34 33 35 38 41 41 39 36 32 25 26 28 31 33 36 34 36 30 29 22 19 24 34 37 36 31 36 38 39
39 40 38 38 38 39 40 41 43 41 37 36 38 36 35 38 35 34 36 38 37 37 33 30 25 27 31 28 29 32 34 35 31 26 25 24 27 29 39 28 28 37 38 39
40 39 40 39 38 39 39 39 44 41 37 36 38 39 38 39 38 34 35 33 34 34 29 29 30 28 29 28 29 32 29 29 30 31 27 21 29 37 33 33 37 38 39 40
38 40 40 39 38 38 38 35 42 44 38 36 40 41 42 43 42 41 38 36 37 38 36 34 36 31 31 28 26 30 29 29 27 27 26 28 31 34 35 38 37 37 38 39
39 40 40 39 38 37 37 37 40 41 39 39 40 39 43 42 41 44 37 39 41 39 42 38 36 30 32 29 31 28 32 32 31 31 32 32 32 34 35 37 36 35 35 40
40 39 39 40 38 37 37 38 40 40 37 35 39 44 42 46 47 45 44 41 42 40 42 38 37 35 34 31 31 31 33 32 31 32 33 34 35 37 37 36 35 34 34 39
40 38 40 39 37 38 37 42 41 41 37 35 38 41 41 44 45 44 42 42 40 38 39 39 37 39 37 37 35 31 34 33 32 31 35 36 36 37 37 36 34 33 35 39
40 41 40 39 39 39 41 32 40 42 40 36 36 42 42 43 42 42 41 41 40 42 41 40 40 40 38 36 34 35 35 36 35 35 36 37 37 37 35 34 33 34 37 40
41 40 40 40 40 41 36 35 42 42 41 37 36 37 43 44 43 43 44 43 44 43 42 41 40 39 40 38 32 34 35 38 38 38 39 37 36 36 33 32 33 35 36 37
41 40 40 43 44 42 39 41 42 44 40 40 35 36 35 43 41 40 44 42 43 43 41 41 40 40 40 36 36 36 36 35 39 38 37 36 35 32 31 31 30 32 33 34
40 41 44 39 36 32 38 46 46 44 41 37 37 34 27 43 42 42 42 42 37 40 38 38 40 38 34 32 29 30 32 34 34 36 38 36 34 33 31 29 30 29 29 30
39 42 38 35 36 44 44 43 40 39 40 40 37 39 35 40 40 38 40 40 36 32 37 40 37 36 33 32 31 32 32 34 35 35 34 37 36 35 32 30 29 29 27 26
35 33 32 38 42 42 40 37 36 37 35 39 38 38 36 41 36 37 38 35 33 31 34 35 33 34 33 30 31 32 32 33 34 35 35 36 37 37 35 31 29 28 26 24
34 36 39 40 38 37 34 34 34 34 32 38 38 38 38 39 41 38 38 33 32 29 35 32 29 32 30 30 29 30 31 33 35 36 35 36 37 38 36 32 29 27 24 22
41 38 34 35 35 30 30 28 31 32 35 35 36 35 39 40 40 37 35 32 32 36 32 30 31 30 29 29 29 30 31 34 35 35 35 38 35 34 31 29 27 24 23 23
35 31 26 30 29 32 32 32 32 34 35 35 37 36 36 38 36 36 33 35 33 29 27 28 29 28 28 29 29 29 31 34 34 34 34 39 37 33 30 26 25 26 26 27
30 32 23 24 30 33 33 33 34 35 36 36 36 35 35 33 33 33 32 30 28 29 27 27 29 28 28 28 28 29 32 32 33 33 33 34 33 33 31 30 30 28 27 26
30 31 28 29 29 29 32 32 33 35 36 36 35 33 32 31 32 31 30 28 26 27 28 27 24 27 27 28 28 29 29 31 32 31 30 32 34 30 30 28 26 21 20 20
29 27 29 30 29 30 32 34 35 35 34 32 32 31 26 32 31 30 30 29 27 23 27 23 24 25 25 25 28 29 28 28 29 29 28 27 27 29 27 26 28 28 27 21

GFSNW_sfc_dewp_060.txt.gz
Dewpoint
42 42 42 43 45 46 42 34 24 39 42 32 32 32 35 37 37 38 34 32 31 29 29 28 28 27 29 31 31 29 31 31 29 30 30 31 30 28 24 17 15 19 19 15
41 42 42 43 44 45 40 32 32 39 40 31 32 36 37 37 37 36 32 30 31 30 28 26 28 28 32 32 31 29 30 25 23 27 29 31 29 29 25 23 21 20 15 12
42 41 42 42 43 45 38 33 29 35 38 38 36 34 35 33 38 34 32 31 31 31 30 31 29 31 35 34 32 37 32 26 22 20 21 27 23 29 26 24 17 20 19 19
42 40 41 42 42 44 38 34 32 37 33 36 37 37 36 34 34 35 35 33 33 31 29 30 31 32 32 34 39 33 30 25 26 26 28 28 27 28 28 23 24 20 21 22
42 41 40 41 42 43 41 36 35 37 35 34 35 36 35 35 35 34 34 34 34 33 30 30 30 31 30 30 32 31 30 25 27 24 27 29 28 29 29 29 28 27 27 27
40 41 39 40 41 42 39 41 42 39 32 31 31 32 34 35 36 37 38 36 34 33 35 34 33 33 33 32 31 31 29 27 24 19 26 27 24 28 29 29 29 29 26 28
40 40 39 39 40 41 42 41 41 36 29 30 32 34 36 37 38 37 39 38 35 37 37 36 35 34 33 33 33 31 29 29 28 25 25 20 23 28 30 29 29 30 29 29
40 40 40 39 39 40 39 42 40 38 31 31 33 35 35 35 36 37 39 40 40 41 36 33 31 31 30 33 33 32 31 31 28 25 24 24 28 32 30 29 31 31 30 30
39 39 40 39 38 38 39 42 44 40 35 28 35 34 34 33 31 34 37 40 40 38 35 31 25 25 27 29 33 36 36 35 28 28 22 19 22 33 34 36 34 35 34 33
39 40 39 40 38 38 39 39 43 41 37 35 37 34 35 37 34 33 35 37 37 36 31 29 26 28 31 28 29 30 33 33 29 26 26 22 26 30 36 31 29 36 38 38
41 38 40 41 38 37 38 37 42 40 36 36 37 38 39 39 37 32 34 31 33 33 29 28 27 26 29 28 29 31 30 28 30 30 26 21 27 36 33 34 36 38 37 38
43 38 40 40 40 37 36 33 39 42 37 35 39 40 40 42 44 41 38 34 36 37 35 32 34 31 31 27 24 29 29 29 27 28 26 27 30 34 35 36 36 36 36 37
42 41 40 39 40 38 36 36 38 38 38 37 40 37 40 41 40 42 37 37 41 39 42 38 36 28 31 28 28 26 29 32 30 30 31 31 31 32 33 36 37 36 35 37
41 40 39 39 40 38 38 36 37 40 37 33 37 42 41 45 43 43 43 41 41 39 42 38 36 33 33 29 30 30 32 32 31 31 33 34 36 36 37 37 36 34 34 38
40 40 40 40 40 38 38 37 38 39 37 33 36 40 41 45 46 46 42 41 39 37 38 38 36 38 36 35 32 31 34 33 31 30 33 35 35 37 37 36 35 34 34 37
40 40 41 40 40 40 40 32 37 41 40 35 34 42 40 42 45 44 42 41 39 41 41 39 40 40 36 32 32 33 34 36 35 33 35 36 37 38 36 35 35 34 34 37
39 41 41 40 40 41 36 31 42 42 41 35 34 36 42 45 44 43 43 44 44 43 41 40 39 39 40 36 33 32 36 35 36 38 38 38 37 36 35 34 33 35 35 37
41 41 40 41 43 42 37 40 42 43 38 38 34 36 35 44 42 40 44 42 43 42 40 41 40 40 39 35 36 32 32 33 35 34 36 37 36 33 32 32 31 32 34 34
41 40 42 39 36 35 35 43 44 43 39 34 36 34 31 43 42 42 42 42 37 40 38 38 40 37 34 34 30 30 31 32 33 35 36 37 36 35 33 31 30 30 31 32
38 40 39 35 34 40 44 42 37 36 38 37 36 38 34 41 41 39 39 40 36 33 36 40 37 33 33 31 31 32 32 32 33 34 35 35 35 36 35 32 31 30 30 30
34 31 31 37 41 42 39 35 35 36 34 38 38 38 36 40 36 36 39 35 33 31 34 35 33 34 33 31 30 31 31 31 33 35 35 35 35 35 35 36 33 30 29 28
33 35 38 39 38 36 33 33 34 33 32 37 38 38 39 39 41 37 38 33 32 29 35 32 30 32 30 29 29 29 30 31 34 35 35 35 36 36 36 37 34 30 28 25
41 37 34 34 35 29 29 25 30 32 35 35 36 36 38 39 40 37 35 32 31 35 31 29 30 30 31 29 29 29 31 34 35 35 34 35 38 33 33 33 29 26 23 23
35 32 27 29 27 30 32 32 26 34 35 35 37 35 36 38 36 36 32 35 33 28 21 23 29 29 28 28 29 29 32 33 34 34 34 34 35 32 28 26 25 25 25 26
32 32 24 26 29 32 33 33 34 35 36 36 36 35 35 33 33 34 32 31 28 27 26 25 27 27 27 28 28 29 31 31 32 33 32 32 34 34 31 29 28 28 28 28
31 31 28 29 30 29 32 32 33 35 36 36 35 33 32 30 31 31 30 27 24 24 27 25 24 27 27 27 28 29 30 31 31 30 30 31 31 33 31 29 27 27 28 27
29 27 29 29 30 29 32 34 35 36 34 32 32 30 28 32 30 29 30 27 23 22 26 27 25 26 26 25 27 29 28 27 29 29 28 27 26 28 31 28 29 26 23 22

GFSNW_sfc_dewp_063.txt.gz
Dewpoint
43 42 42 43 44 46 42 33 26 38 41 35 34 33 36 38 37 38 36 31 31 30 29 27 28 28 30 31 31 30 31 30 29 30 31 31 29 27 23 20 19 20 20 14
43 42 41 43 44 45 42 31 31 39 39 32 33 35 36 37 36 34 31 30 31 30 28 26 28 29 32 32 31 29 29 26 25 27 29 30 30 28 25 24 24 21 16 13
43 42 41 42 43 45 37 33 29 35 36 37 37 35 30 32 36 34 33 31 32 30 30 31 29 32 34 33 35 36 31 26 24 21 22 28 25 29 26 25 23 21 21 18
42 42 40 41 43 44 38 34 32 37 32 32 34 34 34 33 33 34 35 32 32 30 28 30 31 31 32 34 36 32 30 26 26 26 29 28 27 29 26 23 24 23 22 22
42 40 40 40 43 43 40 34 35 37 34 32 32 34 33 34 35 34 34 33 34 32 31 30 30 30 29 30 32 30 30 27 27 25 28 29 28 28 29 27 27 25 25 26
41 40 40 40 41 42 38 40 41 39 31 29 31 34 34 35 35 37 38 36 34 33 34 35 33 32 32 32 31 30 29 28 25 21 27 28 25 28 28 29 29 29 27 28
41 40 40 39 40 41 41 41 40 36 30 32 32 34 35 36 37 36 38 38 35 37 37 36 35 33 33 33 32 31 28 28 28 24 25 21 22 28 30 29 29 30 30 30
42 38 39 39 39 40 38 42 40 37 31 31 33 34 34 34 35 36 37 39 40 40 35 32 31 30 30 33 35 31 31 31 28 24 24 22 30 31 29 29 32 30 30 30
44 40 39 39 38 38 37 42 43 40 34 28 34 34 34 32 30 32 35 39 39 37 34 30 24 24 25 29 32 35 35 32 27 25 20 18 22 33 34 34 34 36 32 34
43 39 39 41 38 38 37 38 42 40 36 36 37 34 35 39 33 32 33 36 35 35 31 29 26 27 31 27 28 31 32 32 27 26 22 23 25 29 32 31 33 36 38 38
42 42 39 41 39 37 36 35 41 39 35 35 36 37 37 40 37 32 34 31 33 32 28 28 28 27 30 29 30 30 29 28 28 29 24 19 27 33 34 35 35 36 37 39
41 42 40 39 39 39 36 32 36 40 37 34 37 38 38 38 39 42 38 33 35 35 32 30 32 31 30 28 26 32 28 27 26 26 25 28 30 33 35 34 33 35 37 37
40 41 41 40 39 40 37 36 37 36 36 33 36 36 39 40 39 43 36 37 41 39 42 37 36 27 31 27 30 28 29 31 29 30 31 30 31 32 33 35 37 36 35 36
40 40 40 38 38 40 39 37 35 37 36 32 33 41 40 44 41 41 41 41 42 40 42 38 36 30 32 28 29 30 31 32 31 30 32 34 36 36 38 38 37 36 34 36
41 39 39 39 41 41 39 37 37 37 34 32 34 37 40 44 43 43 43 42 39 39 38 38 35 38 35 32 31 32 33 31 31 30 33 34 34 36 38 38 37 36 34 36
41 40 39 41 41 40 39 32 38 38 38 34 31 41 40 42 45 45 44 41 41 42 40 39 39 40 35 31 29 32 34 35 35 34 37 35 36 37 37 36 36 35 34 35
40 39 41 42 40 41 35 30 40 41 40 34 31 36 40 45 44 44 44 43 43 42 41 40 39 38 39 36 31 32 35 34 33 36 36 36 37 36 36 34 33 35 36 37
41 42 42 40 42 42 40 39 42 41 37 36 31 35 37 44 42 41 44 42 43 42 40 40 39 40 39 35 37 34 32 32 34 34 34 35 36 36 34 32 32 32 34 35
41 41 39 39 35 33 34 41 43 41 37 32 34 33 31 43 41 42 42 42 38 41 38 39 39 36 34 36 32 31 32 32 32 33 34 36 36 37 36 33 32 31 32 33
38 38 38 32 33 38 43 41 36 36 36 35 33 39 35 41 40 38 39 40 36 33 36 40 37 36 32 31 31 32 31 31 32 33 33 35 34 36 36 36 34 32 32 32
34 32 31 37 40 41 38 34 32 34 32 36 37 37 37 40 37 37 39 35 34 31 33 35 33 34 33 30 30 30 31 31 31 33 34 35 35 35 34 34 36 36 32 31
33 34 38 39 38 36 32 32 34 32 30 37 37 38 38 39 40 35 38 33 32 28 35 32 29 32 29 29 29 29 30 31 34 35 35 34 34 36 37 37 36 36 33 30
40 37 34 33 33 29 29 26 31 31 35 35 35 36 39 38 40 37 35 31 31 35 31 28 28 31 30 28 29 29 31 34 34 34 35 34 35 35 30 31 34 33 28 26
34 32 26 29 26 30 30 31 28 34 35 35 37 36 36 38 35 35 32 34 33 29 25 26 28 29 29 29 29 30 30 32 33 33 33 33 34 35 31 27 25 24 24 26
32 32 23 26 30 31 32 32 33 35 36 36 36 34 35 34 33 33 33 31 27 28 25 25 25 26 27 27 30 30 30 31 31 31 31 31 33 34 33 32 28 28 28 28
29 30 28 27 29 29 31 32 32 36 36 36 35 33 31 30 32 30 28 27 24 26 28 25 27 27 26 26 28 30 30 30 30 31 30 29 29 30 32 32 30 29 30 28
26 25 29 28 29 29 30 34 35 36 34 31 32 29 27 32 29 27 25 24 24 21 23 28 27 26 26 25 27 27 27 26 27 28 29 29 28 26 26 28 29 28 25 25

GFSNW_sfc_dewp_069.txt.gz
Dewpoint
46 43 43 43 45 47 44 42 41 44 45 38 39 37 35 37 35 37 36 32 28 27 26 26 28 28 30 31 30 27 31 31 30 30 30 31 29 28 26 29 25 25 25 15
45 43 43 43 44 45 42 37 39 45 45 35 37 36 34 35 33 32 31 29 30 28 27 26 28 30 31 31 30 28 30 30 28 27 28 30 29 28 26 26 32 29 21 16
45 43 42 42 43 44 42 39 38 40 40 38 34 35 37 32 36 33 32 29 29 27 26 27 28 29 32 34 32 36 33 28 30 26 25 30 34 29 28 32 30 23 23 17
44 42 42 42 43 44 43 39 37 37 37 37 35 35 34 31 32 33 33 30 30 27 25 26 29 30 31 32 33 30 29 29 29 26 27 27 29 30 29 31 29 32 20 19
44 43 42 42 43 45 39 38 37 37 36 36 34 36 34 33 34 35 31 30 31 28 26 29 27 28 28 28 30 29 30 32 29 30 27 27 29 28 29 28 27 25 24 23
43 45 42 42 41 42 38 39 41 39 36 35 34 35 35 35 36 36 36 35 32 31 33 32 31 31 30 30 29 29 28 30 29 27 27 27 27 28 28 29 28 27 26 26
43 43 41 41 41 40 39 41 41 36 33 33 32 35 35 35 37 35 36 36 32 34 36 35 33 32 31 31 30 30 28 27 29 25 25 22 25 28 29 28 28 29 28 28
42 44 41 41 41 40 36 41 40 38 32 32 33 33 35 36 35 36 36 37 37 39 36 31 28 29 28 30 31 30 29 27 27 25 22 23 29 29 28 29 32 30 29 29
42 42 42 40 41 40 35 40 41 40 35 32 33 33 34 36 34 34 36 38 39 38 35 31 25 25 23 24 30 33 30 29 27 28 24 18 30 35 34 33 34 34 32 33
42 42 42 41 40 40 37 38 39 39 32 31 34 33 34 37 37 36 36 36 37 37 34 30 28 24 25 23 23 27 28 29 26 25 24 23 27 29 31 31 35 36 34 35
42 42 42 43 41 39 38 36 39 34 32 28 28 34 35 36 39 35 38 37 37 36 32 31 29 27 25 26 26 25 25 24 24 25 23 22 34 34 28 36 36 36 37 37
43 42 41 41 42 40 40 36 36 35 33 28 30 31 34 35 36 38 40 39 37 36 34 33 33 27 28 26 23 30 25 26 24 25 25 30 30 33 32 33 35 36 37 38
44 42 42 42 41 39 39 37 38 36 32 29 28 29 30 29 31 38 37 40 41 40 42 38 35 28 29 24 25 27 29 31 27 29 28 29 29 32 37 35 37 38 38 36
44 43 42 41 40 40 39 39 39 37 32 28 25 30 35 39 38 34 35 37 43 43 43 40 34 29 32 27 29 29 30 32 29 29 30 32 33 34 38 37 38 38 37 37
44 43 42 41 41 40 42 40 38 38 33 27 27 27 24 24 32 42 39 36 39 41 41 38 33 36 33 32 33 28 30 29 29 26 30 30 34 37 37 37 38 39 39 38
44 42 42 42 40 41 39 32 40 40 40 34 24 28 31 38 36 41 40 39 39 42 42 38 38 38 35 32 29 29 31 32 31 29 36 35 37 38 38 37 38 37 36 37
44 43 42 42 41 43 35 31 39 40 40 32 25 28 34 36 43 43 43 41 43 43 40 38 37 38 38 33 29 29 31 32 34 36 36 35 36 36 36 36 36 36 35 36
43 41 41 43 42 40 38 39 42 40 35 32 27 27 35 42 40 39 44 42 42 43 39 41 37 37 37 33 32 32 32 34 35 35 36 35 35 35 36 37 36 35 35 35
41 40 42 38 39 38 36 41 42 41 35 32 32 30 32 40 40 39 41 42 36 41 38 37 38 34 33 33 33 33 34 34 34 35 35 34 34 35 36 36 36 35 35 35
41 39 36 35 37 43 42 40 36 35 35 35 30 33 33 37 38 37 38 40 37 33 36 40 37 34 34 35 34 33 33 32 32 32 34 35 35 34 34 34 35 36 36 36
38 36 35 39 41 40 37 33 31 31 29 32 31 31 33 40 34 35 38 34 35 33 34 34 33 32 35 33 32 31 31 31 32 32 33 33 34 34 34 35 35 36 37 37
37 37 39 39 37 35 32 30 33 31 28 35 35 37 38 38 38 36 37 34 34 30 37 34 29 32 31 29 29 30 31 32 33 34 34 35 35 35 34 35 35 34 34 35
37 35 34 33 33 28 28 26 31 32 35 37 35 33 39 39 41 37 35 32 31 36 33 29 30 33 31 29 30 31 32 32 32 32 34 34 34 34 35 35 31 27 27 29
34 31 26 28 27 28 30 31 34 36 36 36 35 34 37 38 35 35 32 34 33 31 29 29 34 34 34 33 34 35 32 32 32 31 32 33 33 34 35 35 35 31 27 27
33 33 25 26 29 34 33 34 34 36 37 37 35 36 36 35 34 34 33 32 30 29 29 34 34 33 33 33 33 33 32 32 32 32 33 33 33 33 33 34 34 33 32 29
32 32 28 28 30 32 34 33 34 36 37 37 34 33 33 33 32 31 29 28 28 34 37 35 31 30 30 32 34 34 31 29 30 31 30 31 32 32 32 33 31 32 31 30
27 25 27 28 31 28 29 31 35 36 35 31 32 31 31 33 31 28 31 31 36 36 34 32 31 29 27 28 27 26 23 22 25 25 27 27 28 29 29 29 30 31 31 30

GFSNW_sfc_dewp_072.txt.gz
Dewpoint
45 44 44 44 45 47 45 44 40 46 48 38 40 36 35 38 35 38 36 34 29 27 27 27 28 29 30 31 31 29 33 31 31 31 31 32 30 31 29 25 22 26 25 16
45 45 44 44 45 46 42 38 41 48 47 35 36 35 36 35 34 32 32 30 30 29 27 27 29 31 31 33 33 30 31 30 26 27 30 31 30 30 28 29 32 28 22 17
44 46 43 43 44 46 45 39 35 40 40 39 36 36 35 33 37 34 32 30 30 28 27 28 29 30 34 35 31 38 35 29 27 22 27 31 27 29 29 31 26 26 24 19
44 45 43 43 44 46 45 39 36 37 35 37 36 36 34 30 32 35 33 31 30 27 26 27 29 31 32 34 36 31 32 26 28 27 27 29 31 30 30 25 28 22 23 21
44 44 43 43 44 46 39 38 36 37 36 35 33 34 32 33 33 35 31 31 30 30 30 30 27 29 29 28 30 29 30 27 29 27 27 28 28 29 29 29 28 26 25 24
44 45 43 43 42 43 37 37 39 39 35 34 33 35 33 35 35 37 36 36 34 32 32 32 31 30 31 31 29 29 29 29 27 23 27 27 24 28 29 29 28 27 25 26
43 44 42 42 42 40 40 40 41 37 32 33 31 33 34 33 35 36 35 37 33 35 37 36 33 32 31 30 30 30 28 28 29 24 25 20 26 28 30 29 29 29 29 28
43 43 43 42 41 42 38 39 39 37 30 31 31 33 33 35 36 36 35 37 38 39 38 34 29 30 28 29 30 29 29 28 27 24 22 23 29 29 29 28 29 30 29 30
44 43 43 43 40 41 39 39 40 40 33 31 28 31 33 34 35 36 37 39 39 39 36 34 27 25 24 25 27 32 30 30 27 29 23 20 32 32 32 32 33 32 30 31
45 43 43 42 42 40 40 38 40 38 33 29 31 31 33 37 37 34 37 37 38 37 35 30 30 26 26 23 23 28 28 29 26 25 24 24 34 34 32 32 34 35 35 36
46 44 43 42 43 42 40 38 39 34 30 28 26 25 31 33 37 35 39 37 37 36 32 31 30 27 26 25 26 25 26 25 24 26 24 20 34 32 30 37 37 37 38 38
47 45 43 42 42 42 40 37 38 36 33 30 31 31 30 29 32 36 39 39 38 39 34 33 33 28 28 26 24 30 26 26 25 24 25 30 34 32 33 33 36 37 37 38
48 46 44 42 42 42 40 38 39 39 34 29 29 29 30 31 28 33 37 39 42 41 42 40 36 29 29 25 26 27 29 31 28 29 29 30 31 35 36 36 37 38 38 37
49 47 44 42 42 41 40 39 41 40 34 27 26 28 29 30 32 29 33 38 38 41 43 39 36 32 31 28 30 29 31 31 30 28 30 31 32 33 37 37 39 38 38 38
50 48 45 42 42 41 41 42 42 41 35 27 27 29 28 28 27 30 31 33 34 39 39 38 35 35 33 32 33 30 31 30 29 27 31 31 36 37 38 37 38 37 38 38
49 48 45 42 42 40 41 34 41 41 40 34 26 30 26 27 32 27 39 39 37 40 40 37 38 38 35 30 30 29 30 30 32 31 35 36 37 38 38 37 37 37 36 36
49 46 44 41 40 42 38 33 39 41 41 34 26 25 31 35 38 38 41 40 40 40 39 38 38 38 38 34 29 29 30 32 33 36 36 35 36 36 36 36 36 36 35 36
47 44 42 42 42 42 39 39 42 41 38 33 24 26 29 41 38 37 42 39 40 41 39 38 37 37 38 33 32 32 32 32 35 35 36 35 35 35 35 37 37 36 35 35
44 42 42 40 38 36 39 42 42 41 37 30 29 27 27 38 38 38 40 41 36 40 38 37 38 34 32 34 33 32 34 34 34 35 35 34 35 35 36 36 36 35 35 35
43 40 37 34 38 43 42 38 36 35 35 34 28 31 29 36 37 36 35 38 35 32 36 40 36 33 34 35 33 33 32 32 32 32 32 33 35 35 33 34 35 35 36 36
38 35 35 40 41 40 36 33 31 32 29 31 30 29 29 39 34 34 37 33 35 31 34 35 32 29 34 33 31 31 32 32 32 33 33 33 34 34 34 34 35 35 35 36
37 38 40 39 36 34 31 30 32 30 25 33 33 36 35 38 39 34 36 33 33 30 36 34 27 31 30 30 29 30 31 33 33 33 33 34 34 34 34 35 35 35 31 29
39 35 33 34 32 25 26 23 27 30 35 35 34 33 36 38 39 36 34 32 30 36 32 29 29 30 30 29 30 31 32 32 32 32 33 33 34 34 34 34 35 34 31 28
32 29 23 27 26 27 29 30 31 34 35 35 35 33 35 37 34 34 31 34 33 29 28 26 33 33 33 34 34 35 34 32 32 32 32 33 33 33 35 35 35 34 33 32
31 31 22 26 30 30 32 32 32 35 36 35 34 34 35 33 32 33 32 30 26 29 28 32 32 33 32 32 33 33 32 33 33 33 32 32 34 34 33 33 32 32 32 33
29 31 27 28 25 26 29 30 28 36 36 36 34 32 31 30 31 29 29 26 27 30 32 30 31 32 32 33 33 33 32 31 31 31 30 30 30 31 31 33 32 31 31 30
23 21 27 29 29 26 27 27 33 35 34 31 31 29 29 31 29 28 30 29 32 31 30 29 29 29 30 31 32 31 25 22 26 25 26 26 26 28 29 28 29 30 31 31

GFSNW_sfc_dewp_075.txt.gz
Dewpoint
45 46 45 45 46 48 43 39 33 44 45 34 36 36 37 38 37 38 37 36 32 28 27 28 30 30 30 32 32 31 33 33 31 33 36 36 36 35 31 24 24 25 22 19
45 46 45 45 45 47 42 36 37 44 41 28 33 34 35 37 34 35 33 31 31 29 27 28 30 30 33 34 32 30 31 29 25 28 30 31 29 33 32 29 30 24 22 18
45 45 44 45 44 46 42 38 31 36 39 38 36 36 34 34 37 35 33 31 31 28 28 30 30 31 35 34 31 38 34 30 23 21 25 29 26 29 28 25 20 24 22 21
45 45 44 44 46 47 41 36 36 37 32 33 36 35 35 33 32 35 35 32 31 29 26 28 29 31 33 33 35 31 30 25 26 27 28 30 30 29 29 22 26 22 23 22
44 45 44 43 45 45 38 33 34 36 34 36 33 34 32 32 33 34 35 35 35 33 31 31 28 28 28 28 29 29 31 26 27 24 27 27 27 29 30 28 27 27 26 24
45 44 44 43 43 42 35 36 37 38 34 34 32 34 34 34 36 36 37 36 35 32 33 34 33 30 31 30 29 29 29 27 24 20 27 27 23 27 29 30 29 27 24 25
45 43 44 43 42 42 38 38 38 34 29 31 32 31 32 33 35 35 36 37 34 34 37 38 34 32 30 30 29 30 28 28 28 22 24 19 23 29 30 30 30 30 29 28
45 44 43 43 42 42 38 37 35 32 26 30 29 31 32 33 35 37 36 37 38 39 38 34 29 30 28 29 30 31 31 28 26 22 21 23 28 29 29 28 28 30 29 29
46 45 43 42 42 40 37 37 38 36 30 23 28 28 32 32 32 35 37 38 39 38 36 35 27 25 24 24 25 31 30 29 26 27 20 20 31 30 32 32 31 33 30 30
48 46 44 42 42 42 38 37 37 34 29 31 27 30 31 35 37 35 36 38 37 37 34 32 29 27 26 24 22 28 27 27 23 23 22 24 34 34 32 31 30 35 34 35
50 48 45 43 42 43 38 36 38 33 29 29 29 27 28 32 33 34 38 37 36 35 30 30 29 28 26 25 26 27 25 27 26 25 24 20 31 31 29 35 37 37 38 38
51 50 47 44 42 42 40 35 38 37 34 30 32 30 30 30 30 34 36 38 38 40 34 32 31 29 28 27 23 28 25 25 23 24 24 29 35 33 34 37 36 37 37 38
51 50 49 46 43 42 41 37 38 38 36 32 30 29 31 32 31 30 33 37 41 42 42 36 35 30 29 25 26 27 30 30 27 27 29 29 32 35 36 36 37 38 37 37
49 49 50 47 45 42 41 37 40 40 37 30 27 28 28 30 29 31 29 34 38 38 41 38 35 32 30 27 29 29 30 31 29 28 29 30 31 37 38 38 38 38 39 37
48 49 49 48 45 44 41 40 41 42 37 28 28 30 31 29 30 28 30 29 32 37 37 39 34 35 33 32 32 30 31 30 29 29 31 33 36 37 37 37 37 36 37 37
48 48 48 47 44 42 39 34 39 40 41 34 25 31 28 27 28 30 29 31 34 36 37 38 39 38 33 30 29 31 29 30 31 31 35 36 37 38 38 37 37 37 37 36
48 48 46 45 44 42 36 33 39 41 39 33 26 25 28 35 33 30 34 39 39 38 37 37 38 37 38 35 30 30 30 31 33 36 36 34 36 36 36 36 37 36 36 35
47 45 44 42 41 41 40 41 42 41 36 34 23 20 27 40 37 35 39 38 39 39 38 38 36 36 36 32 34 32 32 31 34 36 36 35 35 35 36 36 36 35 35 35
44 43 42 40 38 36 35 42 43 41 36 28 27 21 22 37 37 38 39 40 34 38 36 37 37 34 31 34 34 33 35 34 35 35 35 34 34 35 36 35 34 34 34 35
42 40 37 32 35 42 41 36 36 34 35 34 27 28 25 34 35 35 35 38 34 31 32 39 35 31 34 34 34 33 33 33 33 32 31 32 32 33 33 34 34 35 35 35
39 35 32 40 41 39 36 32 31 31 27 30 29 30 28 35 33 34 37 33 34 29 33 33 32 30 33 31 31 31 32 33 33 33 33 34 34 35 35 35 35 35 35 35
37 37 39 39 36 33 30 29 31 28 24 31 31 34 34 35 39 35 35 32 32 29 37 33 27 31 29 29 29 30 32 33 33 33 33 33 33 33 34 34 35 35 34 32
38 34 32 32 32 23 24 16 23 26 33 34 34 32 35 36 36 34 34 31 30 36 31 27 28 30 29 29 31 31 32 32 32 32 32 33 33 34 34 34 35 35 34 33
28 20 15 24 20 24 24 28 29 33 34 33 35 33 34 36 33 34 31 33 33 27 26 24 30 33 33 34 34 33 34 33 32 32 32 33 33 33 34 34 34 32 32 32
29 29 21 21 25 26 27 32 31 31 35 33 33 32 35 32 32 33 32 30 25 28 28 33 33 32 32 32 33 32 32 33 33 33 31 31 31 31 31 32 33 31 31 31
30 29 25 25 19 18 25 28 28 34 35 33 34 31 30 29 30 25 23 26 27 30 32 30 32 33 33 33 33 33 33 32 31 31 30 29 28 28 29 31 30 30 30 29
18 16 24 23 22 22 27 26 30 34 33 29 28 27 28 30 25 22 25 28 31 31 30 27 28 28 30 33 33 34 30 25 26 24 25 25 23 23 24 24 26 27 28 28

GFSNW_sfc_dewp_078.txt.gz
Dewpoint
46 46 46 46 46 48 43 38 32 43 44 32 33 29 35 38 36 38 37 35 35 28 27 29 29 30 31 33 32 31 33 32 29 30 35 35 35 33 32 21 25 20 19 20
46 46 46 45 45 47 41 36 36 42 38 28 34 33 34 37 35 34 33 32 31 30 28 27 30 30 32 33 32 30 31 30 27 30 33 35 35 36 34 29 24 18 18 19
46 45 45 45 45 47 41 34 28 34 37 36 31 33 33 33 38 35 35 32 32 29 28 30 30 30 34 35 30 39 35 29 23 22 23 29 27 32 34 27 18 21 21 20
46 45 45 44 46 45 38 34 32 33 27 31 33 34 33 31 32 35 36 33 35 32 26 28 29 31 32 32 35 31 28 24 26 27 30 29 28 28 28 24 24 22 22 23
46 45 45 44 46 43 36 30 29 33 32 34 33 33 31 31 33 35 34 34 35 33 31 30 28 28 29 28 29 29 31 27 25 23 27 28 27 29 29 27 26 26 26 25
46 44 44 44 43 41 33 34 36 37 29 31 29 30 32 33 35 36 37 36 35 33 32 34 34 34 31 30 28 28 29 27 24 20 26 26 22 27 29 29 29 27 24 25
46 45 44 44 43 41 36 35 35 31 24 28 30 30 30 32 34 34 35 37 35 34 38 38 36 33 30 30 30 30 28 28 26 21 23 19 20 29 30 30 30 29 28 28
47 45 43 43 42 42 37 36 34 32 23 27 24 26 29 31 33 35 37 37 37 39 37 34 29 30 29 29 31 30 30 28 26 22 21 21 26 29 29 29 28 31 29 29
49 47 44 42 42 42 37 36 37 33 27 22 29 26 28 30 32 34 36 39 39 38 36 35 25 25 24 25 25 31 30 29 26 23 19 19 26 30 31 33 29 32 30 30
50 49 47 44 42 42 38 36 36 33 27 28 27 25 24 26 33 33 36 38 38 37 33 33 29 26 27 23 22 26 25 27 24 23 20 24 27 34 34 29 26 34 31 31
51 50 50 47 44 42 38 36 37 32 28 29 30 28 26 28 31 30 35 36 36 35 32 29 29 27 27 24 25 26 24 24 24 24 22 17 32 30 31 33 37 37 37 37
51 51 51 49 46 43 41 34 38 37 33 31 32 33 32 30 29 30 32 35 34 40 35 32 32 30 28 26 23 27 24 25 24 24 23 27 32 32 34 38 37 37 38 38
50 49 49 49 48 45 43 39 38 36 35 33 31 29 31 33 32 32 27 31 38 39 41 40 38 31 29 25 26 26 28 30 27 27 27 29 33 34 35 35 37 38 37 37
46 46 46 49 49 46 44 40 40 39 37 31 28 29 28 31 32 33 31 29 33 36 39 40 36 32 30 27 28 28 28 30 28 28 29 30 31 35 37 38 38 38 39 38
44 46 47 47 48 45 43 41 39 40 36 29 30 33 31 30 31 30 31 30 29 33 36 37 36 35 33 31 31 29 30 29 29 28 30 30 34 37 38 37 37 36 36 36
47 47 48 48 45 43 40 33 36 40 42 34 26 30 29 29 29 29 29 30 31 33 36 37 38 39 34 29 29 31 30 31 32 30 34 35 37 37 37 37 37 37 36 36
47 47 47 45 44 41 34 31 38 40 39 32 26 25 28 30 35 30 34 33 36 34 32 33 37 38 38 36 30 30 30 30 31 34 36 36 37 36 36 36 36 36 35 35
47 46 44 44 42 41 39 41 42 41 36 33 24 23 25 38 36 32 35 36 37 37 35 36 36 35 35 33 35 35 33 31 34 35 35 35 36 35 36 35 36 34 34 35
45 44 43 41 39 36 35 41 43 41 35 27 27 20 18 33 34 38 37 38 33 36 34 33 36 33 33 33 34 34 34 32 34 35 34 35 34 35 35 33 33 32 33 34
42 40 37 32 33 40 40 34 35 35 35 33 25 29 26 31 34 35 35 36 34 30 32 37 32 31 34 34 33 33 32 33 33 32 31 32 32 33 32 32 34 35 35 34
38 35 33 39 42 39 34 31 29 29 26 28 28 29 27 35 30 32 37 33 34 29 33 31 29 29 31 30 30 31 32 33 33 33 34 35 34 34 34 34 35 35 35 35
37 37 39 38 35 30 28 26 29 26 21 28 30 33 34 34 36 34 35 32 32 29 37 33 27 29 29 29 29 30 32 33 33 33 33 33 33 33 33 34 34 35 35 34
38 34 32 30 30 21 22 10 23 24 32 34 33 30 36 35 36 33 33 31 29 35 31 28 30 31 30 29 30 31 32 32 32 32 32 32 33 34 34 34 34 33 33 33
28 19 16 24 19 23 18 22 25 32 32 32 33 32 33 36 33 34 31 34 33 24 23 24 33 33 33 34 34 33 34 34 33 32 32 33 33 33 33 32 31 30 30 30
22 27 17 19 22 23 25 30 27 28 32 33 33 32 33 32 32 33 32 30 25 28 28 31 32 32 32 32 33 32 32 33 33 33 31 30 30 29 29 31 30 28 29 30
30 29 24 25 17 14 18 21 23 31 35 34 33 30 29 29 31 27 25 24 26 29 31 32 31 33 33 34 33 33 33 32 32 31 29 29 27 25 27 28 28 28 29 29
23 14 23 20 15 17 23 25 27 34 29 27 29 25 25 28 27 24 26 29 30 32 31 30 27 30 30 33 33 34 34 31 29 24 23 24 20 22 21 22 24 24 27 27

GFSNW_sfc_dewp_081.txt.gz
Dewpoint
47 46 45 46 46 48 42 37 29 43 43 30 31 25 32 37 36 38 36 35 34 30 28 29 30 32 34 35 35 33 33 32 30 32 36 36 34 33 32 21 26 24 16 19
46 46 45 45 46 47 40 34 34 40 38 25 25 31 33 36 36 34 35 33 34 30 28 27 30 31 35 34 31 31 33 30 28 28 32 35 34 33 32 28 24 18 17 20
46 45 45 45 45 46 39 33 28 32 35 34 30 31 30 31 37 35 35 34 33 31 27 30 29 30 36 35 30 39 34 29 24 21 23 32 32 33 34 32 26 22 20 23
46 45 45 44 44 44 37 32 30 33 24 29 32 33 32 31 31 34 36 33 34 32 28 28 28 30 31 32 36 32 28 26 26 27 29 29 29 29 33 31 29 23 24 22
46 45 45 44 44 41 34 30 27 30 29 32 32 32 30 30 32 34 32 34 34 34 30 30 28 28 29 28 29 29 30 25 25 24 27 28 27 29 32 33 31 28 26 25
46 45 45 44 44 39 32 33 34 33 27 28 27 28 28 30 30 37 37 38 35 33 33 32 33 34 33 30 30 28 28 27 23 17 26 26 21 26 29 29 28 28 25 26
46 46 44 44 43 40 35 34 33 27 21 22 21 24 25 28 29 30 35 37 35 34 39 38 36 34 32 30 30 30 28 26 26 22 22 16 18 29 29 29 29 29 28 27
47 46 44 43 42 42 36 35 33 28 21 24 24 26 24 26 30 33 35 37 40 39 36 33 30 29 29 29 30 30 29 28 26 22 20 20 23 28 29 28 27 31 29 29
50 48 47 44 42 42 36 35 36 32 26 22 27 26 27 29 23 27 37 34 41 38 36 36 26 25 26 26 27 31 29 29 25 22 18 17 24 31 30 31 26 33 31 30
51 50 49 48 44 43 37 35 36 32 26 27 28 24 23 27 27 26 29 32 36 39 33 34 30 25 26 22 22 26 26 27 26 23 19 23 25 33 33 25 24 34 32 31
51 51 51 50 47 44 40 37 38 32 29 29 30 29 27 27 28 27 29 27 35 36 34 31 31 28 27 23 25 25 24 23 23 25 24 16 31 32 28 31 37 37 35 34
50 51 51 50 49 46 42 37 38 37 34 31 32 31 31 30 30 30 30 31 26 32 36 32 31 30 29 26 23 27 24 24 25 23 22 25 30 32 32 38 37 38 38 38
47 47 47 47 48 48 43 39 39 38 34 31 30 28 31 35 34 34 29 29 34 36 37 37 38 32 29 27 26 24 27 29 27 27 27 28 31 35 35 35 37 37 37 38
43 43 44 46 47 48 45 41 41 39 34 30 28 30 30 30 32 33 32 30 30 31 31 36 36 33 31 27 28 28 28 29 28 28 29 29 31 35 37 37 38 38 38 37
43 44 46 47 47 47 44 42 41 41 34 27 28 32 31 30 31 32 32 31 30 30 30 34 36 36 33 31 31 29 30 30 28 28 30 29 30 35 38 38 37 37 37 36
46 47 47 48 46 43 39 33 35 39 40 34 25 29 29 29 30 29 29 31 30 31 32 32 34 37 35 31 28 30 30 31 31 30 32 35 37 37 37 37 37 37 36 36
47 47 48 46 44 41 35 30 37 40 40 33 24 24 27 28 36 30 32 31 33 32 31 30 33 35 35 36 31 30 30 30 31 32 37 36 37 36 36 36 36 36 35 35
47 47 46 45 42 40 37 41 42 41 37 33 24 21 23 34 34 33 33 32 34 36 32 34 34 33 35 32 34 35 35 34 32 35 35 34 36 36 35 35 35 33 34 34
45 45 43 39 37 32 36 42 42 42 36 27 23 19 16 30 31 37 35 37 32 34 35 34 35 33 29 31 32 32 33 33 33 34 35 35 35 35 34 34 33 31 32 33
44 40 34 28 33 39 41 36 35 35 35 32 25 27 21 28 31 33 35 35 33 29 30 36 32 29 33 32 32 32 31 32 33 32 30 32 32 33 32 32 33 33 34 35
38 32 32 39 42 38 34 30 29 28 24 27 27 27 27 34 27 31 36 32 33 28 31 32 30 30 31 29 29 31 32 32 33 34 35 34 34 34 34 34 34 35 35 35
35 34 38 38 34 30 27 26 29 26 20 26 29 32 34 34 35 32 34 31 32 27 36 33 28 29 29 29 29 30 32 32 32 33 32 33 33 33 33 34 34 35 34 34
35 32 31 29 30 22 21 7 22 24 31 33 32 30 33 36 35 33 32 30 27 35 31 29 31 33 33 32 33 33 32 32 32 32 32 32 33 33 33 33 32 31 31 31
27 19 19 17 17 23 17 19 21 27 30 27 30 31 32 34 33 34 30 34 33 26 20 23 32 32 33 34 35 34 34 34 32 32 32 31 30 30 31 30 31 29 29 29
22 20 12 20 21 18 25 29 23 24 28 31 30 31 32 32 31 33 31 29 25 28 27 30 32 32 32 33 33 33 32 33 33 32 31 29 28 26 27 28 28 27 28 28
26 24 21 25 24 12 24 19 19 25 31 32 32 29 29 28 30 27 24 24 25 28 30 31 31 32 33 34 34 33 33 32 32 31 29 28 26 24 26 26 26 25 25 26
25 15 23 19 13 16 18 24 25 31 29 26 28 24 25 27 25 24 27 27 29 31 31 31 30 28 30 33 34 34 34 33 30 26 23 23 19 19 19 19 21 22 24 25

GFSNW_sfc_dewp_084.txt.gz
Dewpoint
47 46 46 46 46 48 42 36 29 42 42 29 29 24 31 36 35 37 35 35 33 31 28 30 33 34 36 39 36 33 35 33 29 33 37 36 34 32 31 22 23 22 16 21
46 46 45 45 46 47 38 33 33 39 37 23 24 30 32 35 35 35 36 35 35 31 28 27 30 34 35 36 37 33 33 30 27 29 31 35 33 33 31 27 25 24 18 21
46 46 45 45 45 45 37 31 25 29 33 33 30 32 30 31 34 36 35 35 35 32 27 30 29 34 37 37 33 39 34 29 25 22 23 30 31 32 32 25 18 22 21 23
46 46 45 44 44 43 34 29 30 32 22 25 30 32 32 31 30 34 35 35 37 33 28 28 28 31 35 35 35 32 30 26 26 26 28 31 30 30 31 27 27 23 23 24
46 45 45 44 44 39 34 27 25 28 26 28 28 30 29 27 29 32 33 34 37 35 31 29 26 29 28 29 30 29 30 27 26 24 29 28 28 29 32 31 30 29 28 26
46 45 45 44 43 36 30 31 32 31 25 23 24 25 22 23 27 28 34 31 33 34 34 33 32 33 33 31 29 29 28 26 23 18 26 25 20 25 30 31 31 31 28 29
46 45 45 44 43 39 33 33 32 25 20 22 18 23 24 24 26 26 27 30 34 38 40 38 36 33 32 30 29 30 27 25 25 23 22 15 18 29 29 30 30 31 30 28
48 46 44 43 43 41 35 34 31 27 21 22 23 24 24 25 26 26 24 35 37 39 39 34 30 29 28 28 30 29 29 28 25 21 20 20 24 28 28 28 26 30 30 30
49 48 48 45 43 42 36 35 35 30 24 23 24 25 26 24 22 24 27 32 36 37 38 36 27 24 26 26 27 30 28 28 25 22 18 15 22 31 31 30 25 32 31 31
51 50 50 49 45 44 37 35 35 31 26 27 27 24 24 26 26 25 27 29 32 36 34 33 30 25 26 22 22 25 26 28 24 25 21 23 24 29 32 25 23 34 32 31
51 51 51 51 49 45 41 37 37 33 29 28 30 30 26 27 27 26 28 28 31 30 33 33 32 29 27 24 25 25 24 22 23 26 25 17 26 31 28 29 36 37 34 32
49 49 49 49 50 47 43 39 38 36 34 31 32 31 32 30 30 29 30 29 28 32 32 33 33 31 34 26 23 27 23 24 24 24 24 25 27 32 34 37 37 37 38 36
47 47 46 45 47 48 43 39 39 38 35 32 29 27 28 34 34 33 29 29 32 34 35 34 36 31 29 30 29 26 27 28 26 26 27 27 28 33 35 36 37 37 38 39
43 43 43 45 46 48 43 41 41 38 36 28 27 31 30 31 32 34 33 30 31 30 31 30 34 33 33 28 27 28 28 29 28 27 28 29 30 34 36 36 37 37 38 38
43 44 45 46 47 47 43 42 41 41 34 27 27 30 29 30 30 30 33 32 30 29 26 31 33 37 33 31 30 29 30 29 28 27 30 29 29 34 37 38 37 37 36 36
46 47 47 48 47 44 40 32 35 38 40 32 24 28 28 29 29 31 30 31 30 30 30 29 31 35 35 30 28 30 30 31 31 30 31 34 35 36 37 37 36 36 35 35
47 47 48 46 43 41 34 29 35 41 39 30 22 23 26 27 32 30 30 30 31 30 31 30 30 33 35 34 29 31 32 31 31 31 36 36 36 35 36 36 36 36 35 35
48 47 46 43 42 40 36 39 42 41 35 30 23 22 22 31 31 34 32 29 31 33 29 32 31 31 31 29 32 33 34 34 35 34 35 34 36 36 35 35 35 34 33 33
46 45 43 37 35 32 38 42 42 41 32 24 26 19 15 29 29 35 35 35 31 33 32 32 33 31 29 29 31 31 31 31 32 33 34 34 34 35 34 33 33 32 32 32
44 39 32 27 33 39 41 35 34 35 34 30 25 26 25 30 31 31 33 35 32 30 30 35 32 28 31 30 32 32 31 31 31 31 30 32 32 33 32 32 33 33 33 34
37 32 31 38 42 38 34 30 29 28 24 27 26 26 25 33 28 29 34 31 33 27 27 30 29 30 31 30 29 31 32 31 32 33 34 34 34 34 34 34 34 35 35 34
35 35 38 38 33 29 25 25 28 25 20 25 27 31 30 34 36 32 33 30 32 25 36 32 28 29 30 31 32 32 32 32 32 33 33 33 33 33 34 34 34 32 32 32
34 31 30 27 29 20 13 9 21 24 29 32 31 28 32 35 35 33 32 29 28 35 30 26 30 32 33 33 34 34 34 33 32 33 33 32 33 33 32 32 31 30 29 30
28 22 21 19 20 21 18 17 17 23 30 29 26 29 30 33 33 33 28 31 32 23 19 25 30 31 32 34 34 34 34 34 34 32 30 29 29 29 30 29 29 28 27 28
23 23 17 21 20 15 22 20 21 24 30 26 30 29 31 31 31 33 31 27 23 27 26 29 30 32 32 32 33 33 32 33 33 33 32 31 26 23 26 28 26 24 25 26
24 21 19 22 21 13 25 27 18 23 29 27 30 28 28 25 28 27 21 21 19 23 27 31 31 31 32 33 34 33 32 32 32 32 30 27 25 22 23 24 23 23 24 24
27 24 23 22 16 18 19 24 25 29 27 18 27 24 23 25 22 23 27 26 27 31 31 30 30 30 30 31 34 34 34 33 31 27 22 22 20 18 19 19 20 21 23 23

GFSNW_sfc_dewp_087.txt.gz
Dewpoint
47 46 46 46 46 47 41 35 26 41 43 28 28 23 30 35 34 37 35 36 34 33 32 31 33 32 35 36 33 31 34 33 29 31 36 38 36 32 29 24 25 19 20 20
46 46 46 45 45 46 37 31 32 39 39 23 25 30 32 33 33 34 36 35 36 35 30 30 33 35 37 38 34 33 34 31 28 29 31 36 35 33 29 27 27 25 22 21
46 46 46 45 44 45 35 28 22 27 32 31 27 28 28 31 34 34 36 36 38 33 29 30 32 33 38 39 38 39 36 30 26 21 22 30 31 32 30 27 24 25 24 24
45 46 46 45 43 42 31 28 29 30 20 23 26 29 31 23 25 28 32 34 33 31 30 28 28 34 35 38 38 35 33 30 27 28 28 31 31 31 31 25 26 24 23 24
45 45 45 44 42 38 32 26 24 27 25 26 25 26 25 22 22 25 24 30 29 32 30 33 33 32 34 34 35 33 31 28 26 26 29 29 28 30 31 31 30 29 28 28
46 44 45 43 43 35 29 30 31 28 23 21 20 22 21 23 25 26 27 27 28 31 35 36 38 34 34 32 32 32 29 28 25 20 26 25 19 25 29 31 31 30 28 28
47 45 45 44 42 37 32 32 30 24 21 21 20 22 23 24 24 25 26 29 32 36 38 37 37 35 34 30 30 30 27 25 26 24 22 15 17 28 29 30 31 33 32 31
48 46 45 44 42 40 34 34 30 26 22 22 23 23 24 25 25 25 24 27 34 36 36 36 29 29 28 28 30 29 29 28 26 23 21 20 24 28 28 27 26 30 32 33
49 48 47 45 44 41 36 34 33 30 25 23 24 24 25 23 23 24 26 30 34 36 36 35 26 24 25 26 28 29 28 28 25 24 19 15 20 31 30 30 26 30 31 31
49 49 49 48 45 42 37 36 35 31 26 26 26 24 24 25 26 25 27 27 32 35 35 32 30 24 26 23 23 24 25 28 25 23 21 22 24 26 32 25 24 34 33 32
51 51 51 50 48 45 40 35 38 33 28 28 29 29 26 26 26 24 26 27 29 29 30 32 32 27 27 24 24 24 24 22 23 26 23 17 25 32 29 29 36 38 37 32
51 50 50 50 50 47 42 38 38 36 32 31 31 31 30 30 29 28 28 26 27 30 29 28 31 31 34 28 23 25 23 24 23 24 24 26 26 32 33 34 37 38 38 37
50 49 49 48 50 48 42 39 39 38 36 30 28 26 30 34 32 32 26 28 30 30 33 30 32 32 31 27 31 26 26 27 25 26 26 27 28 29 33 36 38 37 38 38
48 46 46 46 48 47 42 40 40 37 35 26 26 30 30 32 33 33 32 30 31 31 30 27 29 30 36 29 27 28 28 29 28 27 28 29 29 31 35 38 38 37 38 38
44 44 46 46 48 45 42 41 41 40 32 25 26 28 29 30 30 31 33 33 29 28 26 26 28 34 35 31 29 29 30 29 27 26 29 29 30 34 37 37 38 37 36 36
45 46 46 48 46 43 39 30 34 37 38 32 24 27 27 28 29 29 30 33 29 28 27 27 28 32 33 30 27 29 30 31 31 30 31 32 35 37 38 37 36 36 35 36
47 47 48 47 44 38 32 29 34 40 38 29 21 23 25 26 30 32 29 30 29 28 28 29 29 30 32 30 25 30 31 32 34 33 32 35 36 35 36 36 36 36 35 35
47 47 45 43 43 41 34 39 41 40 34 29 17 20 22 28 28 30 33 28 29 32 29 29 28 29 29 26 30 31 32 33 33 34 35 34 36 35 35 35 35 34 34 34
46 44 41 37 34 31 35 42 41 41 30 21 24 15 15 28 28 31 35 32 29 32 31 29 31 29 27 28 32 31 30 30 31 33 33 34 34 35 34 34 33 32 33 33
43 38 33 30 35 42 40 35 34 34 31 28 24 26 19 27 30 30 33 34 32 29 29 33 31 29 30 29 30 31 32 32 33 30 30 31 32 33 33 33 33 33 34 34
37 33 34 39 41 38 33 29 28 26 24 27 26 24 21 30 27 29 32 31 32 28 27 28 27 30 31 32 32 32 32 32 32 33 33 33 34 34 34 34 34 34 33 33
36 36 39 38 34 29 21 18 26 24 20 25 25 29 27 32 36 31 32 30 31 24 35 31 25 31 33 33 33 33 34 33 32 33 33 33 33 34 34 33 31 30 31 30
35 32 30 27 27 16 12 15 19 22 25 27 31 23 29 34 35 32 32 28 27 34 30 24 30 31 32 33 34 34 35 35 35 35 35 33 32 32 32 30 29 28 28 28
30 26 22 20 20 19 19 18 18 22 27 29 27 22 25 32 31 32 28 30 32 25 18 21 28 29 32 33 34 34 34 34 33 32 31 27 26 27 29 29 28 26 26 27
26 26 19 21 19 15 20 17 26 28 30 26 24 28 28 28 29 30 31 26 21 25 20 25 26 28 31 32 33 33 32 33 33 33 32 31 28 22 26 27 24 23 26 25
26 22 19 22 18 14 26 27 25 23 27 26 26 25 23 22 27 24 20 18 16 20 26 27 29 28 29 32 33 33 32 32 32 32 31 29 26 22 24 24 23 22 24 23
26 24 24 21 17 19 24 27 26 27 24 17 20 19 17 24 21 23 25 23 23 28 29 25 25 26 28 31 33 34 33 33 32 30 26 21 22 18 19 20 22 22 23 22

GFSNW_sfc_dewp_093.txt.gz
Dewpoint
48 47 47 46 45 47 46 41 38 45 45 38 37 29 24 32 24 28 31 36 36 33 35 33 33 32 32 26 23 26 34 34 30 33 35 32 34 33 29 29 25 27 26 19
48 47 47 46 45 48 39 29 37 43 42 31 30 23 24 22 22 27 23 30 31 28 34 33 36 33 37 33 27 34 35 33 29 31 34 36 33 34 35 28 34 30 24 19
48 47 46 46 44 46 41 29 38 30 30 27 24 25 24 21 23 24 26 25 28 28 28 34 34 32 38 34 33 40 39 36 32 27 27 31 33 33 31 33 33 23 24 21
47 46 45 45 43 46 37 32 34 28 24 25 23 24 23 21 21 23 23 24 25 32 28 26 29 34 35 38 38 38 38 34 29 28 29 29 32 32 31 34 31 33 24 24
47 45 44 43 42 44 34 28 31 27 23 24 22 22 21 22 23 23 21 23 26 30 29 31 30 32 35 34 38 37 36 31 28 30 29 29 29 30 31 30 29 28 27 27
46 45 43 42 42 41 33 34 34 29 24 22 21 22 22 22 24 23 24 26 28 29 30 28 30 31 33 36 37 36 31 30 29 27 26 25 25 28 30 30 30 30 29 29
46 46 43 42 41 40 35 34 31 26 18 19 20 23 23 23 24 25 25 26 26 28 33 36 36 35 35 35 33 32 28 26 27 22 22 17 22 26 28 29 28 30 30 30
47 46 44 43 43 43 37 35 33 28 18 21 23 24 23 24 24 24 24 25 28 32 36 34 28 29 29 29 30 29 30 27 25 23 17 20 27 29 27 27 28 31 31 31
48 47 45 44 43 42 38 36 36 34 23 22 25 24 24 24 23 24 25 28 31 35 36 32 26 24 23 24 27 30 29 30 27 25 20 13 25 28 31 30 28 34 34 33
49 47 45 44 43 42 41 38 38 35 27 27 27 24 24 26 25 25 24 26 33 33 33 31 30 25 26 22 21 23 25 26 25 23 22 20 25 30 31 27 33 36 36 33
49 48 47 45 44 43 42 38 39 36 30 30 30 29 27 27 26 23 24 28 31 33 30 29 29 29 27 27 24 24 22 22 22 24 22 18 27 32 29 32 35 37 38 33
50 50 48 47 45 43 43 39 37 37 34 32 33 32 32 31 30 29 27 27 28 32 29 29 30 30 34 28 25 27 23 25 24 24 23 27 27 29 31 34 34 38 38 36
50 50 49 48 47 44 43 39 39 37 33 31 28 27 30 33 32 32 29 28 31 30 32 31 30 28 32 26 30 30 27 28 25 26 27 28 29 31 32 32 37 38 39 38
51 50 50 51 49 44 42 40 40 38 34 28 26 30 29 32 32 32 32 30 30 30 29 30 30 29 36 31 33 30 30 29 27 26 28 30 32 34 33 36 39 38 39 39
51 51 51 51 47 44 43 42 41 40 36 27 26 28 30 30 30 30 32 31 30 30 28 29 28 30 32 34 32 29 30 29 28 31 30 30 30 32 37 37 38 38 38 37
50 50 50 49 45 44 40 36 40 40 38 33 25 29 27 26 30 31 30 32 31 31 30 28 28 26 27 27 26 30 31 31 32 30 31 32 32 35 38 37 37 37 37 37
49 49 48 45 44 43 37 32 39 39 37 32 27 23 26 27 32 32 32 32 32 30 29 29 29 27 32 28 23 30 28 30 31 33 34 32 36 36 37 37 37 36 36 36
48 48 45 44 43 41 38 39 40 38 34 30 29 25 25 30 31 31 33 31 31 30 29 30 28 28 27 24 24 29 32 32 33 33 34 35 35 36 36 36 36 35 35 35
47 45 42 40 37 36 37 41 40 40 34 30 30 31 30 30 31 33 34 33 28 32 29 28 29 27 26 25 29 31 32 32 32 33 34 35 36 36 36 35 35 35 34 35
44 40 36 34 38 43 41 36 33 33 33 31 29 29 29 30 31 30 31 34 30 28 29 33 31 28 29 33 35 35 35 34 34 33 33 35 35 36 35 34 34 35 35 34
40 36 34 41 42 37 33 29 28 28 27 28 28 28 29 33 30 29 31 30 32 27 30 29 27 26 31 32 32 35 36 35 36 35 34 34 34 34 34 35 34 33 32 31
39 38 40 40 35 30 27 26 28 25 24 27 28 29 31 32 33 29 30 28 32 24 34 31 24 28 31 31 32 32 35 35 35 36 35 36 35 36 34 32 31 31 30 28
39 35 33 30 29 24 23 21 24 25 28 30 31 30 31 33 34 30 29 28 26 33 30 25 28 32 31 30 32 32 33 34 35 34 35 34 33 34 35 33 27 24 23 25
34 32 24 29 24 24 26 26 29 30 32 31 32 30 30 30 30 29 25 27 30 27 25 25 31 33 31 31 33 33 32 34 33 34 33 31 25 26 27 25 20 20 21 24
33 34 28 26 27 27 28 29 30 31 32 32 30 30 29 29 27 27 29 27 22 24 26 31 34 33 31 32 34 33 33 33 32 33 33 33 32 30 30 31 25 20 21 22
32 29 26 26 27 25 27 30 29 32 32 31 31 28 25 25 26 25 23 23 23 29 35 35 33 32 33 32 33 35 34 33 33 33 33 33 31 30 27 28 27 26 23 23
31 28 27 29 29 27 29 29 30 31 29 28 28 24 23 28 24 23 26 26 32 36 35 34 33 30 28 29 28 31 34 35 34 34 34 33 32 31 26 22 27 26 25 22

GFSNW_sfc_dewp_096.txt.gz
Dewpoint
51 49 48 47 46 47 47 44 40 45 46 39 38 31 24 30 22 27 28 34 33 28 31 34 33 32 31 26 23 26 35 35 27 29 32 32 32 30 32 30 26 29 28 20
51 49 48 47 46 49 44 36 39 45 43 32 33 25 24 22 22 25 24 28 27 28 32 33 33 33 36 35 26 37 36 33 28 30 34 35 32 32 34 33 32 29 28 20
50 48 47 47 46 46 46 35 37 35 38 29 27 27 26 21 26 23 23 23 27 30 28 32 32 33 36 37 37 40 39 35 31 28 28 31 29 31 33 33 30 25 31 22
49 48 47 46 46 46 45 36 38 33 30 27 25 25 24 21 21 23 24 25 27 31 28 29 30 33 37 36 39 37 37 33 34 29 29 31 31 32 32 30 31 28 26 25
49 47 47 45 45 47 40 33 32 28 23 24 23 24 22 21 23 22 21 24 26 31 28 30 29 30 34 34 35 35 37 33 30 28 29 30 30 32 31 31 30 28 28 28
48 48 46 44 45 46 38 36 35 32 26 23 22 24 23 22 24 24 24 26 27 29 29 28 28 31 31 33 35 36 33 35 29 29 27 27 26 29 31 31 31 31 29 30
49 47 45 44 45 45 39 36 32 29 21 21 21 22 23 22 23 24 25 26 26 29 33 35 36 35 33 34 35 37 29 28 27 23 23 18 23 26 29 30 30 30 30 30
49 46 45 44 44 44 40 37 34 32 21 22 22 24 24 25 25 25 24 26 29 33 35 35 31 31 30 30 30 30 30 29 26 24 19 22 26 28 27 28 29 32 31 32
48 47 45 45 46 45 40 39 39 36 25 23 24 24 25 24 23 25 27 30 33 36 35 33 26 25 24 27 29 30 29 30 28 25 21 17 26 29 31 30 28 34 35 34
49 48 47 45 45 45 42 39 40 38 28 28 28 25 25 27 26 26 26 28 34 34 33 29 26 26 25 23 22 25 26 26 24 25 23 22 28 30 32 25 32 37 37 33
49 47 46 45 45 45 43 39 40 38 31 30 31 30 27 27 27 25 26 28 31 34 30 28 27 27 29 29 24 24 22 23 23 25 22 19 31 32 30 33 37 38 38 33
49 47 46 45 44 45 44 39 37 38 36 33 33 33 32 32 31 30 27 28 29 31 29 29 30 28 32 27 25 28 24 25 25 25 25 27 28 28 29 31 31 38 38 36
49 48 47 46 45 44 44 40 40 39 33 31 30 28 32 33 32 32 30 30 30 30 33 31 31 29 31 26 30 28 28 28 25 26 28 28 31 32 32 32 38 39 39 39
49 49 48 46 45 44 43 40 41 39 35 29 28 30 31 32 33 33 32 31 30 31 30 29 29 29 35 29 32 30 30 30 28 27 30 32 32 33 36 37 39 39 39 39
50 50 50 48 44 45 43 42 42 40 36 28 27 29 31 30 31 31 33 31 30 29 27 28 28 30 32 33 32 29 30 30 30 33 31 29 30 32 37 37 38 39 38 38
50 50 50 47 45 44 42 37 40 40 39 33 26 30 28 28 31 31 31 31 30 30 28 28 28 27 27 26 25 31 30 31 30 30 33 33 34 35 38 38 37 37 37 38
50 50 48 46 44 42 38 35 40 39 39 33 27 25 26 31 32 32 33 32 31 30 28 28 28 28 32 28 23 29 30 32 32 33 34 33 35 35 37 37 37 37 37 36
50 48 45 43 42 41 38 39 40 40 34 32 28 25 25 30 32 31 34 30 30 30 29 29 28 28 28 24 24 30 32 32 32 33 34 33 35 35 36 36 36 35 36 35
47 45 42 40 39 37 38 41 40 40 35 31 30 25 24 30 32 34 33 34 29 33 29 28 30 27 24 27 30 32 33 32 33 33 34 35 35 36 36 34 35 35 34 35
43 40 37 34 38 42 40 37 34 34 34 32 30 30 27 31 30 30 32 33 30 28 30 34 30 25 30 33 33 33 34 35 34 33 31 33 34 34 35 34 35 35 35 34
40 36 34 40 41 38 34 30 29 29 27 30 29 29 27 32 29 29 30 29 31 26 30 29 28 25 31 32 31 33 34 35 35 35 35 35 35 36 37 35 34 33 32 30
38 38 40 39 35 31 28 27 28 26 26 28 28 29 31 31 32 28 30 27 28 23 33 30 23 27 30 30 30 32 33 33 32 34 34 35 35 35 36 35 35 34 30 27
40 36 33 31 30 25 23 21 24 25 29 30 31 28 31 32 32 30 28 24 22 31 28 25 25 30 30 29 31 32 33 33 33 32 32 31 32 33 34 32 32 31 28 25
33 31 25 27 24 26 27 28 29 31 31 30 31 29 28 30 28 27 25 26 28 25 24 20 26 28 29 31 32 33 32 33 33 32 30 30 29 30 29 26 24 21 24 26
33 33 26 25 28 28 29 31 31 32 32 31 29 28 28 27 26 26 27 27 21 21 19 25 27 27 31 31 32 33 33 33 32 31 30 30 31 30 30 31 28 24 24 26
32 29 25 27 26 25 28 30 30 33 32 31 29 24 20 21 24 24 21 20 15 20 25 27 28 26 25 30 31 32 32 32 32 32 31 30 28 27 27 29 30 29 29 26
31 27 28 29 29 27 29 30 30 32 29 24 23 15 16 24 22 21 23 20 23 27 27 27 28 27 28 29 30 30 30 31 31 32 31 30 31 31 28 26 28 28 27 24

GFSNW_sfc_dewp_102.txt.gz
Dewpoint
55 53 52 51 49 50 50 43 35 43 43 28 27 21 24 29 24 27 33 31 30 27 31 31 29 28 30 36 31 32 34 28 24 25 34 33 30 28 32 20 23 21 16 20
54 53 52 51 49 51 44 38 36 42 37 22 21 23 24 24 25 24 26 25 29 29 31 30 27 31 33 38 35 34 33 30 23 22 31 32 31 32 33 31 26 23 15 20
54 52 51 50 50 50 42 34 27 32 33 26 24 25 22 23 26 25 25 27 30 29 31 32 29 28 35 38 39 39 39 33 25 16 21 28 27 31 33 26 20 25 23 27
53 52 51 50 50 51 38 36 29 29 24 24 25 25 23 23 22 24 26 28 29 29 28 28 29 31 33 34 37 35 37 30 32 31 31 31 29 29 32 25 31 30 30 29
53 52 50 50 50 51 38 32 27 25 23 23 22 25 21 23 24 23 23 25 27 29 28 28 29 30 33 32 34 33 34 29 29 26 28 31 30 31 32 32 30 33 33 30
53 51 50 50 50 44 36 34 33 25 25 21 21 21 23 24 25 24 26 26 25 28 29 29 29 30 32 32 33 34 33 30 28 23 26 26 23 31 31 31 31 30 28 29
53 51 50 50 49 43 34 33 32 23 20 21 21 23 24 24 25 24 26 26 25 29 33 34 34 33 34 33 33 33 31 28 27 21 21 17 23 26 31 30 29 30 29 30
52 50 50 49 49 43 35 35 31 25 20 22 23 24 24 25 25 24 25 27 28 32 34 31 31 30 30 31 33 32 34 29 26 21 20 21 27 29 28 27 30 32 32 33
51 50 49 49 49 45 37 37 37 29 23 21 24 24 24 23 22 24 27 30 32 34 34 31 24 22 25 25 27 31 31 30 26 24 19 17 26 29 30 29 29 36 34 31
50 49 48 49 49 46 37 37 39 31 26 28 25 23 24 25 25 24 26 27 29 32 30 26 21 23 27 23 23 25 25 26 23 23 23 22 28 30 31 21 26 37 33 32
49 48 48 49 49 44 38 37 38 32 29 29 30 30 25 27 26 24 25 29 28 27 27 27 26 25 26 24 25 23 23 21 22 23 21 18 31 31 29 31 34 38 34 34
47 48 49 48 46 44 40 35 37 36 32 30 32 32 32 30 29 27 28 27 28 30 27 27 28 26 28 25 22 29 23 25 25 24 24 27 31 29 33 31 31 38 36 36
47 48 48 47 45 43 39 36 37 34 31 29 29 29 31 32 32 32 28 29 30 30 31 31 30 25 29 24 28 27 30 30 25 26 31 32 33 35 36 37 38 39 40 39
48 47 46 47 46 44 41 37 39 33 31 26 27 31 30 32 33 32 31 30 31 30 29 29 30 27 30 27 28 27 29 30 29 29 30 31 31 33 37 37 38 38 39 41
48 48 47 46 45 44 40 39 38 37 29 26 27 29 29 31 33 32 31 30 28 28 26 27 26 29 28 30 31 26 29 28 29 29 32 32 34 37 37 37 37 38 38 38
49 48 46 45 44 41 34 27 34 38 34 28 24 29 27 29 31 31 29 30 29 28 27 26 27 27 26 24 23 29 30 31 32 30 33 33 34 35 35 36 37 37 38 38
48 47 46 44 43 40 35 28 33 38 35 28 24 24 26 31 31 31 31 31 29 28 27 27 27 27 28 26 23 27 30 31 32 32 33 32 33 32 34 35 36 37 37 38
48 46 44 43 41 39 34 37 39 36 33 30 22 22 25 30 29 29 33 30 31 28 28 27 26 27 27 24 26 29 30 30 31 31 32 32 34 35 36 36 36 35 35 35
46 45 42 39 38 33 33 39 39 37 31 27 22 17 16 29 32 33 32 33 24 31 26 27 28 25 24 25 25 30 30 30 30 32 32 32 32 33 35 36 34 34 34 35
44 40 36 33 37 40 39 33 28 29 30 31 27 27 23 30 31 30 29 32 28 23 26 31 27 25 27 28 29 31 31 32 34 32 30 31 31 31 34 36 35 34 34 32
39 35 34 39 41 36 33 25 23 26 23 28 28 26 27 31 27 28 29 27 30 18 23 25 21 23 26 30 30 30 31 32 34 35 34 33 34 34 35 35 35 35 34 34
38 37 39 38 34 32 31 20 25 24 21 27 26 27 27 28 30 28 29 24 27 15 30 26 19 23 28 29 28 29 30 32 33 32 32 32 33 34 35 35 34 34 33 32
39 36 33 32 31 28 25 17 19 21 26 27 27 26 28 29 29 27 27 23 18 30 25 19 21 24 28 28 29 30 32 33 33 33 33 32 31 31 32 32 32 31 29 26
35 31 27 28 25 25 23 24 26 27 29 29 27 26 26 28 23 26 18 23 30 23 17 16 20 25 27 28 30 30 31 32 32 32 32 31 30 30 28 24 22 22 24 23
33 33 27 25 26 28 30 27 30 31 31 29 27 26 26 24 22 23 22 23 20 18 15 19 21 23 26 27 30 31 32 31 31 31 31 31 31 30 29 29 27 24 23 25
32 29 22 26 25 27 29 30 31 32 30 29 27 23 19 21 21 17 18 16 12 16 18 21 24 26 27 29 30 28 27 31 31 32 32 32 31 30 28 29 28 28 28 28
29 23 28 27 27 27 30 31 31 31 28 23 22 16 16 21 14 14 19 17 18 19 29 28 24 28 29 27 28 28 27 27 27 29 30 31 31 31 29 24 23 26 29 28

GFSNW_sfc_dewp_105.txt.gz
Dewpoint
49 50 54 54 51 52 47 42 35 44 43 27 25 21 24 29 25 29 32 30 28 27 30 29 28 26 29 34 34 31 32 25 19 24 31 34 30 28 30 22 22 22 16 22
50 51 53 53 52 51 44 37 37 43 38 21 19 23 24 24 25 24 26 25 28 29 31 26 25 29 32 37 35 33 34 27 15 18 28 31 30 31 32 29 25 26 14 21
49 51 54 51 52 50 42 34 29 34 33 25 23 24 22 22 25 24 26 28 29 29 30 30 28 27 34 37 38 39 39 34 23 15 21 27 27 30 31 22 18 26 22 24
50 54 52 51 52 51 39 36 29 30 25 24 24 24 23 22 21 24 26 28 28 25 25 28 26 28 32 34 36 35 36 31 34 32 30 30 29 29 30 22 26 21 29 28
50 53 52 50 51 50 36 32 29 25 23 24 24 24 22 22 23 23 23 26 28 28 27 26 29 28 31 28 33 33 35 29 29 24 28 30 29 30 30 31 32 32 31 29
52 53 51 50 51 46 36 34 30 25 24 22 21 22 22 23 24 24 26 27 27 27 28 29 29 30 31 31 32 33 32 28 25 20 24 27 22 26 30 31 31 32 29 31
53 52 51 50 50 45 35 34 29 23 20 21 21 23 23 24 24 23 26 26 26 29 32 34 32 32 33 33 33 32 30 27 26 22 20 16 22 27 31 30 30 30 29 30
50 52 51 50 50 47 35 35 30 26 21 22 23 23 24 25 25 24 25 27 27 31 33 31 29 29 29 29 32 31 32 29 25 21 19 20 26 29 31 28 30 34 32 32
50 52 51 50 50 44 37 37 35 29 24 21 24 23 24 22 21 23 27 30 32 33 33 31 23 21 24 24 26 31 32 30 25 23 18 17 25 28 29 30 29 36 33 31
52 51 50 50 50 45 38 38 37 31 27 28 24 23 23 24 24 24 26 27 29 31 30 25 20 22 26 22 22 24 25 25 22 23 20 22 25 31 31 22 23 37 33 32
51 50 49 49 49 44 38 36 38 32 29 30 31 29 26 26 25 24 25 29 28 27 26 25 24 24 25 22 23 21 23 21 22 23 21 17 28 31 28 29 35 38 35 34
50 49 49 50 49 44 40 34 35 34 31 30 32 32 31 30 29 27 28 26 27 29 27 26 26 25 22 23 21 27 23 24 25 23 23 29 33 32 35 36 31 37 35 35
49 48 49 50 48 44 39 35 35 34 30 28 29 29 31 32 32 32 28 29 30 30 31 29 28 24 27 21 24 24 28 29 25 27 30 30 32 34 36 37 37 37 38 38
47 48 50 47 45 43 40 36 38 33 29 25 27 30 30 32 32 32 31 30 30 30 30 28 27 25 28 25 27 26 28 29 28 28 28 29 32 34 35 37 38 38 39 40
49 48 48 47 45 43 39 38 38 36 28 26 27 29 29 31 32 30 30 29 28 27 26 26 25 28 27 28 28 25 28 28 28 29 31 31 33 35 36 36 36 37 38 38
48 48 47 45 44 40 32 28 34 37 34 28 24 28 27 31 31 30 30 30 29 28 26 26 26 27 26 23 22 26 29 30 31 30 31 33 33 35 34 34 36 37 37 37
47 47 46 44 43 40 33 26 32 38 33 28 24 24 27 30 30 30 30 30 29 27 27 26 26 26 27 25 22 26 30 31 30 30 31 31 32 31 34 35 35 36 35 36
47 45 44 43 41 38 33 36 39 36 31 28 21 23 28 31 29 29 33 29 29 27 26 27 26 27 26 24 26 27 30 30 30 30 31 31 31 32 33 34 35 33 34 34
46 44 42 39 37 33 32 39 37 35 30 24 21 19 17 30 32 30 31 31 22 30 25 26 26 25 23 25 24 28 29 29 30 31 31 32 31 31 33 35 35 35 35 35
43 40 36 32 35 40 37 32 27 28 29 30 23 26 24 29 30 29 27 29 25 14 25 28 25 24 26 26 26 29 30 31 32 28 28 30 31 31 32 33 34 34 34 33
39 35 34 37 40 35 30 25 22 24 21 28 26 26 26 30 23 26 27 20 23 13 21 23 20 23 26 27 29 30 31 31 31 32 33 33 33 33 33 33 35 35 35 34
38 36 39 38 34 31 27 18 23 22 19 26 25 26 27 28 29 27 26 19 25 12 28 25 19 22 25 28 28 29 29 30 31 32 32 32 32 33 34 35 34 34 34 33
40 36 34 32 31 25 26 22 18 18 24 27 27 26 27 28 28 26 24 18 17 28 25 20 20 22 27 27 29 29 30 31 31 32 33 32 31 31 31 32 32 32 30 28
35 32 28 29 25 27 25 24 22 24 27 28 27 27 26 27 23 26 13 21 28 23 17 18 18 22 26 27 29 29 29 31 31 31 32 31 30 30 30 26 22 22 27 24
33 33 29 27 26 29 29 23 27 27 30 28 26 25 25 22 21 23 21 24 20 18 16 18 20 21 26 26 28 28 27 28 31 32 31 31 31 30 30 29 28 24 21 23
32 29 25 26 26 28 28 25 28 30 29 28 27 23 17 20 20 16 13 15 13 16 18 20 19 22 24 27 29 28 26 23 25 32 31 31 31 31 30 30 29 28 27 27
29 25 27 27 28 28 29 30 31 31 29 26 23 13 14 21 13 13 18 17 19 18 18 29 26 26 26 27 28 28 27 26 24 26 29 29 31 31 30 28 28 27 29 29

GFSNW_sfc_dewp_108.txt.gz
Dewpoint
47 48 48 50 50 51 47 42 34 44 42 31 25 21 24 28 25 31 30 29 27 26 30 26 18 26 28 33 35 29 30 25 21 27 30 35 30 28 31 21 22 21 19 22
45 48 48 50 52 51 44 37 38 43 40 23 21 22 24 24 25 24 27 25 27 29 29 23 25 25 31 36 35 34 34 25 10 15 22 29 29 31 32 27 25 26 19 22
45 48 48 49 52 51 40 35 32 37 38 27 23 23 22 22 25 24 28 28 29 29 29 29 27 26 33 37 36 39 37 32 22 18 24 26 25 29 31 21 20 25 23 24
47 49 49 50 52 50 39 33 31 34 30 25 24 22 22 21 21 23 27 28 28 26 25 27 25 28 31 33 34 34 35 29 31 31 30 30 29 29 30 22 25 19 26 26
48 48 53 52 50 51 36 32 31 25 23 25 23 24 22 21 22 23 22 26 28 27 25 24 25 26 30 26 33 34 34 27 28 24 27 30 29 30 29 30 30 30 29 28
46 48 50 50 50 47 35 33 28 26 24 22 21 21 22 22 24 24 25 27 28 27 28 29 29 29 30 30 31 32 32 26 23 19 23 27 21 24 30 31 30 31 27 30
48 51 52 51 50 43 36 34 27 24 20 21 20 23 23 24 23 23 26 26 27 29 33 33 32 31 33 32 32 32 29 26 26 20 19 16 22 29 29 30 30 30 29 31
49 52 51 50 51 41 35 34 28 26 21 22 23 23 24 25 25 24 25 26 28 31 33 30 28 28 27 28 30 29 30 27 25 20 18 19 26 29 34 31 31 34 32 32
46 49 51 50 51 43 37 37 34 28 24 21 24 24 24 22 21 23 27 31 32 32 33 31 23 21 23 24 26 30 31 28 24 23 17 17 23 28 29 31 28 35 32 31
47 49 51 50 50 44 38 37 36 30 26 28 25 22 22 24 23 22 26 28 29 31 29 25 20 22 24 22 22 24 24 24 21 22 19 21 25 30 32 20 20 37 33 32
48 51 50 50 50 44 38 36 36 32 29 29 30 28 25 26 25 24 25 28 27 27 25 24 24 23 24 21 22 21 22 20 21 22 20 17 29 30 25 28 33 36 35 33
48 51 50 50 48 44 39 32 35 34 31 30 31 31 31 30 28 27 27 26 26 29 26 25 26 25 20 22 20 25 22 23 23 23 23 29 32 32 34 36 33 35 34 34
50 50 50 50 49 44 38 34 34 33 29 28 29 28 30 32 32 32 28 28 30 29 30 27 27 24 26 20 22 23 26 27 24 27 29 29 31 32 34 36 35 36 37 37
50 50 50 50 48 43 38 34 36 32 29 25 26 30 30 31 32 31 30 30 30 30 29 28 27 25 27 24 25 24 27 28 26 26 27 28 31 32 34 36 36 37 37 38
49 50 50 49 46 42 39 37 37 34 27 26 26 28 28 31 31 30 30 29 28 27 26 26 25 28 26 26 26 24 28 27 27 27 30 30 31 34 34 34 35 36 37 37
49 48 47 46 44 41 32 28 35 36 33 28 24 28 27 30 30 30 29 29 28 27 26 26 26 27 25 23 22 24 28 29 31 31 31 32 32 34 33 33 34 35 35 36
48 47 47 44 42 39 30 26 33 36 33 27 23 24 28 30 29 30 29 29 28 27 27 26 25 26 26 24 21 24 29 30 30 30 30 29 31 30 33 34 35 35 34 35
47 46 44 43 41 38 33 35 38 35 30 28 21 24 28 31 28 27 31 27 27 27 26 27 25 27 26 24 25 24 28 29 29 29 30 30 30 30 32 33 33 32 33 33
46 44 42 37 36 32 31 39 36 35 29 24 22 22 21 30 30 29 28 28 21 28 25 25 25 24 23 23 24 26 28 29 29 30 30 30 29 29 31 32 33 32 34 35
44 41 35 32 35 39 35 30 26 28 30 29 23 26 26 29 27 25 25 27 24 13 24 28 25 24 26 25 26 26 30 30 31 29 28 28 28 30 31 32 32 33 33 33
40 35 33 37 40 33 29 25 22 24 22 27 26 25 25 29 22 23 26 19 20 12 21 22 19 22 25 26 26 27 30 30 30 30 31 31 31 31 32 32 34 36 35 34
38 36 38 37 33 31 22 18 22 21 18 26 25 26 26 27 29 24 25 18 16 12 25 20 17 22 23 25 26 28 29 30 31 31 31 31 32 33 33 34 34 34 34 33
39 37 34 31 29 23 21 21 19 18 24 27 28 26 27 28 27 24 21 12 18 26 24 19 20 22 25 26 27 28 29 30 30 30 31 32 32 31 31 32 32 32 31 30
36 32 29 29 26 25 26 26 25 23 26 28 28 27 26 27 22 23 12 20 26 23 12 16 18 21 24 26 28 28 28 30 29 30 31 31 30 30 30 29 24 21 26 27
33 33 29 28 26 29 28 26 27 27 30 27 26 25 25 22 21 22 22 23 19 19 15 18 19 19 25 26 28 27 27 28 27 27 28 30 31 30 30 30 28 25 22 21
32 30 26 27 27 28 28 24 27 28 28 27 26 21 18 19 21 17 13 14 12 16 18 20 15 19 23 26 28 27 26 25 24 24 27 30 31 31 30 30 30 29 28 25
29 26 27 26 26 28 29 29 29 30 27 22 21 13 14 20 13 14 18 15 19 19 17 21 25 24 25 26 27 27 26 25 24 24 26 26 28 31 30 29 29 29 29 29

GFSNW_sfc_dewp_111.txt.gz
Dewpoint
46 48 47 47 46 50 47 40 34 44 43 34 28 21 23 27 26 32 30 29 27 24 28 24 18 25 29 32 36 32 32 25 23 27 30 35 30 30 30 23 24 21 23 25
46 48 46 47 46 49 45 38 38 44 41 26 21 23 24 24 24 26 27 27 28 28 26 22 26 26 30 35 36 34 36 26 16 19 23 28 29 31 32 26 27 25 21 23
46 47 46 48 47 50 43 37 32 38 39 29 22 22 22 22 25 24 27 28 29 28 28 29 27 24 32 36 34 37 36 32 24 24 26 29 27 29 30 23 25 25 24 24
46 48 47 46 49 52 41 35 34 35 29 30 24 22 22 21 21 24 29 28 28 25 25 27 25 28 28 31 34 35 33 28 32 30 31 30 30 30 31 27 28 23 27 26
47 48 47 46 47 50 41 32 31 26 24 27 23 24 21 21 21 23 24 27 28 27 25 23 25 26 26 26 32 32 33 25 27 24 30 29 27 29 30 31 30 30 29 29
47 49 48 48 51 49 37 34 28 26 25 22 21 21 22 22 23 25 25 27 28 27 28 28 29 29 30 30 31 30 30 26 23 20 23 26 21 24 30 30 31 30 28 30
48 48 48 48 50 46 36 33 28 24 21 21 20 22 23 23 22 24 26 28 27 29 32 32 31 32 32 32 32 31 28 26 26 21 18 16 21 29 29 31 32 31 31 32
48 48 51 51 50 42 35 34 27 25 21 22 23 23 24 25 25 24 25 27 28 31 32 29 28 26 27 29 30 30 30 27 24 20 18 20 27 28 33 30 32 35 32 30
47 51 51 50 47 43 38 37 33 28 23 21 24 24 23 22 21 23 28 31 32 32 33 29 23 20 23 24 26 30 31 27 24 23 17 17 25 27 30 32 29 35 31 31
47 50 49 50 48 43 39 36 35 29 26 27 24 23 22 23 22 22 26 28 29 31 29 25 20 22 24 23 23 24 24 24 21 23 20 21 24 28 31 20 23 37 33 33
45 46 50 51 50 44 37 34 35 31 28 28 30 28 24 25 25 23 25 28 27 27 26 24 24 23 23 22 21 21 22 20 22 22 20 17 31 30 26 26 33 37 36 34
46 48 51 50 50 44 37 32 34 33 30 29 31 31 30 29 27 27 27 25 26 29 26 25 26 25 19 21 20 24 22 23 23 22 23 28 33 33 35 36 34 36 37 36
46 50 50 50 47 43 37 33 33 32 28 28 28 27 30 31 31 32 28 28 30 29 29 27 26 24 25 20 22 23 26 27 25 27 29 29 32 33 35 36 36 37 38 38
48 51 50 48 45 42 37 33 35 31 28 25 26 30 28 31 31 31 30 30 30 30 29 28 26 25 27 23 24 25 27 28 26 26 27 29 31 33 34 36 36 36 37 39
50 50 49 48 44 42 38 37 36 32 26 26 26 28 29 31 30 30 30 29 28 27 26 26 25 28 26 25 25 23 27 27 27 26 29 29 30 34 34 34 35 36 37 37
50 49 48 46 44 40 32 28 35 34 33 28 24 28 28 30 30 29 29 28 28 27 26 25 26 26 25 23 22 24 27 28 30 31 32 32 34 33 34 34 34 35 35 36
48 48 46 45 41 39 30 26 33 34 32 26 23 25 28 29 29 29 29 28 27 27 26 26 25 26 26 23 20 22 27 30 30 30 31 30 31 31 32 33 34 35 34 35
47 46 45 44 42 39 34 36 38 33 29 27 20 24 27 29 27 26 29 27 27 27 26 26 25 26 25 23 24 22 28 29 29 30 29 30 31 31 31 32 33 32 33 33
45 44 41 37 35 32 32 38 36 34 28 23 22 22 22 29 28 28 28 27 21 28 24 24 25 23 22 22 23 25 27 29 29 30 30 30 30 30 31 31 31 31 32 34
43 41 35 31 35 38 35 30 27 28 29 27 23 25 25 28 26 24 25 27 23 13 24 27 25 24 25 24 24 26 29 29 31 29 28 28 28 30 30 31 32 33 33 33
40 36 33 36 41 33 28 25 24 24 23 27 26 25 25 28 21 23 26 21 20 11 20 22 19 21 24 25 25 26 30 30 30 29 30 30 30 30 30 32 34 35 35 35
39 36 38 37 34 31 21 20 22 22 18 26 25 25 25 27 28 24 25 17 15 11 24 19 16 21 22 24 24 26 29 29 30 30 30 30 31 32 33 33 34 34 34 34
40 37 34 32 30 23 18 15 19 19 26 28 28 26 27 27 27 24 19 11 14 25 23 17 19 21 23 24 26 27 28 30 30 30 30 31 31 31 31 32 33 32 32 31
35 33 24 24 23 24 24 25 27 26 26 28 27 27 26 27 23 22 13 20 23 20 12 14 17 19 22 25 27 28 28 29 29 29 29 29 30 29 30 29 27 24 25 28
34 34 28 27 27 29 27 24 26 26 29 27 26 25 24 22 22 22 21 21 19 18 16 19 19 17 21 25 27 26 27 28 27 26 27 27 27 28 30 30 28 26 24 21
32 30 26 28 29 28 28 25 27 28 28 27 26 22 18 18 21 17 15 14 12 16 19 20 14 16 21 26 28 27 26 25 24 24 25 27 26 25 27 30 30 29 29 26
29 26 27 26 25 26 27 28 28 29 26 22 21 14 14 20 13 15 18 16 18 18 17 18 24 22 24 25 27 26 26 25 24 23 26 25 28 27 26 25 25 29 30 29

GFSNW_sfc_dewp_114.txt.gz
Dewpoint
47 47 47 48 47 49 48 42 35 45 44 35 32 31 21 27 26 32 29 29 27 25 27 24 28 27 28 33 36 30 32 28 28 29 29 34 31 31 30 29 24 25 24 27
47 46 47 48 47 48 45 38 38 44 42 30 30 24 25 24 25 28 27 28 28 28 27 24 25 31 31 34 36 33 34 29 26 25 27 30 29 30 31 27 30 26 25 27
46 46 46 47 48 48 45 39 33 38 40 31 24 24 24 23 25 25 26 27 29 29 26 29 25 32 30 35 33 37 36 30 30 25 27 31 31 30 30 31 30 25 26 26
46 47 46 47 48 46 44 38 35 35 30 32 26 24 23 22 22 25 29 28 29 32 26 26 26 30 29 30 34 35 33 31 30 30 30 30 31 30 29 32 28 30 26 27
46 47 47 47 45 47 43 33 34 32 29 32 30 24 22 21 22 24 25 26 29 30 28 27 26 27 30 31 31 32 32 30 29 28 26 27 27 29 29 29 28 28 28 28
46 47 47 48 47 48 41 35 32 28 29 29 28 22 21 21 24 25 25 28 30 28 28 29 30 30 30 31 31 30 30 29 27 24 24 26 25 28 30 30 30 30 28 30
46 46 48 48 48 48 38 33 30 26 22 26 26 22 22 22 23 24 28 30 29 30 32 34 33 33 32 32 32 32 30 28 27 23 20 18 25 31 31 32 33 32 32 31
46 46 48 48 48 48 37 34 29 27 22 23 22 23 24 26 27 26 27 28 30 33 35 30 28 28 29 30 32 32 32 29 24 21 20 23 26 29 33 31 32 33 30 31
46 48 48 49 50 46 38 37 35 29 24 21 24 24 24 24 25 26 29 32 34 36 34 30 24 23 24 24 28 31 31 28 26 25 19 18 25 28 31 32 29 35 32 32
48 51 51 49 47 44 40 36 36 31 26 28 26 23 21 25 23 25 28 32 34 34 32 28 27 23 26 23 23 25 25 25 24 24 22 22 25 29 31 21 29 37 34 35
48 48 47 47 46 42 38 35 36 32 29 30 30 28 24 25 25 23 28 30 32 33 30 27 28 25 26 25 25 25 22 22 22 24 23 20 31 31 25 31 36 38 36 36
47 51 49 49 45 42 39 34 35 34 32 30 32 32 32 31 28 29 31 28 32 34 29 28 28 26 29 24 21 28 22 23 23 23 23 31 35 35 36 36 37 38 38 37
47 51 49 51 47 42 39 35 34 34 30 29 29 29 31 31 31 33 31 30 31 32 32 31 30 25 26 23 25 27 28 29 26 28 30 32 34 36 38 38 38 39 40 39
47 51 51 50 45 41 38 36 35 33 29 26 27 30 30 31 32 32 31 32 32 32 31 30 30 28 30 25 26 28 28 29 27 28 31 32 33 35 37 37 37 37 38 40
50 50 49 47 44 41 39 38 36 34 30 26 27 29 30 31 31 31 31 31 31 30 28 28 27 31 29 29 28 27 29 29 26 25 30 30 31 35 35 35 35 37 38 38
50 48 46 45 43 39 35 32 36 35 35 31 25 29 30 31 31 30 30 30 30 29 29 28 28 28 27 26 22 23 28 30 30 30 32 34 35 35 35 34 35 36 37 38
48 47 46 45 42 41 33 29 34 34 35 29 26 27 30 31 30 31 31 30 30 29 29 28 28 29 29 26 21 21 27 30 32 33 34 33 34 33 35 35 36 37 36 36
47 46 45 45 42 40 36 36 38 35 30 29 27 25 27 31 28 28 32 29 29 29 29 29 27 28 28 24 24 23 28 31 32 33 31 32 34 34 34 34 35 35 34 35
45 45 43 39 36 35 34 37 36 37 32 28 26 26 26 31 30 30 31 30 27 30 26 26 27 24 24 23 23 24 30 31 32 32 32 32 32 32 33 33 33 33 33 35
44 42 36 33 36 39 36 34 32 33 32 29 25 27 27 29 28 28 28 29 27 27 25 29 26 24 25 24 24 25 31 31 32 31 31 31 31 32 31 31 31 32 33 34
41 37 34 38 40 35 30 29 29 26 27 27 27 27 27 30 27 27 27 27 27 24 24 25 24 23 25 26 26 26 31 32 32 31 31 31 30 30 31 31 32 33 34 34
40 37 39 39 36 33 28 25 25 23 22 26 26 27 29 30 30 28 28 25 24 21 26 25 21 22 24 26 26 27 31 31 31 30 30 30 31 31 31 31 32 34 34 35
41 38 36 33 33 28 25 20 23 23 27 28 29 29 29 29 29 27 25 23 22 26 25 22 24 25 25 26 26 29 31 31 31 31 31 32 32 32 32 32 33 33 33 32
36 33 30 29 27 27 29 28 30 29 30 29 30 29 28 28 27 25 22 22 25 22 19 21 25 27 27 27 28 30 31 32 32 32 32 32 31 30 30 30 30 29 29 30
35 34 27 26 29 30 29 28 29 30 31 29 28 28 26 26 24 23 24 22 21 20 22 25 28 26 27 29 31 32 32 33 32 32 32 32 32 31 30 30 29 28 27 24
33 32 30 29 30 30 29 29 29 31 30 29 29 26 24 23 24 22 21 19 19 26 28 29 23 23 26 30 31 32 32 31 31 31 31 31 31 31 32 32 31 31 30 29
31 29 28 30 30 31 30 28 29 30 28 28 26 21 22 24 21 20 21 22 28 28 26 24 24 25 27 30 30 30 31 30 31 31 31 31 31 30 30 30 31 32 32 31

GFSNW_sfc_dewp_117.txt.gz
Dewpoint
46 48 47 46 48 47 48 43 34 44 45 35 34 32 21 28 26 31 29 29 27 25 24 23 29 28 28 33 34 30 30 30 30 29 29 31 32 31 29 31 24 28 24 28
46 47 46 47 47 46 46 38 37 44 44 31 32 25 25 24 26 28 27 27 28 27 25 24 26 33 29 32 33 35 33 29 29 29 27 29 31 29 29 28 32 27 24 29
46 46 46 48 47 48 46 39 33 38 40 34 28 24 23 23 27 28 26 27 28 26 25 26 26 32 29 33 32 37 36 29 30 26 27 30 32 28 30 34 30 28 30 29
45 46 47 48 48 48 45 40 36 35 32 31 25 24 22 22 22 26 27 27 28 30 25 24 24 30 29 29 34 33 32 29 27 27 29 28 28 28 28 31 28 30 27 28
44 47 47 48 48 47 43 34 35 35 31 30 28 23 21 20 22 24 24 27 28 29 27 28 25 27 30 31 30 30 31 29 28 27 26 27 28 29 29 29 28 28 28 29
44 48 46 48 47 48 43 36 35 31 30 30 27 23 20 21 24 25 26 26 29 28 28 29 29 29 30 31 31 30 30 28 27 25 25 25 23 29 29 30 30 29 29 30
46 47 47 48 48 48 40 35 33 27 24 27 26 22 22 21 24 24 27 30 29 31 31 32 31 30 30 31 31 32 29 28 27 22 21 18 26 32 33 32 32 31 30 30
46 47 48 48 48 48 43 35 30 26 22 24 24 22 21 25 27 28 28 29 31 32 34 29 27 27 29 29 31 31 31 28 24 21 20 23 26 29 32 34 31 30 29 30
47 47 47 48 48 47 39 37 35 30 23 22 22 22 24 23 25 28 30 32 35 37 33 29 23 22 22 22 27 31 29 28 26 24 20 18 24 29 32 32 30 33 32 32
46 46 47 48 49 48 40 37 38 32 26 28 26 22 21 24 26 27 30 31 35 35 31 27 27 21 26 20 20 22 22 23 23 22 21 23 26 30 31 24 31 35 34 34
51 51 50 49 50 46 40 36 37 35 29 30 30 28 24 25 26 26 30 29 32 34 30 26 26 23 24 23 25 23 21 20 19 22 20 21 31 31 27 34 38 36 36 36
51 50 50 49 45 42 41 34 34 35 33 31 32 31 31 31 29 29 32 30 31 33 30 28 28 25 30 23 17 27 20 23 22 24 25 32 34 35 36 35 36 37 37 38
48 48 47 47 45 42 41 35 36 33 30 30 30 29 31 31 31 33 31 32 33 33 33 31 30 25 26 20 21 23 27 28 25 27 30 33 34 37 37 37 38 39 40 38
50 51 48 46 45 43 41 36 36 34 29 25 27 30 30 32 32 32 32 33 33 33 32 30 29 27 30 24 26 26 26 29 26 26 30 32 33 35 37 37 38 38 39 40
50 51 48 46 44 42 40 38 36 35 33 25 26 29 31 31 32 32 32 32 32 31 29 28 26 30 28 28 28 24 28 26 24 21 27 28 30 34 37 36 36 37 38 38
50 49 47 46 44 41 35 33 37 35 36 31 25 30 29 31 31 31 30 31 31 30 29 28 28 29 28 24 19 19 26 29 28 27 30 31 33 35 35 35 35 36 36 38
49 47 46 44 44 41 34 32 36 35 36 30 28 26 29 31 30 32 31 31 30 30 29 28 28 29 30 26 19 19 25 30 32 32 34 34 34 34 35 35 36 37 36 36
47 46 46 44 42 40 36 36 39 37 31 30 31 27 27 31 27 28 32 29 29 29 29 29 27 28 28 25 23 22 26 30 32 33 32 33 34 34 35 35 35 35 35 35
46 44 43 38 37 34 35 38 37 39 34 32 30 30 29 31 30 30 31 30 28 31 26 25 28 23 24 24 21 22 28 31 32 33 32 34 34 34 34 34 34 33 32 33
43 39 36 35 37 41 37 35 33 35 34 31 27 28 29 30 28 29 30 30 28 31 26 29 26 24 25 23 24 23 28 31 34 32 32 32 32 32 32 32 32 32 32 34
44 39 35 39 40 35 31 33 32 28 31 27 27 27 27 31 30 29 28 31 30 27 27 25 27 23 26 26 24 25 30 32 33 33 33 32 31 31 30 30 31 31 32 33
41 39 40 39 36 32 32 31 28 26 26 27 27 28 31 30 31 30 28 29 27 25 27 26 23 24 25 26 25 25 30 32 32 31 31 31 30 30 30 31 31 33 34 35
43 40 37 34 35 30 27 23 26 27 29 30 30 30 30 30 31 29 28 26 25 26 27 24 27 29 26 26 26 27 31 32 32 31 31 31 32 31 31 31 31 32 33 33
38 35 32 31 31 29 33 31 35 32 33 32 33 31 30 28 29 28 26 24 25 24 22 23 29 33 30 28 28 30 32 32 32 32 32 32 31 31 30 30 31 31 30 31
35 35 31 32 32 32 32 33 31 31 33 32 30 30 28 28 27 25 25 23 22 22 27 31 33 31 30 31 31 33 34 34 34 34 34 34 33 32 31 30 29 29 29 28
33 33 32 32 31 31 30 32 32 33 32 32 33 29 27 27 27 24 24 22 23 33 35 34 27 26 29 31 32 34 34 33 33 34 34 33 33 33 34 33 32 32 31 30
32 32 32 33 33 35 32 30 29 31 30 32 32 26 27 26 25 23 25 27 36 36 32 29 27 27 28 31 32 33 33 33 33 33 33 33 33 32 32 31 32 32 33 31

GFSNW_sfc_dewp_123.txt.gz
Dewpoint
46 46 46 47 48 48 44 41 33 44 45 33 31 27 27 30 27 32 30 29 27 25 24 25 23 26 30 33 34 33 36 32 28 31 32 35 33 32 31 24 26 29 28 27
46 46 47 48 48 47 41 37 37 42 42 27 30 25 26 27 27 29 28 28 28 27 25 24 29 27 32 33 33 33 33 28 22 22 28 33 34 30 32 30 30 28 24 27
46 47 48 47 48 46 41 39 32 38 38 34 30 24 23 25 28 28 28 28 29 27 25 25 28 25 32 33 33 36 36 31 28 27 31 34 32 32 32 31 27 27 29 29
47 48 48 47 47 46 42 38 31 34 30 29 29 24 23 24 23 28 28 28 30 28 24 24 27 27 31 32 35 33 35 29 32 31 30 32 33 33 34 31 32 28 30 30
48 48 48 48 47 46 39 34 32 34 33 33 28 24 20 23 24 27 26 28 29 28 27 26 25 28 29 28 31 31 31 25 27 25 28 30 32 32 32 33 30 30 32 31
48 49 49 48 47 46 37 35 36 32 29 27 25 25 20 25 26 26 28 30 29 29 29 29 29 30 30 31 30 30 30 28 24 21 25 23 24 33 29 29 29 29 28 32
47 49 49 49 48 47 40 35 34 29 26 27 26 23 24 27 28 26 30 31 30 30 32 33 32 31 30 31 31 31 30 28 26 21 21 18 28 33 33 31 31 31 31 34
47 49 48 48 48 48 39 37 34 29 24 25 22 23 26 28 29 29 31 31 32 36 34 31 26 27 28 29 31 31 31 28 24 20 20 25 29 30 31 31 30 33 32 32
49 49 49 48 48 47 42 37 38 32 25 23 28 23 25 25 25 28 31 33 35 36 35 30 23 20 22 23 26 31 29 29 25 22 20 19 26 30 32 31 29 34 34 34
49 49 50 50 49 49 41 36 38 33 26 28 29 23 23 27 28 28 29 31 32 34 30 26 23 23 26 21 21 22 22 22 21 22 20 23 28 30 31 24 28 35 35 35
49 49 50 50 50 46 39 35 37 33 29 28 30 30 28 28 29 27 30 29 30 30 28 26 24 25 24 23 24 22 21 19 20 21 19 15 31 31 28 33 35 36 36 36
49 49 50 50 49 48 42 32 35 35 31 29 31 31 31 31 31 31 31 31 30 33 30 28 27 25 23 23 19 26 19 23 21 23 22 31 34 34 36 37 37 36 37 37
49 49 48 48 49 49 43 35 35 34 31 30 30 29 30 31 31 33 30 32 33 33 33 31 28 25 26 21 21 22 25 27 25 26 29 32 35 36 37 39 39 39 38 38
52 48 48 50 50 47 40 35 37 36 31 25 26 30 30 31 32 32 32 32 33 33 32 30 28 26 28 25 24 25 25 27 26 27 29 32 34 36 38 38 39 40 40 38
51 49 49 50 48 45 39 37 36 36 33 24 26 29 30 31 32 32 33 33 32 31 29 28 27 28 27 27 26 25 27 26 25 25 31 31 32 36 38 37 38 39 39 39
49 49 48 47 46 42 40 32 36 35 36 27 21 29 29 31 32 31 30 30 31 30 29 28 28 29 27 24 22 23 27 28 27 26 31 32 33 37 38 37 37 37 38 38
47 46 45 45 44 37 33 30 35 38 36 28 24 25 28 31 30 31 31 31 30 29 28 27 27 27 28 25 22 21 24 29 32 33 34 33 35 35 36 36 36 38 37 37
47 45 45 44 43 40 33 36 39 39 32 32 23 23 25 30 27 28 31 29 28 28 27 27 26 27 26 23 25 24 26 31 33 33 32 34 35 35 35 36 36 35 35 35
46 45 46 40 36 33 35 41 40 37 34 26 26 17 16 30 28 29 29 29 23 29 24 25 27 24 23 21 21 25 27 31 31 33 34 34 34 34 35 34 34 34 34 34
46 39 35 31 35 41 39 34 31 31 31 30 25 28 23 28 27 25 26 28 26 17 26 28 25 23 24 24 25 24 25 32 33 32 31 32 33 34 34 34 34 34 33 33
40 36 35 37 40 34 31 26 24 27 23 28 27 27 24 30 24 26 28 21 23 15 23 22 21 24 26 26 26 25 27 33 33 32 33 34 34 34 34 33 33 32 33 33
41 38 39 38 35 31 20 19 23 24 20 26 25 26 28 28 30 26 25 20 17 12 25 18 18 22 25 25 25 24 30 33 33 33 33 33 34 34 33 32 31 31 32 33
42 37 33 29 29 16 14 11 17 19 26 26 27 25 28 28 29 25 23 16 17 24 13 18 20 24 25 25 25 27 31 34 33 33 32 31 33 31 31 31 32 33 32 32
35 30 20 23 20 23 23 21 21 26 27 29 29 27 27 29 25 24 15 22 23 12 12 16 21 24 26 26 26 30 31 33 32 32 31 31 31 31 31 31 32 32 31 31
35 34 29 22 25 22 23 23 26 27 31 30 29 29 27 25 22 25 21 16 15 17 16 22 24 23 21 24 27 29 31 31 31 31 31 30 31 31 30 31 30 30 28 28
34 33 32 32 24 23 22 21 23 30 32 31 30 27 26 25 23 18 17 12 10 17 26 28 20 20 19 26 28 28 29 30 30 30 30 30 30 29 28 28 27 27 26 25
32 31 34 28 21 22 24 28 29 32 31 27 28 23 22 25 17 16 20 17 22 28 31 28 24 22 25 27 28 29 29 29 29 29 30 29 29 28 27 26 25 24 26 27

GFSNW_sfc_dewp_126.txt.gz
Dewpoint
47 47 48 48 47 46 43 38 33 41 43 29 28 26 26 31 27 31 29 29 27 26 26 26 23 25 29 32 33 31 35 32 27 30 33 34 33 34 32 27 25 24 27 27
47 48 48 48 47 45 39 37 38 42 40 25 26 25 25 28 27 28 28 28 28 27 25 26 27 26 31 31 33 31 32 27 20 22 27 32 32 34 32 31 30 25 24 25
48 48 49 49 47 46 40 36 31 35 34 32 27 23 23 24 28 27 29 28 29 26 24 28 28 24 31 32 32 37 36 33 29 24 30 33 30 32 32 31 26 27 28 29
48 49 48 48 47 46 41 33 30 31 26 28 27 24 24 23 22 27 28 29 29 28 24 25 27 26 29 31 33 33 33 28 31 35 33 32 31 31 31 29 31 26 30 30
48 48 48 47 46 47 37 32 31 33 31 31 25 23 20 23 25 26 25 28 29 28 26 25 25 27 28 28 31 31 31 25 27 27 31 31 30 31 29 29 29 29 29 31
48 48 49 48 48 44 35 35 35 31 29 26 23 23 20 25 26 27 30 30 29 28 29 29 30 30 31 31 30 30 30 27 24 21 24 22 23 32 30 30 31 30 29 32
48 48 48 48 49 45 37 34 33 29 27 27 25 23 27 29 28 27 30 31 29 29 34 33 32 31 30 31 31 31 29 27 25 21 20 16 24 34 32 31 32 32 32 34
47 48 48 48 48 48 38 36 31 28 23 24 23 26 28 28 28 29 30 31 32 35 34 29 26 26 27 29 30 29 30 28 23 20 20 24 28 30 30 30 30 33 32 33
49 50 49 49 48 48 38 36 37 30 24 23 28 24 26 25 24 27 30 32 34 34 34 29 22 20 21 22 24 30 29 28 24 21 19 19 24 30 32 31 24 34 33 34
49 49 50 49 49 49 38 34 37 30 26 27 27 22 22 26 27 26 28 30 31 32 29 25 21 21 25 20 20 21 21 21 21 22 19 22 27 31 30 23 23 35 35 35
49 49 50 50 49 45 37 34 36 31 27 28 30 30 27 27 29 26 29 29 30 29 27 25 24 24 24 21 22 20 20 18 20 21 19 13 29 31 26 29 34 36 35 35
49 49 50 50 49 47 40 31 35 34 30 28 31 31 32 31 31 31 30 30 29 32 29 27 26 25 21 21 19 24 20 22 19 20 20 28 33 32 35 36 36 36 36 36
49 49 48 49 49 48 41 33 35 33 30 29 29 28 31 31 31 33 29 31 33 32 32 29 27 23 25 21 21 20 24 27 25 24 25 31 33 34 35 37 37 37 37 37
50 49 48 49 49 49 40 34 36 34 29 23 22 30 30 31 32 32 32 32 33 33 32 29 28 26 26 23 23 24 23 26 25 25 27 30 34 35 37 38 38 38 38 38
51 51 49 49 50 45 38 36 36 36 32 25 24 28 30 31 32 32 33 33 31 30 29 28 26 28 27 26 26 24 26 26 24 21 28 30 32 36 38 38 38 39 38 38
51 49 50 50 47 42 37 31 34 35 32 25 17 28 28 30 31 30 30 30 30 30 28 27 27 28 25 22 21 22 26 28 26 24 30 31 32 37 38 37 38 38 38 38
49 49 49 48 46 37 31 29 34 38 36 27 23 23 28 29 29 31 31 30 29 29 28 26 26 27 28 24 21 18 23 28 27 32 34 32 34 35 37 37 37 39 37 37
47 46 45 45 42 39 31 33 38 38 32 31 23 24 23 29 26 26 30 28 28 27 25 27 25 26 26 23 23 24 23 28 31 33 32 33 35 36 35 35 36 35 35 35
46 46 46 40 34 31 32 40 39 36 32 25 25 18 16 30 28 29 28 29 23 27 25 24 26 23 22 21 20 22 26 31 31 32 33 34 35 36 35 35 34 34 34 34
45 38 35 33 34 40 38 33 29 29 30 30 24 26 24 27 27 25 26 28 25 17 25 27 25 24 23 22 22 20 25 31 33 31 31 31 32 34 34 35 35 34 34 34
40 36 33 36 40 32 29 24 23 24 22 27 26 26 24 29 24 25 28 21 23 15 20 23 21 21 24 25 23 24 25 31 33 31 32 33 33 34 34 34 34 34 33 33
41 38 39 36 32 27 19 19 22 23 20 24 25 26 26 28 30 25 25 21 18 14 24 18 17 19 22 25 26 25 25 31 33 33 33 34 34 35 35 34 34 33 33 32
41 36 33 28 27 15 13 10 13 16 23 25 25 23 27 28 29 24 22 20 19 24 13 17 20 21 24 25 25 25 27 31 32 32 33 34 34 34 34 33 32 32 31 31
35 31 22 22 16 22 21 19 20 23 24 25 26 24 26 29 25 23 14 20 22 13 13 14 23 21 24 25 25 27 29 32 32 33 32 33 33 33 32 32 32 32 31 31
35 32 26 21 24 20 19 20 22 25 27 27 26 25 26 24 23 26 20 16 14 16 15 22 26 28 22 23 26 25 26 30 30 30 31 31 31 31 31 31 31 31 30 30
34 33 32 32 28 22 25 22 21 26 29 28 27 23 20 20 23 18 17 12 10 15 22 26 27 27 25 25 26 26 26 25 26 27 29 30 30 30 30 30 29 29 29 28
33 31 34 29 22 23 23 26 27 31 27 22 24 16 17 21 14 15 19 16 22 26 30 29 28 27 26 25 27 27 28 28 25 27 29 29 29 28 28 27 26 26 27 27

GFSNW_sfc_dewp_129.txt.gz
Dewpoint
48 48 49 48 47 45 42 36 30 39 41 28 26 22 25 31 27 30 29 28 26 25 26 25 22 23 30 31 33 32 34 33 27 30 33 34 34 33 31 23 21 23 25 25
48 49 49 48 46 44 38 35 33 40 37 23 23 24 25 28 27 27 28 28 27 26 24 25 26 26 31 32 32 31 33 29 20 22 28 31 34 32 32 31 30 23 22 24
49 50 50 49 48 46 39 34 26 32 33 30 24 23 23 25 27 28 29 29 28 25 26 28 27 24 30 32 31 36 36 33 29 25 30 32 29 30 30 29 25 27 27 29
49 49 49 48 47 48 39 32 29 29 25 28 25 24 23 23 23 27 28 28 28 26 24 25 25 26 29 31 34 35 32 30 32 33 34 31 31 30 29 28 30 27 30 31
49 49 49 48 49 47 37 32 30 31 29 29 23 23 21 23 25 26 26 27 28 27 25 25 24 27 28 27 30 31 30 26 27 27 31 30 29 31 30 30 29 29 30 32
48 49 49 49 50 42 35 35 34 30 28 25 21 21 21 25 25 29 30 29 28 27 28 30 29 29 30 30 29 29 29 26 24 19 24 23 21 30 30 31 31 30 29 32
49 49 49 50 50 43 35 34 31 29 27 26 23 23 28 30 28 27 30 30 28 29 35 33 32 30 30 31 30 31 28 25 25 20 19 13 22 32 32 31 32 33 32 32
49 49 49 49 49 46 36 35 31 27 23 23 24 27 27 26 28 29 29 30 31 34 33 28 26 25 25 27 29 28 29 27 22 20 20 21 25 30 30 29 28 33 32 33
49 50 49 49 49 48 37 35 35 29 24 22 27 24 25 24 23 26 29 32 33 33 32 28 21 19 21 21 22 29 28 27 23 21 18 17 22 30 33 31 24 34 33 34
49 49 50 50 49 45 36 34 36 29 26 27 27 22 23 27 27 26 27 28 29 31 28 25 21 20 23 21 19 20 20 21 21 22 18 20 25 30 31 20 21 34 35 33
49 49 50 50 49 47 35 33 35 30 27 27 29 29 26 27 28 26 27 27 28 28 26 24 23 23 23 20 21 19 18 18 19 21 18 9 29 30 25 26 34 35 35 35
49 49 50 49 49 49 37 30 35 34 28 27 31 31 31 30 30 30 29 28 28 31 28 26 25 25 19 20 17 22 20 21 19 20 18 23 30 30 32 35 35 35 35 36
50 49 49 49 49 48 40 33 35 32 28 27 28 27 30 31 31 33 29 30 32 31 31 28 27 23 25 20 21 18 22 26 25 25 22 28 32 33 35 36 35 36 36 37
49 48 48 50 49 47 40 34 35 33 28 23 21 30 29 32 32 32 32 31 33 32 31 28 27 25 26 23 22 23 23 26 24 24 26 29 32 34 36 36 37 37 37 37
50 50 49 50 49 45 37 35 35 36 30 24 23 26 29 31 31 32 32 33 31 29 28 27 25 27 27 25 24 23 25 25 22 17 24 26 27 34 36 37 37 37 37 36
50 50 49 50 49 41 35 30 33 35 32 25 18 26 27 29 30 30 29 30 30 29 28 27 27 27 26 20 20 22 25 27 24 18 25 31 31 35 37 37 37 37 37 37
51 50 50 50 46 36 30 26 32 37 34 26 22 22 27 29 29 30 30 29 29 28 27 27 25 26 28 23 19 14 20 26 27 28 33 30 33 33 36 37 37 39 36 36
50 50 49 47 42 37 29 32 39 36 32 30 22 21 19 29 26 25 30 28 27 27 25 26 25 26 25 23 22 22 22 23 28 29 32 30 33 35 36 36 36 35 35 35
47 47 45 39 35 32 32 40 38 36 29 24 24 17 14 28 28 28 28 28 23 27 26 23 25 22 22 21 20 20 21 25 27 30 32 32 33 34 35 34 34 34 34 34
46 38 35 33 34 39 38 32 28 28 29 29 24 25 22 26 26 24 25 27 24 16 25 27 26 24 24 23 22 19 20 27 31 30 30 31 32 34 35 35 35 36 35 34
39 35 34 36 39 31 27 24 23 24 22 26 25 25 23 27 21 23 27 18 22 14 20 23 22 20 23 23 25 24 22 27 32 31 31 32 31 35 35 34 34 34 33 33
40 38 37 35 30 26 20 19 20 22 19 24 24 25 25 26 29 25 24 19 16 13 24 20 18 20 19 22 24 25 24 26 32 32 32 33 33 34 35 35 34 33 33 33
40 36 31 27 25 16 15 12 14 15 22 24 25 23 26 28 28 24 22 19 17 23 11 17 21 24 23 25 26 25 25 26 30 31 32 33 33 34 35 34 34 33 33 32
36 34 29 24 20 23 22 21 21 22 24 24 25 24 25 27 24 23 14 20 22 15 13 11 20 24 28 27 25 25 26 29 30 31 32 32 33 33 33 34 33 33 32 31
35 32 22 23 25 22 23 20 22 25 27 27 25 25 25 23 21 25 19 16 13 16 14 20 23 24 28 26 26 24 24 26 28 29 30 30 32 32 31 32 31 31 30 30
34 33 30 30 25 25 27 26 23 26 28 27 25 22 18 19 21 17 15 10 9 15 19 23 22 25 25 26 26 27 24 23 25 24 27 30 29 30 30 29 29 29 30 30
33 31 34 28 25 27 25 27 27 30 28 22 21 16 16 20 12 14 17 14 19 21 22 24 26 27 26 26 25 26 28 28 27 26 29 29 30 28 28 28 26 27 29 29

GFSNW_sfc_dewp_132.txt.gz
Dewpoint
49 49 49 48 47 46 41 35 26 38 38 28 24 23 25 31 28 29 29 27 26 24 25 24 23 25 29 32 33 34 37 34 25 29 36 34 34 31 30 19 19 19 23 20
50 50 50 49 49 46 37 32 32 38 35 21 22 23 25 27 27 27 28 27 27 26 25 24 26 25 30 32 32 32 34 28 18 20 25 31 31 31 31 30 26 22 21 24
50 50 49 49 49 49 38 32 26 32 32 29 23 22 24 25 27 27 29 29 27 25 26 28 27 24 30 32 31 35 36 32 24 21 24 32 27 29 29 25 21 25 27 29
49 49 49 49 50 48 38 32 29 29 24 28 23 23 23 22 24 27 29 27 28 26 24 24 25 26 29 30 33 35 32 29 30 32 33 31 30 29 29 25 28 23 28 30
49 49 49 50 50 44 36 31 30 30 27 27 22 23 22 24 25 27 27 27 28 27 25 24 24 26 28 26 30 30 29 27 28 27 31 28 28 30 29 29 30 29 29 31
49 49 50 50 50 40 35 34 33 29 28 24 20 21 24 25 26 29 30 29 27 27 28 29 29 29 29 29 28 28 28 26 24 21 25 23 20 27 29 30 31 30 28 31
49 49 50 50 50 40 34 34 31 28 26 23 22 25 29 29 29 27 30 30 27 29 34 33 30 30 30 30 30 30 26 24 25 20 19 13 18 32 32 31 32 33 32 33
49 49 49 49 48 43 36 35 30 27 23 23 24 27 27 25 27 28 29 30 31 33 32 28 25 24 25 27 28 27 28 26 22 19 19 19 24 29 31 29 27 33 31 33
50 50 49 49 46 44 35 34 34 28 24 22 26 23 24 24 23 26 29 31 33 32 31 26 21 19 19 20 21 28 27 26 24 21 17 14 18 29 32 31 24 33 33 33
49 49 50 49 47 44 35 33 34 29 25 26 25 22 23 27 26 25 26 28 30 30 27 25 21 19 22 20 18 19 20 21 21 21 18 19 23 30 31 20 18 34 33 33
49 49 50 49 48 46 35 33 34 29 26 27 29 29 26 27 28 26 26 26 26 27 26 24 23 22 22 20 20 19 17 16 20 21 17 7 28 29 26 24 32 34 33 33
50 50 50 49 48 45 36 30 35 33 28 26 30 30 30 30 30 30 28 27 27 29 27 25 25 24 18 19 17 21 20 20 17 21 19 19 29 28 30 34 34 33 34 34
50 49 50 49 49 45 38 32 35 31 27 26 28 27 30 31 32 33 29 29 31 30 31 27 26 24 25 20 20 17 22 24 23 23 21 23 28 31 33 35 34 35 35 36
49 49 49 50 50 47 39 34 35 32 28 22 20 30 28 31 31 32 32 31 32 31 30 28 27 25 26 23 21 22 21 25 23 23 24 25 29 32 34 35 35 36 35 36
50 50 49 50 50 44 37 35 35 35 25 17 23 26 28 31 31 31 32 32 30 29 28 27 25 27 26 25 23 22 25 24 19 11 19 21 20 31 35 36 36 36 36 35
50 50 50 50 49 41 33 28 32 35 32 25 20 24 25 28 29 29 28 30 29 28 28 27 27 27 26 21 17 19 25 26 23 15 20 28 29 32 35 36 36 36 37 36
50 50 50 50 48 36 29 24 31 37 33 26 22 20 26 28 29 29 29 28 28 28 27 26 25 26 28 23 19 15 15 22 26 26 31 28 31 29 35 36 37 39 36 36
50 50 50 49 42 36 29 32 39 35 31 29 22 20 18 28 25 24 28 27 27 26 25 26 25 26 25 23 23 22 21 21 23 27 31 29 30 33 34 35 36 36 35 35
50 48 45 37 34 31 32 40 37 35 28 24 24 17 14 27 27 27 27 28 22 27 25 23 26 22 21 22 20 20 18 20 21 26 28 31 31 32 33 35 35 35 35 34
45 38 36 33 35 39 39 31 28 28 27 28 23 23 20 25 26 24 24 26 22 14 24 26 25 24 24 24 24 23 23 23 23 26 27 28 30 31 32 34 35 36 36 34
38 34 33 36 39 31 27 25 24 23 23 26 24 23 23 27 21 23 26 17 21 13 19 23 22 22 22 21 20 24 25 25 24 28 29 30 31 32 33 33 34 35 34 34
39 37 37 34 30 26 22 22 21 22 19 23 23 24 24 26 28 25 25 19 15 12 23 18 18 21 21 20 25 26 25 25 24 29 31 31 32 33 34 34 34 34 34 33
40 35 30 28 27 17 17 16 16 15 22 24 25 23 26 27 27 24 22 14 16 22 10 16 20 23 23 26 27 25 25 26 26 27 31 32 32 32 33 33 34 34 33 32
37 34 32 25 21 23 24 22 23 23 23 25 25 25 25 27 24 23 14 20 21 14 11 11 18 20 21 26 26 24 25 26 28 29 30 31 32 32 32 33 33 33 33 32
35 34 28 25 27 24 25 22 24 25 26 27 26 25 25 24 22 24 19 16 12 15 13 18 20 21 19 24 26 25 25 26 26 28 28 29 30 31 31 31 32 32 31 31
34 33 29 27 26 25 27 27 25 27 28 27 26 22 19 20 21 18 17 12 9 14 19 22 18 20 20 25 25 25 25 24 25 27 28 30 30 30 30 28 30 30 30 30
34 31 34 30 28 29 29 29 28 28 27 22 19 17 17 21 13 15 18 15 20 21 20 21 22 23 25 25 25 25 25 25 25 26 28 30 30 29 27 29 29 29 30 30